[[{"header":{"parameterUnit":"m.s-1","parameterCategory":1,"la1":30.6,"la2":29.2853,"lo1":-89.7004,"lo2":-87.6739,"dy":0.0162,"dx":0.0183,"nx":112,"ny":82,"refTime":"2026-04-20T12:00:00:Z","depth":0,"parameterNumber":2,"parameterNumberName":"U-component_of_WINDS"},"data":[0.0,0.0,0.0,0.0,0.0,0.0,0.0,0.0,0.0,0.0,0.0,0.0,0.0,0.0,0.0,0.0,0.0,0.0,0.0,0.0,0.0,0.0,0.0,0.0,0.0,0.0,0.0,0.0,0.0,0.0,0.0,0.0,0.0,0.0,0.0,0.0,0.0,0.0,0.0,0.0,0.0,0.0,0.0,0.0,0.0,0.0,0.0,0.0,0.0,0.0,0.0,0.0,0.0,0.0,0.0,0.0,0.0,0.0,0.0,0.0,0.0,0.0,0.0,0.0,0.0,0.0,0.0,0.0,0.0,0.0,0.0,0.0,0.0,0.0,0.0,0.0,0.0,0.0,0.0,0.0,0.0,0.0,0.0,0.0,0.0,0.0,0.0,0.0,0.0,0.0,0.0,-2.4769,-2.735,-2.7979,-2.6078,-2.3539,-2.1272,-1.9371,0.0,0.0,0.0,0.0,0.0,0.0,0.0,0.0,0.0,0.0,0.0,0.0,0.0,0.0,0.0,0.0,0.0,0.0,0.0,0.0,0.0,0.0,0.0,0.0,0.0,0.0,0.0,0.0,0.0,0.0,0.0,0.0,0.0,0.0,0.0,0.0,0.0,0.0,0.0,0.0,0.0,0.0,0.0,0.0,0.0,0.0,0.0,0.0,0.0,0.0,0.0,0.0,0.0,0.0,0.0,0.0,0.0,0.0,0.0,0.0,0.0,0.0,0.0,0.0,0.0,0.0,0.0,0.0,0.0,0.0,0.0,0.0,0.0,0.0,0.0,0.0,0.0,0.0,0.0,0.0,0.0,0.0,0.0,0.0,0.0,0.0,0.0,0.0,0.0,0.0,0.0,0.0,0.0,0.0,0.0,0.0,0.0,0.0,0.0,0.0,0.0,0.0,0.0,0.0,-2.2353,-2.7455,-2.8861,-2.8873,-2.742,-2.4859,-2.2733,-2.1355,0.0,0.0,0.0,0.0,0.0,0.0,0.0,0.0,0.0,0.0,0.0,0.0,0.0,0.0,0.0,0.0,0.0,0.0,0.0,0.0,0.0,0.0,0.0,0.0,0.0,0.0,0.0,0.0,0.0,0.0,0.0,0.0,0.0,0.0,0.0,0.0,0.0,0.0,0.0,0.0,0.0,0.0,0.0,0.0,0.0,0.0,0.0,0.0,0.0,0.0,0.0,0.0,0.0,0.0,0.0,0.0,0.0,0.0,0.0,0.0,0.0,0.0,0.0,0.0,0.0,0.0,0.0,0.0,0.0,0.0,0.0,0.0,0.0,0.0,0.0,0.0,0.0,0.0,0.0,0.0,0.0,0.0,0.0,0.0,0.0,0.0,0.0,0.0,0.0,0.0,0.0,0.0,0.0,0.0,0.0,0.0,0.0,0.0,0.0,0.0,0.0,0.0,0.0,-2.2877,-2.6722,-2.9821,-3.1106,-3.0909,-2.8858,-2.6213,-2.3684,-2.1321,-1.7618,0.0,0.0,0.0,0.0,0.0,0.0,0.0,0.0,0.0,0.0,0.0,0.0,0.0,0.0,0.0,0.0,0.0,0.0,0.0,0.0,0.0,0.0,0.0,0.0,0.0,0.0,0.0,0.0,0.0,0.0,0.0,0.0,0.0,0.0,0.0,0.0,0.0,0.0,0.0,0.0,0.0,0.0,0.0,0.0,0.0,0.0,0.0,0.0,0.0,0.0,0.0,0.0,0.0,0.0,0.0,0.0,0.0,0.0,0.0,0.0,0.0,0.0,0.0,0.0,0.0,0.0,0.0,0.0,0.0,0.0,0.0,0.0,0.0,0.0,0.0,0.0,0.0,0.0,0.0,0.0,0.0,0.0,0.0,0.0,0.0,0.0,0.0,0.0,0.0,0.0,0.0,0.0,0.0,0.0,0.0,0.0,0.0,0.0,0.0,0.0,0.0,0.0,-2.7604,-3.0717,-3.1839,-3.332,-3.3066,-3.0283,-2.7604,-2.4672,-2.138,-1.7826,0.0,0.0,0.0,0.0,0.0,0.0,0.0,0.0,0.0,0.0,0.0,0.0,0.0,0.0,0.0,0.0,0.0,0.0,0.0,0.0,0.0,0.0,0.0,0.0,0.0,0.0,0.0,0.0,0.0,0.0,0.0,0.0,0.0,0.0,0.0,0.0,0.0,0.0,0.0,0.0,0.0,0.0,0.0,0.0,0.0,0.0,0.0,0.0,0.0,0.0,0.0,0.0,0.0,0.0,0.0,0.0,0.0,0.0,0.0,0.0,0.0,0.0,0.0,0.0,0.0,0.0,0.0,0.0,0.0,0.0,0.0,0.0,0.0,0.0,0.0,0.0,0.0,0.0,0.0,0.0,0.0,0.0,0.0,0.0,0.0,0.0,0.0,0.0,0.0,0.0,0.0,0.0,0.0,0.0,0.0,0.0,0.0,0.0,0.0,0.0,0.0,0.0,-2.9074,-3.2587,-3.3275,-3.5115,-3.4951,-3.1645,-2.8966,-2.6057,-2.2763,-1.832,0.0,0.0,0.0,0.0,0.0,0.0,0.0,0.0,0.0,0.0,0.0,0.0,0.0,0.0,0.0,0.0,0.0,0.0,0.0,0.0,0.0,0.0,0.0,0.0,0.0,0.0,0.0,0.0,0.0,0.0,0.0,0.0,0.0,0.0,0.0,0.0,0.0,0.0,0.0,0.0,0.0,0.0,0.0,0.0,0.0,0.0,0.0,0.0,0.0,0.0,0.0,0.0,0.0,0.0,0.0,0.0,0.0,0.0,0.0,0.0,0.0,0.0,0.0,0.0,0.0,0.0,0.0,0.0,0.0,0.0,0.0,0.0,0.0,0.0,0.0,0.0,0.0,0.0,0.0,0.0,0.0,0.0,0.0,0.0,0.0,0.0,0.0,0.0,0.0,0.0,0.0,0.0,0.0,0.0,0.0,0.0,0.0,0.0,0.0,0.0,0.0,0.0,-2.9809,-3.3215,0.0,-3.5295,-3.5145,-3.1795,-2.9101,-2.6012,-2.2293,0.0,0.0,0.0,0.0,0.0,0.0,0.0,0.0,0.0,0.0,0.0,0.0,0.0,0.0,0.0,0.0,0.0,0.0,0.0,0.0,0.0,0.0,0.0,0.0,0.0,0.0,0.0,0.0,0.0,0.0,0.0,0.0,0.0,0.0,0.0,0.0,0.0,0.0,0.0,0.0,0.0,0.0,0.0,0.0,0.0,0.0,0.0,0.0,0.0,0.0,0.0,0.0,0.0,0.0,0.0,0.0,0.0,0.0,0.0,0.0,0.0,0.0,0.0,0.0,0.0,0.0,0.0,0.0,0.0,0.0,0.0,0.0,0.0,0.0,0.0,0.0,0.0,0.0,0.0,0.0,0.0,0.0,0.0,0.0,0.0,0.0,0.0,0.0,0.0,0.0,0.0,0.0,0.0,0.0,0.0,0.0,0.0,0.0,0.0,0.0,0.0,0.0,-2.504,-3.0528,-3.4053,0.0,-3.5594,-3.5444,-3.2093,-2.922,-2.5908,-2.1949,0.0,0.0,0.0,0.0,0.0,0.0,0.0,0.0,0.0,0.0,0.0,0.0,0.0,0.0,0.0,0.0,0.0,0.0,0.0,0.0,0.0,0.0,0.0,0.0,0.0,0.0,0.0,0.0,0.0,0.0,0.0,0.0,0.0,0.0,0.0,0.0,0.0,0.0,0.0,0.0,0.0,0.0,0.0,0.0,0.0,0.0,0.0,0.0,0.0,0.0,0.0,0.0,0.0,0.0,0.0,0.0,0.0,0.0,0.0,0.0,0.0,0.0,0.0,0.0,0.0,0.0,0.0,0.0,0.0,0.0,0.0,0.0,0.0,0.0,0.0,0.0,0.0,0.0,0.0,0.0,0.0,0.0,0.0,0.0,0.0,0.0,0.0,0.0,0.0,0.0,0.0,0.0,0.0,0.0,0.0,0.0,0.0,0.0,0.0,0.0,0.0,0.0,-2.4938,-3.1275,-3.5235,-3.4563,-3.6207,-3.6043,-3.2766,-2.9445,-2.5893,0.0,0.0,0.0,0.0,0.0,0.0,0.0,0.0,0.0,0.0,0.0,0.0,0.0,0.0,0.0,0.0,0.0,0.0,0.0,0.0,0.0,0.0,0.0,0.0,0.0,0.0,0.0,0.0,0.0,0.0,0.0,0.0,0.0,0.0,0.0,0.0,0.0,0.0,0.0,0.0,0.0,0.0,0.0,0.0,0.0,0.0,0.0,0.0,0.0,0.0,0.0,0.0,0.0,0.0,0.0,0.0,0.0,0.0,0.0,0.0,0.0,0.0,0.0,0.0,0.0,0.0,0.0,0.0,0.0,0.0,0.0,0.0,0.0,0.0,0.0,0.0,0.0,0.0,0.0,0.0,0.0,0.0,0.0,0.0,0.0,0.0,0.0,0.0,0.0,0.0,0.0,0.0,0.0,0.0,0.0,0.0,0.0,0.0,0.0,0.0,0.0,0.0,0.0,-2.4932,-3.1232,-3.4891,-3.326,-3.4442,-3.4039,-3.0717,-2.7829,-2.4702,-2.1196,0.0,0.0,0.0,0.0,0.0,0.0,0.0,0.0,0.0,0.0,0.0,0.0,0.0,0.0,0.0,0.0,0.0,0.0,0.0,0.0,0.0,0.0,0.0,0.0,0.0,0.0,0.0,0.0,0.0,0.0,0.0,0.0,0.0,0.0,0.0,0.0,0.0,0.0,0.0,0.0,0.0,0.0,0.0,0.0,0.0,0.0,0.0,0.0,0.0,0.0,0.0,0.0,0.0,0.0,0.0,0.0,0.0,0.0,0.0,0.0,0.0,0.0,0.0,0.0,0.0,0.0,0.0,0.0,0.0,0.0,0.0,0.0,0.0,0.0,0.0,0.0,0.0,0.0,0.0,0.0,0.0,0.0,0.0,0.0,0.0,0.0,0.0,0.0,0.0,0.0,0.0,0.0,0.0,0.0,0.0,0.0,0.0,0.0,0.0,0.0,0.0,0.0,-2.5165,-3.0862,-3.4038,-3.2273,-3.3066,-3.2467,-2.9445,-2.6991,-2.4186,-2.0897,0.0,0.0,0.0,0.0,0.0,0.0,0.0,0.0,0.0,0.0,0.0,0.0,0.0,0.0,0.0,0.0,0.0,0.0,0.0,0.0,0.0,0.0,0.0,0.0,0.0,0.0,0.0,0.0,0.0,0.0,0.0,0.0,0.0,0.0,0.0,0.0,0.0,0.0,0.0,0.0,0.0,0.0,0.0,0.0,0.0,0.0,0.0,0.0,0.0,0.0,0.0,0.0,0.0,0.0,0.0,0.0,0.0,0.0,0.0,0.0,0.0,0.0,0.0,0.0,0.0,0.0,0.0,0.0,0.0,0.0,0.0,0.0,0.0,0.0,0.0,0.0,0.0,0.0,0.0,0.0,0.0,0.0,0.0,0.0,0.0,0.0,0.0,0.0,0.0,0.0,0.0,0.0,0.0,0.0,0.0,0.0,0.0,0.0,0.0,0.0,0.0,0.0,-2.5363,-3.0199,-3.281,-3.1497,-3.1855,-3.1167,-2.8611,-2.6608,-2.4126,-2.0897,0.0,0.0,0.0,0.0,0.0,0.0,0.0,0.0,0.0,0.0,0.0,0.0,0.0,0.0,0.0,0.0,0.0,0.0,0.0,0.0,0.0,0.0,0.0,0.0,0.0,0.0,0.0,0.0,0.0,0.0,0.0,0.0,0.0,0.0,0.0,0.0,0.0,0.0,0.0,0.0,0.0,0.0,0.0,0.0,0.0,0.0,0.0,0.0,0.0,0.0,0.0,0.0,0.0,0.0,0.0,0.0,0.0,0.0,0.0,0.0,-1.7014,0.0,0.0,0.0,0.0,0.0,0.0,0.0,0.0,0.0,0.0,0.0,0.0,0.0,0.0,0.0,0.0,0.0,0.0,0.0,0.0,0.0,0.0,0.0,0.0,0.0,0.0,0.0,0.0,0.0,0.0,0.0,0.0,0.0,0.0,0.0,0.0,0.0,0.0,0.0,0.0,0.0,-2.4433,-2.8985,-3.1555,-3.0352,-2.9981,-2.9028,-2.7055,-2.5619,-2.3633,-2.0868,-1.8551,0.0,0.0,0.0,0.0,0.0,0.0,0.0,0.0,0.0,0.0,0.0,0.0,0.0,0.0,0.0,0.0,0.0,0.0,0.0,0.0,0.0,0.0,0.0,0.0,0.0,0.0,0.0,0.0,0.0,0.0,0.0,0.0,0.0,0.0,0.0,0.0,0.0,0.0,0.0,0.0,0.0,0.0,0.0,0.0,0.0,0.0,0.0,0.0,0.0,0.0,0.0,0.0,0.0,0.0,0.0,0.0,0.0,0.0,0.0,0.0,-1.9378,0.0,0.0,0.0,0.0,0.0,0.0,0.0,0.0,0.0,0.0,0.0,0.0,0.0,0.0,0.0,0.0,0.0,0.0,0.0,0.0,0.0,0.0,0.0,0.0,0.0,0.0,0.0,0.0,0.0,0.0,0.0,0.0,0.0,0.0,0.0,0.0,0.0,0.0,0.0,0.0,-2.3766,-2.7427,-2.949,-2.874,-2.8529,-2.7856,-2.6431,-2.525,-2.3752,-2.1784,-1.948,0.0,0.0,0.0,0.0,0.0,0.0,0.0,0.0,0.0,0.0,0.0,0.0,0.0,0.0,0.0,0.0,0.0,0.0,0.0,0.0,0.0,0.0,0.0,0.0,0.0,0.0,0.0,0.0,0.0,0.0,0.0,0.0,0.0,0.0,0.0,0.0,0.0,0.0,0.0,0.0,0.0,0.0,0.0,0.0,0.0,0.0,0.0,0.0,0.0,0.0,0.0,0.0,0.0,-2.8377,-2.8662,-2.9207,-2.9723,-2.9983,-2.9834,-2.7156,-2.5136,-2.3676,0.0,0.0,0.0,0.0,0.0,0.0,0.0,0.0,0.0,0.0,0.0,0.0,0.0,0.0,0.0,0.0,0.0,0.0,0.0,0.0,0.0,0.0,0.0,0.0,0.0,-2.7297,-2.6791,0.0,0.0,0.0,0.0,0.0,0.0,0.0,0.0,0.0,0.0,0.0,0.0,-2.3585,-2.6301,-2.7867,-2.7639,-2.7774,-2.7453,-2.6438,-2.5613,-2.4477,-2.2957,-2.0677,-1.873,0.0,0.0,0.0,0.0,0.0,0.0,0.0,0.0,0.0,0.0,0.0,0.0,0.0,0.0,0.0,0.0,0.0,0.0,0.0,0.0,0.0,0.0,0.0,0.0,0.0,0.0,0.0,0.0,0.0,0.0,0.0,0.0,-1.5549,-1.6437,0.0,0.0,0.0,0.0,0.0,0.0,0.0,0.0,0.0,0.0,0.0,0.0,0.0,-2.6453,-2.7736,-3.0135,-3.1934,-3.3116,-3.3621,-3.4152,-3.4677,-3.5194,-3.5444,-3.5459,-3.5549,0.0,-2.7724,-2.6467,0.0,0.0,0.0,0.0,0.0,0.0,0.0,0.0,0.0,0.0,0.0,0.0,0.0,0.0,0.0,0.0,0.0,0.0,0.0,0.0,0.0,0.0,-3.0013,-3.0556,-3.0839,-3.0736,0.0,-2.7299,-2.4408,-2.2486,-2.1355,0.0,0.0,0.0,0.0,0.0,0.0,0.0,-2.4335,-2.696,-2.8641,-2.8824,-2.8699,-2.8137,-2.7074,-2.7115,-2.6147,-2.364,-2.2658,-2.131,-1.9375,-1.7385,0.0,0.0,0.0,0.0,0.0,0.0,0.0,0.0,0.0,0.0,0.0,0.0,0.0,0.0,0.0,0.0,0.0,0.0,0.0,0.0,0.0,0.0,0.0,0.0,0.0,0.0,0.0,0.0,0.0,-1.5908,-1.7422,-1.873,-1.8783,-1.855,0.0,0.0,0.0,0.0,0.0,0.0,0.0,0.0,0.0,-2.751,-2.8956,-3.063,-3.2579,-3.4334,-3.6025,-3.7598,-3.7865,-3.8327,-3.8902,-3.9146,-3.923,-3.926,-3.9514,-3.7958,-3.4981,-3.1794,-2.9475,-2.7709,0.0,0.0,0.0,0.0,-2.4949,-2.5653,-2.7006,-2.7081,0.0,-2.6252,0.0,0.0,0.0,0.0,0.0,0.0,0.0,0.0,0.0,0.0,-3.3395,-3.3694,-3.4053,-3.4113,-3.335,-3.1886,-2.9873,0.0,-2.5185,-2.3397,-2.0954,0.0,0.0,0.0,0.0,-2.2165,-2.4655,-2.7201,-2.8843,-2.9141,-2.9218,-2.9126,-2.882,-2.8062,-2.6941,-2.5375,-2.3969,-2.2493,-2.0887,-1.8879,-1.722,0.0,0.0,0.0,0.0,0.0,0.0,0.0,0.0,0.0,0.0,0.0,0.0,0.0,0.0,0.0,0.0,0.0,0.0,0.0,0.0,0.0,0.0,0.0,0.0,0.0,0.0,0.0,0.0,-1.8182,-1.9441,-2.1147,-2.1351,-2.1176,0.0,0.0,0.0,0.0,0.0,0.0,-2.6923,-2.8546,-3.014,-3.1738,-3.2828,-3.4469,-3.6763,-3.7702,-3.9095,-4.0905,-4.0905,-4.125,-4.1878,-4.1878,-4.1878,-4.1878,-4.1878,-4.1504,-4.0576,-3.6447,-3.3679,-3.1824,-2.9696,-2.8663,-2.8397,-2.8738,-2.9082,-2.9621,-3.1405,-3.1629,-3.1091,-3.1091,0.0,-2.7649,-2.6458,0.0,0.0,0.0,0.0,-2.9651,-3.1914,-3.4262,-3.5998,-3.5998,-3.6372,-3.6447,-3.5477,-3.4998,-3.3796,0.0,-2.8618,-2.6798,-2.4601,0.0,0.0,0.0,0.0,-2.3455,-2.5971,-2.8168,-2.9656,-3.0083,-3.0366,-3.0514,-3.0408,-2.9131,-2.7854,-2.6662,-2.5031,-2.3385,-2.1769,-2.0109,-1.8416,-1.6726,0.0,0.0,0.0,0.0,0.0,0.0,0.0,0.0,0.0,0.0,0.0,0.0,0.0,0.0,0.0,0.0,0.0,0.0,0.0,0.0,0.0,0.0,0.0,0.0,0.0,0.0,0.0,0.0,0.0,-2.3424,-2.3972,0.0,0.0,0.0,0.0,-2.5644,-2.7797,-2.9678,-3.1111,-3.3543,-3.5187,-3.578,-3.6927,-3.8122,-3.9399,-3.9976,-4.0935,-4.2306,-4.2306,-4.2611,-4.3185,-4.3185,-4.3185,-4.3185,-4.3185,-4.2865,-4.2081,-3.9311,-3.7375,-3.5923,-3.329,-3.2632,-3.308,-3.2482,-3.3051,-3.4354,-3.5699,-3.5759,-3.5205,-3.5205,-3.3394,-3.1122,-3.0432,-2.9729,0.0,0.0,-3.2123,-3.3529,-3.4936,-3.6312,-3.7315,-3.7315,-3.7345,-3.7345,-3.7285,-3.6312,-3.4799,0.0,-3.1501,-3.0304,-2.8201,0.0,-2.4868,-2.5544,-2.565,-2.6596,-2.913,-3.0627,-3.1749,-3.2533,-3.2765,-3.2417,-3.1337,-3.0707,-2.928,-2.6752,-2.5914,-2.4358,-2.1799,-2.0991,-1.9373,-1.6741,-1.6009,0.0,0.0,0.0,0.0,0.0,0.0,0.0,0.0,0.0,0.0,0.0,0.0,0.0,0.0,0.0,0.0,0.0,0.0,0.0,0.0,0.0,0.0,0.0,0.0,0.0,0.0,0.0,0.0,-2.6183,-2.7326,0.0,-2.8159,-2.8262,-2.8823,-3.006,-3.2133,-3.4015,-3.5614,-3.7104,-3.843,-3.9495,-3.9905,-4.0544,-4.1408,-4.1587,-4.2102,-4.2985,-4.2985,-4.3105,-4.329,-4.329,-4.329,-4.329,-4.329,-4.317,-4.288,-4.1504,-4.0209,-3.8826,-3.7,-3.6432,-3.6611,-3.6387,-3.6596,-3.7195,-3.8542,-3.8571,-3.7958,-3.7509,-3.6432,-3.519,-3.4547,-3.3903,-3.3574,-3.4472,-3.5654,-3.6746,-3.724,-3.8332,-3.923,-3.8811,-3.8706,-3.8467,-3.7599,-3.6746,-3.5804,-3.4588,-3.3452,-3.2318,-3.1127,-2.9285,-2.8174,-2.877,-2.8162,-2.8417,-3.0583,-3.202,-3.3118,-3.3834,-3.3925,-3.363,-3.2781,-3.1346,-2.9564,-2.739,-2.5809,-2.4178,-2.2418,-2.1291,-2.0045,-1.8672,-1.7564,-1.6144,0.0,0.0,0.0,0.0,0.0,0.0,0.0,0.0,0.0,0.0,0.0,0.0,0.0,0.0,0.0,0.0,0.0,0.0,0.0,0.0,0.0,0.0,0.0,0.0,0.0,0.0,-2.7134,-2.9251,-3.0614,-3.1456,-3.1608,-3.2177,-3.2951,-3.3908,-3.566,-3.7249,-3.8555,-3.9164,-4.0012,-4.1123,-4.1302,-4.1737,-4.2396,-4.2845,-4.3279,-4.3768,-4.3978,-4.4123,-4.4203,-4.4203,-4.4203,-4.4203,-4.4123,-4.4123,-4.4053,-4.3579,-4.2836,-4.1878,-4.0098,-3.9394,-3.9394,-3.9394,-3.9394,-3.9529,-4.0427,-4.0442,-4.0008,-3.9544,-3.9095,-3.8676,-3.8257,-3.7838,-3.7584,-3.8018,-3.8751,-3.9394,-3.9394,-3.9888,-4.0292,-3.9843,-3.9574,-3.9074,-3.7988,-3.6911,-3.6088,-3.5878,-3.4936,-3.3963,-3.329,-3.1913,-3.0956,-3.115,-3.0268,-3.0195,-3.1944,-3.3155,-3.4083,-3.4788,-3.4848,-3.4457,-3.3574,-3.1869,-2.9909,-2.7735,-2.5719,-2.3917,-2.2418,-2.1515,-2.0513,-1.9375,-1.7849,-1.6533,-1.5455,0.0,0.0,0.0,0.0,0.0,0.0,0.0,0.0,0.0,0.0,0.0,0.0,0.0,0.0,0.0,0.0,0.0,0.0,0.0,0.0,0.0,0.0,0.0,-2.5428,-2.8229,-3.0789,-3.2517,-3.376,-3.4529,-3.4734,-3.5224,-3.6029,-3.7125,-3.8349,-3.9292,-3.9778,-3.976,-3.9988,-4.0652,-4.1108,-4.1707,-4.2396,-4.3658,-4.4453,-4.4755,-4.5389,-4.5813,-4.6017,-4.6057,-4.6057,-4.6017,-4.5828,-4.5705,-4.5705,-4.5428,-4.5289,-4.505,-4.2491,-4.1542,-4.1542,-4.1542,-4.1542,-4.1542,-4.1512,-4.1474,-4.1474,-4.1444,-4.1482,-4.1482,-4.1452,-4.1437,-4.1422,-4.1354,-4.1324,-4.1324,-4.1324,-4.0861,-4.0397,-4.0367,-3.9903,-3.9245,-3.8512,-3.6866,-3.5714,-3.6342,-3.5953,-3.531,-3.4653,-3.3994,-3.3305,-3.2647,-3.1959,0.0,-3.332,-3.4099,-3.4773,-3.5429,-3.5504,-3.4966,-3.3604,-3.2258,-3.0374,-2.7764,-2.5689,-2.3708,-2.1784,-2.168,-2.0752,-1.8807,-1.6862,-1.5545,-1.4871,0.0,0.0,0.0,0.0,0.0,0.0,0.0,0.0,0.0,0.0,0.0,0.0,0.0,0.0,0.0,0.0,0.0,0.0,0.0,0.0,0.0,0.0,-2.7599,-2.8431,-3.1137,-3.3732,-3.5653,-3.7168,-3.8046,-3.8011,-3.8636,-3.904,-3.9128,-4.0169,-4.0641,-4.0256,-3.9781,-3.9734,-4.0101,-4.0491,-4.1205,-4.2396,-4.3658,-4.4693,-4.5434,-4.6056,-4.6453,-4.6676,-4.7169,-4.7192,-4.6842,-4.6517,-4.6188,-4.5895,-4.547,-4.5289,-4.5229,-4.4496,-4.4212,-4.4212,-4.4212,-4.4212,-4.4152,-4.3673,-4.3509,-4.3434,-4.2955,-4.2791,-4.2716,-4.2276,-4.1796,-4.128,-4.0801,-4.0322,-3.9963,-3.9963,-4.0172,-4.0277,-3.9798,-3.9918,-3.9679,-3.8033,-3.6911,-3.6133,-3.5833,-3.6013,-3.5998,-3.534,-3.4666,-3.3978,-3.332,-3.2662,0.0,-3.338,-3.4099,-3.4773,-3.5429,-3.5504,-3.4966,-3.3604,-3.2258,-3.0374,-2.7764,-2.5255,-2.3221,-2.1754,-2.1231,-2.0703,-2.015,-1.8672,-1.7325,0.0,0.0,0.0,0.0,0.0,0.0,0.0,0.0,0.0,0.0,0.0,0.0,0.0,0.0,0.0,0.0,0.0,0.0,0.0,0.0,0.0,0.0,-2.9133,-3.1648,-3.322,-3.4877,-3.6517,-3.8019,-3.9528,-4.0384,-4.0319,-4.0901,-4.1163,-4.0923,-4.1904,-4.2137,-4.1278,-4.0629,-4.0455,-4.0804,-4.1079,-4.1858,-4.3188,-4.467,-4.5828,-4.6671,-4.7346,-4.7909,-4.8302,-4.8767,-4.8789,0.0,-4.7893,-4.7525,-4.7165,-4.6547,-4.6254,0.0,0.0,0.0,0.0,0.0,-4.5289,-4.52,-4.4541,-4.4317,-4.4212,-4.3499,-4.329,-4.3125,-4.2237,-4.1527,-4.0771,-3.9828,-3.908,-3.8646,-3.8916,-3.9484,-3.9963,-3.9858,-4.0127,-4.0008,-3.8556,-3.733,-3.6447,-3.6327,-3.6402,0.0,-3.6327,-3.5759,-3.5028,-3.4038,-3.3589,-3.3469,-3.3858,-3.4487,-3.5055,-3.5459,-3.5504,-3.507,-3.3993,-3.2706,0.0,0.0,0.0,-2.3744,-2.2194,-2.1485,0.0,0.0,0.0,0.0,0.0,0.0,0.0,0.0,-1.8057,-1.8326,0.0,0.0,0.0,0.0,0.0,0.0,0.0,0.0,0.0,0.0,0.0,0.0,0.0,0.0,0.0,0.0,-3.2889,-3.5553,-3.8388,-3.8873,-3.9222,-3.9962,-4.127,-4.2072,-4.1988,-4.2413,-4.2622,-4.2492,-4.3387,-4.3533,-4.2603,0.0,0.0,0.0,0.0,-4.3159,-4.4603,-4.6355,-4.7553,-4.8251,-4.9052,-4.9734,-5.0338,-5.0586,-5.0586,-5.0354,-4.9694,-4.9269,-4.8934,-4.8076,-4.7666,-4.7433,-4.6062,-4.5529,-4.5529,-4.5529,-4.5529,-4.5424,-4.4766,0.0,0.0,-4.3618,-4.3349,-4.3065,-4.1863,-4.098,-4.0142,-3.8856,-3.7928,-3.7479,-3.8197,-3.8901,-3.9553,-4.0247,-4.0516,-4.0397,-3.9589,-3.8048,-3.6926,-3.733,-3.703,-3.6851,-3.733,-3.6896,-3.6058,-3.4818,-3.4563,-3.4503,-3.4503,-3.5085,-3.5504,-3.5504,0.0,0.0,-3.4563,-3.3335,-3.1779,-2.9804,-2.7051,-2.4657,-2.2778,-2.2059,-2.1744,-2.1819,-2.125,-2.0976,-2.1036,-2.1804,-2.2808,-2.3999,-2.2128,-2.162,0.0,0.0,0.0,0.0,0.0,0.0,0.0,0.0,0.0,0.0,0.0,0.0,0.0,0.0,0.0,-3.264,-3.4786,-3.6956,-3.9463,-4.124,-4.2282,-4.235,-4.3747,-4.4402,-4.37,-4.3709,-4.3793,-4.3731,-4.3939,-4.3863,-4.3462,-4.3141,-4.305,-4.3298,-4.3604,-4.4579,-4.6355,-4.7767,-4.8899,-4.9757,0.0,0.0,-5.1199,-5.1782,-5.1835,-5.1466,-5.0968,-5.0338,-4.963,-4.878,-4.7976,-4.7322,-4.7025,-4.692,-4.692,-4.692,-4.692,-4.6815,-4.6172,-4.5574,-4.5005,-4.4332,-4.3723,-4.314,-4.244,-4.1339,0.0,-3.9439,-3.7988,-3.6926,-3.8093,-3.8901,-3.9553,-4.0247,-4.1205,-4.1504,-3.9783,-3.9089,-3.8571,-3.7599,-3.7749,-3.7898,-3.7479,-3.6896,-3.6222,-3.5429,-3.4863,-3.4503,-3.4503,-3.5085,-3.5504,-3.5504,-3.5504,-3.5235,-3.4563,-3.3754,-3.2452,-3.0447,-2.6832,-2.4156,-2.2763,-2.2059,-2.1974,-2.2565,-2.2495,-2.2727,-2.3203,-2.443,-2.5626,-2.6791,-2.533,-2.5016,0.0,0.0,0.0,0.0,0.0,0.0,0.0,0.0,0.0,0.0,0.0,-2.651,-2.8328,0.0,-3.2395,-3.4514,-3.6474,-3.8417,-4.0366,-4.2831,-4.4305,-4.385,-4.4747,-4.5362,-4.5303,-4.5244,-4.5185,-4.5198,-4.5537,-4.5497,-4.492,-4.5398,-4.5645,-4.5653,-4.6243,-4.7171,-4.8476,-4.927,-4.9987,-5.0663,-5.1065,-5.1417,-5.1745,-5.2178,-5.2247,-5.1941,-5.1455,-5.0914,-5.026,-4.9188,-4.8313,-4.7639,-4.7639,-4.751,-4.7309,-4.7309,-4.7309,-4.7204,-4.6503,-4.6097,-4.5693,-4.502,-4.4586,-4.4137,-4.3204,-4.2216,-4.1115,-3.9783,-3.8467,-3.7584,-3.8227,-3.9155,-4.0083,-4.0726,-4.1677,-4.2126,-4.11,-4.0367,-3.9709,-3.9035,-3.8901,-3.8796,-3.8467,-3.7599,-3.6731,-3.6088,-3.5429,-3.4996,-3.4996,-3.5295,-3.5504,-3.5504,-3.5504,-3.537,-3.5026,-3.4068,-3.2632,-3.0627,-2.8068,-2.6019,-2.471,-2.4014,-2.3704,-2.3797,-2.4482,-2.5161,-2.5786,-2.7152,-2.8583,-3.0028,-2.937,-2.8876,0.0,0.0,0.0,0.0,0.0,0.0,0.0,0.0,-2.2911,-2.5242,-2.7882,-3.0197,-3.1507,-3.3473,-3.5283,-3.6563,-3.8245,-3.9986,-4.1627,-4.4079,-4.5534,-4.5089,-4.5537,-4.6123,-4.6696,-4.6673,-4.6666,-4.68,-4.7237,-4.7309,-4.6915,-4.7841,-4.8462,-4.8564,-4.9227,-4.9929,-5.0627,-5.0864,-5.1118,-5.1455,-5.1623,-5.1875,-5.2266,-5.2409,-5.2409,-5.223,-5.1712,-5.1273,-5.0821,-4.967,-4.8877,-4.8355,-4.8271,-4.7949,-4.7538,-4.7467,-4.7381,-4.7263,-4.6824,-4.6554,-4.6359,-4.5803,-4.5518,-4.5218,-4.4198,-4.3442,-4.2541,-4.0778,-3.9697,-3.9032,-3.9032,-3.9805,-4.0756,-4.1414,-4.2111,-4.2545,-4.2425,-4.1572,-4.0711,-4.0442,-3.9963,-3.9574,-3.9403,-3.8302,-3.724,-3.6746,-3.5998,-3.5504,-3.5504,-3.5504,-3.5504,-3.5504,-3.5504,-3.5504,-3.5504,-3.4382,-3.2886,-3.1016,-2.9804,-2.8517,-2.7036,-2.6467,-2.5856,-2.5206,-2.6527,-2.7538,-2.8233,-2.9562,-3.1093,-3.2736,-3.2736,-3.2152,-2.0651,-2.2319,-2.4702,-2.5484,-2.621,-2.7037,0.0,0.0,-2.7815,-3.0643,-3.2896,-3.4596,-3.5351,-3.725,-3.8928,-3.9683,-4.0459,-4.1711,-4.3921,-4.506,-4.5906,-4.6481,-4.7179,-4.7639,-4.7753,-4.7723,-4.7994,-4.8652,-4.8179,-4.8382,-4.9598,-4.9786,-5.0382,-5.1581,-5.1699,-5.1998,-5.2596,-5.2609,-5.2642,-5.2677,-5.2712,-5.2764,-5.2799,-5.2834,-5.2834,-5.2764,-5.2183,-5.168,-5.1273,-5.0576,-5.0033,-4.9583,-4.9213,-4.8821,-4.8407,-4.8034,-4.7752,-4.7581,-4.7761,-4.7422,-4.6921,-4.683,-4.6421,-4.5905,-4.5753,-4.5253,-4.454,-4.3736,-4.247,-4.1324,-4.1324,-4.1295,-4.1482,-4.2126,-4.2746,-4.306,-4.253,-4.2291,-4.1826,-4.0621,-4.0337,-4.0113,-3.9514,-3.8302,-3.7389,-3.7315,-3.6282,-3.5504,-3.5504,-3.5504,-3.5504,-3.5504,-3.5504,-3.5504,-3.5504,-3.4801,-3.3769,-3.2377,-3.157,-3.033,-2.8457,-2.8308,-2.773,-2.66,-2.7906,-2.8968,-2.9754,-3.1089,-3.2411,-3.3653,-3.3653,-3.3472,-2.3358,-2.5189,-2.756,-2.871,-2.9952,-3.1101,-3.1905,-3.2218,-3.2879,-3.4787,-3.7031,-3.8601,-3.8459,-3.9515,-4.0501,0.0,-4.1408,-4.2472,-4.4344,-4.5585,-4.6295,-4.6177,-4.6041,-4.6312,-4.7175,-4.7259,-4.7581,-4.8308,-4.8883,-4.9458,-5.005,-5.0913,-5.1641,-5.2217,-5.2573,-5.2842,-5.3076,-5.2972,-5.2903,-5.2903,-5.2903,-5.2903,-5.2903,-5.2903,-5.2903,-5.2868,-5.252,-5.2059,-5.1549,-5.1161,-5.0707,-5.0167,-4.9892,-4.9454,-4.8903,-4.837,-4.8202,-4.8214,-4.8423,-4.8594,-4.8615,-4.8615,-4.8429,-4.8195,-4.8195,-4.8033,-4.7503,-4.6214,-4.5233,-4.4311,-4.3297,-4.2793,-4.2596,-4.2865,-4.3135,-4.3215,-4.2985,-4.2626,-4.2231,-4.1692,-4.092,-4.0307,-4.0038,-3.8871,-3.7853,-3.7464,-3.6327,-3.5504,-3.5504,-3.5504,-3.5504,-3.5504,-3.5504,-3.5504,-3.5504,-3.5302,-3.4794,-3.3848,-3.3276,-3.2372,-3.1082,-3.0674,-3.0012,-2.9091,-3.0495,-3.145,-3.1863,-3.322,-3.4273,-3.5091,-3.4951,-3.4841,-2.5965,-2.7894,-3.0173,-3.19,-3.3357,-3.4604,-3.5502,-3.618,-3.6966,-3.8191,-3.9816,-4.0858,-4.0298,-4.0773,-4.1391,-4.1798,-4.2465,-4.3521,-4.5263,-4.643,-4.6836,-4.6092,-4.5162,-4.4936,-4.5788,-4.6244,-4.6887,-4.7821,-4.9272,-5.027,-5.0676,-5.1725,-5.2401,-5.2621,-5.3045,-5.3264,-5.3264,-5.3127,-5.3058,-5.3058,-5.3058,-5.3058,-5.3058,-5.3058,-5.3058,-5.3058,-5.2852,-5.252,-5.2112,-5.1895,-5.1549,-5.1118,-5.08,-5.0322,-4.9757,-4.9188,-4.8903,-4.8805,-4.9132,-4.9559,-4.9994,-4.9994,-4.9994,-4.9994,-4.9994,-4.9994,-4.9662,-4.8168,-4.7286,-4.6437,-4.4909,-4.3977,-4.3423,-4.3503,-4.3463,-4.3423,-4.3503,-4.3166,-4.2775,-4.2595,-4.1783,-4.1017,-4.0619,-3.9547,-3.8462,-3.7608,-3.651,-3.5714,-3.5534,-3.5504,-3.5504,-3.5504,-3.5504,-3.5504,-3.5504,-3.5621,-3.554,-3.5182,-3.482,-3.4288,-3.356,-3.2971,-3.2219,-3.1232,-3.252,-3.3344,-3.3619,-3.4771,-3.5661,-3.6227,-3.607,-3.5831,-2.808,-3.0392,-3.274,-3.5059,-3.6272,-3.7419,-3.9442,-3.9538,-3.9554,-4.0819,-4.0795,-4.0502,-4.0485,-4.0992,-4.186,-4.3287,-4.4105,-4.5309,-4.7496,-4.7821,-4.7597,-4.6853,-4.5495,-4.4299,0.0,-4.4874,-4.6346,-4.7787,-4.9272,-5.071,-5.2164,-5.2283,-5.2655,-5.345,-5.3484,-5.3501,-5.3501,-5.3467,-5.3467,-5.3467,-5.3467,-5.3467,-5.3467,-5.3467,-5.3467,-5.3467,-5.3264,-5.3179,-5.3144,-5.2938,-5.2834,-5.2764,-5.2183,-5.168,-5.1273,-5.0859,-5.0073,-4.9293,-4.9947,-5.0315,-5.047,-5.047,-5.047,-5.047,-5.047,-5.047,-5.0288,-4.94,-4.8189,-4.6959,-4.6082,-4.4779,-4.3729,-4.3949,-4.3832,-4.3729,-4.3949,-4.3972,-4.376,-4.3122,-4.2955,-4.2515,-4.1225,-4.0262,-3.9214,-3.7869,-3.6967,-3.6222,-3.5594,-3.5504,-3.5504,-3.5504,-3.5504,-3.5504,-3.5504,-3.5621,-3.5896,-3.6306,-3.6212,-3.5891,-3.5337,-3.5049,-3.4121,-3.2482,-3.3322,-3.4074,-3.4674,-3.5343,-3.6085,-3.6875,-3.6723,-3.6336,-3.0674,-3.3318,-3.5862,-3.7667,-3.9532,-4.1198,-4.2304,-4.3078,-4.3332,-4.2546,-4.17,-4.1047,-4.0795,-4.082,-4.163,-4.396,-4.5298,-4.665,-4.8392,-4.8193,-4.7648,-4.6887,-4.5026,0.0,0.0,0.0,0.0,-4.6295,-4.8257,-5.0016,-5.1505,-5.2553,-5.323,-5.3501,-5.3501,-5.3501,-5.3501,-5.3501,-5.3501,-5.3501,-5.3501,-5.3501,-5.3501,-5.3501,-5.3501,-5.3518,-5.3433,-5.3298,-5.3179,-5.311,-5.3007,-5.2868,-5.252,-5.2076,-5.1602,-5.1602,-5.1215,-5.0691,-5.0935,-5.1343,-5.1762,-5.1762,-5.1762,-5.1762,-5.1762,-5.1762,-5.1525,-5.0497,-4.9687,-4.8706,-4.6965,-4.5718,-4.484,-4.4311,-4.4228,-4.4274,-4.4503,-4.4827,-4.5064,-4.483,-4.4408,-4.3884,-4.318,-4.1873,-4.0034,-3.7305,-3.6286,-3.5759,-3.5534,-3.5504,-3.5669,-3.6118,-3.5827,-3.5802,-3.6267,-3.6359,-3.6476,-3.6723,-3.6891,-3.6888,-3.6624,-3.6397,-3.5706,-3.4515,-3.5399,-3.5868,-3.5826,-3.6621,-3.7137,-3.7356,-3.7012,-3.6554,-3.3959,-3.6422,-3.8714,-4.0546,-4.2176,-4.3496,-4.4131,-4.4821,-4.4763,-4.2715,-4.0986,-3.9795,-3.9538,-3.9266,-4.013,-4.3262,-4.5286,-4.6992,-4.8453,-4.8474,-4.8037,-4.7276,-4.5669,-4.4231,0.0,0.0,0.0,-4.5179,-4.7361,-4.9373,-5.11,-5.2672,-5.3501,-5.3501,-5.3501,-5.3501,-5.3501,-5.3501,-5.3501,-5.3501,-5.3501,-5.3501,-5.3501,-5.3501,-5.3501,-5.3501,-5.3501,-5.3433,-5.3314,-5.3314,-5.323,-5.3093,-5.2886,-5.259,-5.2219,-5.2324,-5.2164,-5.1931,-5.1729,-5.198,-5.2409,-5.2409,-5.2409,-5.2409,-5.2409,-5.2409,-5.2238,-5.1438,-5.07,-4.9795,-4.7976,-4.6667,-4.5641,-4.4991,-4.4768,-4.4812,-4.5147,-4.5588,-4.5913,-4.5913,-4.5564,-4.5096,-4.4523,-4.2755,-4.0454,-3.764,-3.6844,-3.634,-3.5694,-3.5797,-3.622,-3.6947,-3.6781,-3.6763,-3.7042,-3.7171,-3.7308,-3.7458,-3.7621,-3.7725,-3.7751,-3.7517,-3.7076,-3.6341,-3.6955,-3.7279,-3.7222,-3.7821,-3.8103,-3.8084,-3.7621,-3.7057,-3.7846,-3.9724,-4.1361,-4.3662,-4.426,-4.4458,-4.5043,-4.4931,-4.3969,-4.1451,-3.8795,-3.6901,0.0,0.0,-3.759,-4.1432,-4.423,-4.6442,-4.7891,-4.8619,-4.8748,0.0,0.0,0.0,0.0,0.0,0.0,-4.4666,0.0,-4.8852,-5.1067,-5.2672,-5.3501,-5.3501,-5.3501,-5.3501,-5.3501,-5.3501,-5.3501,-5.3501,-5.3501,-5.3501,-5.3501,-5.3501,-5.3501,-5.3501,-5.3501,-5.3501,-5.3501,-5.3501,-5.3501,-5.3467,-5.3298,-5.3213,-5.3179,-5.2972,-5.2903,-5.285,-5.2302,-5.2283,-5.2409,-5.2409,-5.2409,-5.2409,-5.2409,-5.2409,-5.2354,-5.2175,-5.1343,-5.0265,-4.9135,-4.7607,-4.6241,-4.5918,-4.551,-4.5369,-4.5913,-4.6214,-4.6407,-4.6407,-4.6356,-4.608,-4.517,-4.2929,-4.0683,-3.8839,-3.8591,-3.7966,-3.6152,-3.6433,-3.7149,-3.7998,-3.8274,-3.8214,-3.7871,-3.8138,-3.8402,-3.856,-3.846,-3.8511,-3.8718,-3.8458,-3.8165,-3.7851,-3.7991,-3.8286,-3.8718,-3.8799,-3.8898,-3.9001,-3.8551,-3.7825,-4.1568,-4.3706,-4.5344,-4.5963,-4.6564,-4.6892,-4.647,-4.5393,-4.361,-4.0582,-3.7036,-3.458,0.0,0.0,0.0,-4.0779,-4.4147,0.0,-4.8051,-4.868,0.0,-4.8748,0.0,-4.7259,-4.6312,-4.5551,0.0,0.0,-4.7276,-4.8852,-5.1067,-5.2672,-5.3501,-5.3501,-5.3501,-5.3501,-5.3501,-5.3501,-5.3501,-5.3501,-5.3501,-5.3501,-5.3501,-5.3501,-5.3501,-5.3501,-5.3501,-5.3501,-5.3501,-5.3501,-5.3501,-5.3501,-5.3433,-5.3332,-5.3179,-5.3144,-5.3007,-5.2868,-5.2729,-5.2746,-5.2746,-5.2605,-5.257,-5.2535,-5.2445,-5.2409,-5.239,-5.2354,-5.2117,-5.1493,-4.9821,-4.8835,-4.7955,-4.6696,-4.6391,-4.6464,-4.6759,-4.7202,-4.7571,-4.7571,-4.7471,-4.6861,-4.5391,-4.4381,-4.2831,-3.9975,-4.0008,-3.9613,-3.7558,-3.7864,-3.8577,-3.9389,-3.9372,-3.9424,-3.9754,-3.9998,-3.9985,-3.9556,-3.9764,-3.9611,-3.9098,-3.8909,-3.8717,-3.8551,-3.8689,-3.8838,-3.9065,-3.9239,-3.9352,-3.9362,-3.8887,-3.8298,-4.4029,-4.5662,-4.6878,-4.7244,-4.7408,-4.708,-4.5567,-4.398,-4.1702,-3.7785,-3.4324,-3.2074,-3.2249,-3.3028,0.0,0.0,0.0,0.0,-4.6771,-4.7534,-4.8037,0.0,-4.7665,0.0,-4.7293,-4.7208,-4.7445,0.0,-4.8325,-4.9221,-5.1083,-5.2672,-5.3501,-5.3501,-5.3501,-5.3501,-5.3501,-5.3501,-5.367,-5.3974,-5.3974,-5.416,-5.4482,-5.4482,-5.4482,-5.4482,0.0,-5.4482,-5.4482,-5.4482,-5.4482,-5.4482,-5.4482,-5.4396,-5.4276,-5.3939,-5.3752,-5.3598,-5.3279,-5.3161,-5.3127,-5.285,-5.2659,-5.2605,-5.2499,-5.2445,-5.2409,-5.2409,-5.2409,-5.2073,-5.0582,-4.969,-4.8816,-4.7693,-4.7174,-4.6999,-4.7303,-4.7704,-4.8001,-4.8099,-4.8017,-4.7489,-4.6171,-4.5455,-4.4072,-4.1241,-4.1454,-4.1283,-3.9505,-3.9643,-4.023,-4.1007,-4.1039,-4.1065,-4.1222,-4.1415,-4.1214,-4.0426,-4.0567,-4.0341,-3.9609,-3.9513,-3.9451,-3.9355,-3.9435,-3.9513,-3.9592,-3.9729,-3.9755,-3.9755,-3.9372,-3.8882,-4.5755,-4.6576,-4.7138,-4.7722,-4.7284,-4.6024,-4.3506,-4.1409,-3.8713,-3.4097,-3.1144,-2.9411,-2.9489,-3.071,-3.2914,-3.655,0.0,-4.4285,-4.4894,-4.5869,-4.6498,-4.6498,-4.6583,-4.6989,-4.7804,-4.8748,-4.9593,-5.0338,-4.9898,-5.0118,-5.1302,-5.2723,-5.3501,-5.3501,-5.3501,-5.3501,-5.3501,-5.3501,-5.3822,-5.4448,-5.4448,-5.4786,-5.5429,-5.5429,-5.5429,-5.5429,-5.553,0.0,-5.5564,-5.5564,-5.5564,-5.5547,-5.5463,-5.5429,-5.5344,-5.4685,-5.4448,-5.4346,-5.3721,-5.3501,-5.3433,-5.3058,-5.2834,-5.2659,-5.2659,-5.257,-5.248,-5.248,-5.248,-5.2279,-5.1324,-5.0366,-4.9466,-4.8785,-4.8028,-4.7503,-4.7754,-4.7951,-4.8115,-4.826,-4.826,-4.8026,-4.7182,-4.6277,-4.488,-4.2532,-4.2749,-4.2713,-4.1489,-4.1488,-4.184,-4.258,-4.2816,-4.2785,-4.2446,-4.2605,-4.2327,-4.1365,-4.1307,-4.1049,-4.0434,-4.04,-4.04,-4.04,-4.0299,-4.0248,-4.0248,-4.0146,-4.0146,-4.0248,-3.9993,-3.9644,-4.7626,-4.7956,-4.7918,-4.7405,-4.6653,-4.5242,-4.218,-3.8627,0.0,0.0,-2.834,-2.6556,-2.776,-2.9802,-3.2654,-3.6755,0.0,0.0,0.0,0.0,-4.4987,0.0,0.0,0.0,0.0,0.0,0.0,0.0,0.0,-5.2553,-5.2131,-5.2993,-5.3501,-5.3501,-5.3501,-5.3501,-5.3501,-5.3501,-5.3568,-5.3687,-5.3687,-5.3771,-5.389,-5.389,-5.389,-5.3923,-5.4532,0.0,-5.4786,-5.4786,-5.4786,-5.4718,-5.4126,-5.389,-5.3873,-5.3737,-5.3687,-5.367,-5.3551,-5.3501,-5.3467,-5.323,-5.311,-5.3041,-5.2903,-5.2834,-5.2799,-5.2799,-5.2799,-5.2632,-5.1846,-5.1511,-5.1043,-4.9709,-4.9292,-4.9025,-4.8489,-4.8388,-4.8468,-4.8675,-4.8707,-4.8471,-4.7855,-4.7096,-4.5803,-4.3519,-4.3272,-4.3065,-4.2217,-4.2593,-4.3068,-4.3366,-4.3532,-4.3588,-4.3514,-4.3805,-4.3653,-4.2869,-4.2922,-4.2665,-4.1948,-4.1941,-4.1941,-4.1941,-4.1322,-4.1018,-4.1018,-4.0417,-4.0417,-4.1018,-4.0845,-4.0926,-4.8324,-4.8636,-4.8563,-4.6893,-4.5241,-4.3075,-3.9441,0.0,0.0,0.0,-2.5805,-2.4472,-2.557,-2.7722,0.0,-3.4519,0.0,0.0,0.0,0.0,0.0,0.0,0.0,0.0,0.0,0.0,0.0,0.0,0.0,-5.3331,-5.2959,-5.3298,-5.3501,-5.3501,-5.3501,-5.3501,-5.3501,-5.3501,-5.3687,-5.4059,-5.4059,-5.4279,-5.4651,-5.4651,-5.4651,-5.4668,-5.5023,0.0,-5.5716,-5.5327,-5.5395,-5.5666,-5.4938,-5.4651,-5.4617,-5.4211,-5.4059,-5.4008,-5.3636,-5.3501,-5.3467,-5.3382,-5.3298,-5.3179,-5.3076,-5.2972,-5.2903,-5.2903,-5.2903,-5.2819,-5.2451,-5.2083,-5.1614,-5.0911,-5.0158,-4.9387,-4.8683,-4.8595,-4.869,-4.8769,-4.8863,-4.8807,-4.8514,-4.7547,-4.6295,-4.4823,-4.4282,-4.3606,-4.2439,-4.3284,-4.4006,-4.4109,-4.4167,-4.4212,-4.4212,-4.4355,-4.412,-4.3333,-4.3365,-4.3081,-4.232,-4.2286,-4.2286,-4.2286,-4.1948,-4.1576,-4.1204,-4.1221,-4.1221,-4.1221,-4.154,-4.1805,-4.8765,-4.9077,-4.9004,-4.6507,-4.3828,-4.0726,-3.667,-3.2339,0.0,-2.5485,-2.3584,-2.2694,-2.3463,0.0,-2.8306,0.0,-3.5901,-3.9009,0.0,0.0,0.0,0.0,0.0,0.0,0.0,0.0,0.0,0.0,0.0,0.0,-5.3501,-5.3501,-5.3501,-5.3501,-5.3501,-5.3501,-5.3501,-5.3501,-5.3788,-5.4346,-5.4346,-5.4668,-5.5243,-5.5243,-5.5243,-5.526,-5.5412,0.0,0.0,-5.5716,-5.5818,-5.6258,-5.553,-5.5243,-5.5175,-5.4583,-5.4346,-5.4279,-5.3704,-5.3501,-5.3501,-5.3501,-5.3382,-5.3264,-5.3264,-5.3161,-5.3024,-5.3024,-5.3024,-5.3024,-5.3024,-5.2622,-5.2135,-5.1967,-5.0792,-4.9567,-4.8979,-4.8839,-4.8832,-4.8832,-4.8925,-4.9001,-4.9001,-4.7902,-4.6786,-4.6058,-4.5162,-4.4107,-4.2709,-4.3589,-4.4333,-4.4333,-4.4513,-4.4615,-4.4615,-4.4615,-4.4316,-4.3707,-4.3673,-4.3403,-4.2838,-4.2777,-4.2777,-4.2777,-4.2608,-4.2252,-4.1677,-4.2083,-4.2083,-4.1694,-4.2269,-4.2625,-4.95,-4.9537,-4.9004,-4.6507,-4.2983,-3.9038,-3.4963,0.0,-2.5338,-2.3575,-2.1887,-2.0963,-2.1771,-2.3891,-2.6745,-3.0473,-3.3617,-3.631,0.0,0.0,0.0,0.0,0.0,0.0,0.0,0.0,0.0,0.0,0.0,0.0,-5.3501,-5.3501,-5.3501,-5.3501,-5.3501,-5.3501,-5.3501,-5.3501,-5.3534,-5.3602,-5.3602,-5.3653,-5.3704,-5.3704,-5.3704,-5.3737,-5.4414,0.0,0.0,-5.4718,-5.4735,-5.4718,-5.3991,-5.3704,-5.3687,-5.3636,-5.3602,-5.3602,-5.3518,-5.3501,-5.3501,-5.3501,-5.3501,-5.3467,-5.3467,-5.3467,-5.3433,-5.3433,-5.3433,-5.3433,-5.3433,-5.3382,-5.3146,-5.2453,-5.1134,-5.0035,-4.9968,-4.9444,-4.897,-4.897,-4.9001,-4.9001,-4.9001,-4.8342,-4.7564,-4.6802,-4.5512,-4.4265,-4.342,-4.3409,-4.3494,-4.3494,-4.4147,-4.4615,-4.4615,-4.4615,-4.4581,-4.4496,-4.4496,-4.4479,-4.4395,-4.4395,-4.4395,-4.4395,-4.3673,-4.3257,-4.3189,-4.2591,-4.2608,-4.3189,-4.3257,-4.369,-4.807,-4.8896,-4.8766,-4.5314,-4.144,-3.7272,-3.2687,-2.7658,-2.3492,-2.1832,-2.0584,-2.0016,-2.0826,-2.2557,-2.4954,-2.8318,-3.1379,-3.411,-3.6344,0.0,0.0,0.0,0.0,0.0,0.0,0.0,0.0,0.0,0.0,0.0,-5.38,-5.3601,-5.3501,-5.3501,-5.3501,-5.3501,-5.3501,-5.3501,-5.3501,-5.3501,-5.3501,-5.3501,-5.3501,-5.3501,-5.3501,-5.3518,-5.3805,0.0,0.0,-5.411,-5.4194,-5.4515,-5.3788,-5.3501,-5.3501,-5.3501,-5.3501,-5.3501,-5.3501,-5.3501,-5.3501,-5.3501,-5.3501,-5.3501,-5.3501,-5.3501,-5.3501,-5.3501,-5.3501,-5.3501,-5.3501,-5.3501,-5.3298,-5.2486,-5.1522,-5.0642,-5.0185,-4.9509,-4.9001,-4.9001,-4.9001,-4.9001,-4.9001,-4.8409,-4.7787,-4.7513,-4.621,-4.4976,-4.4215,-4.4113,-4.3944,-4.3443,-4.4113,-4.4615,-4.4615,-4.4615,-4.4615,-4.4615,-4.4615,-4.4615,-4.4615,-4.4615,-4.4615,-4.4615,-4.4282,-4.3876,-4.3392,-4.3589,-4.3589,-4.3409,-4.391,-4.4282,-4.6341,-4.7868,-4.8233,-4.4158,-3.9918,-3.555,-3.0907,-2.6117,-2.2235,-2.0804,-1.9858,-1.9481,-2.0034,-2.1476,-2.3444,-2.6093,-2.8961,-3.1701,-3.4271,-3.5827,0.0,0.0,0.0,0.0,0.0,0.0,0.0,0.0,0.0,0.0,0.0,-5.419,-5.3915,-5.3651,-5.3651,-5.3618,-5.3551,-5.3551,-5.3517,-5.3501,-5.3501,-5.3501,-5.3501,-5.3501,-5.3501,-5.3501,-5.3501,0.0,0.0,-5.3721,-5.3805,-5.4211,-5.3704,-5.3501,-5.3501,-5.3501,-5.3501,-5.3501,-5.3501,-5.3501,-5.3501,-5.3501,-5.3501,-5.3501,-5.3501,-5.3501,-5.3501,-5.3501,-5.3501,-5.3501,-5.3501,-5.3501,-5.3365,-5.279,-5.1911,-5.1065,-5.0541,-4.9678,-4.9001,-4.9001,-4.9001,-4.9001,-4.9001,-4.8578,-4.824,-4.824,-4.7175,-4.6007,-4.5043,-4.4925,-4.4519,-4.3494,-4.4113,-4.4615,-4.4615,-4.4615,-4.4615,-4.4615,-4.4615,-4.4615,-4.4615,-4.4615,-4.4615,-4.4615,-4.4615,-4.4316,-4.3775,-4.4316,-4.4327,-4.3775,-4.4333,-4.4615,-4.4646,-4.6544,-4.7352,-4.3314,-3.8637,-3.3977,-2.9941,-2.5273,-2.1555,-2.0676,-1.9858,-1.9297,-1.9315,-2.0674,-2.2345,-2.3969,-2.6264,-2.8938,-3.2093,-3.3908,0.0,0.0,0.0,0.0,0.0,0.0,0.0,0.0,0.0,0.0,0.0,-5.5385,-5.4953,-5.4013,-5.398,-5.3882,-5.37,-5.3717,-5.3634,-5.3501,-5.3501,-5.3501,-5.3501,-5.3501,-5.3501,0.0,0.0,0.0,0.0,-5.3501,-5.3501,-5.3518,-5.3501,-5.3501,-5.3501,-5.3501,-5.3501,-5.3501,-5.3501,-5.3501,-5.3501,-5.3501,-5.3501,-5.3501,-5.3501,-5.3501,-5.3501,-5.3501,-5.3501,-5.3501,-5.3501,-5.3501,-5.3501,-5.3501,-5.2334,-5.1185,-5.12,-5.005,-4.9001,-4.9001,-4.9001,-4.9001,-4.9001,-4.9001,-4.8984,-4.8984,-4.8359,-4.7361,-4.5889,-4.5703,-4.5111,-4.3544,-4.4113,-4.4615,-4.4615,-4.4615,-4.4615,-4.4615,-4.4615,-4.4615,-4.4615,-4.4615,-4.4615,-4.4615,-4.4615,-4.4615,-4.4598,-4.4615,-4.4615,-4.4598,-4.4615,-4.4615,-4.0244,-4.2179,-4.2805,-3.9893,-3.5883,-3.174,-2.8224,-2.4072,-2.0743,-1.9926,-1.9507,-1.9297,-1.9297,-2.017,-2.1447,-2.3098,-2.4942,-2.7475,0.0,0.0,0.0,0.0,0.0,0.0,0.0,0.0,0.0,0.0,0.0,0.0,0.0,-5.574,-5.5508,-5.4983,-5.4738,-5.4457,-5.4186,-5.3996,-5.3767,-5.3501,-5.3501,-5.3501,-5.3501,-5.3501,-5.3501,0.0,0.0,0.0,0.0,-5.3501,-5.3501,-5.3501,-5.3501,-5.3501,-5.3501,-5.3501,-5.3501,-5.3501,-5.3501,-5.3501,-5.3501,-5.3501,-5.3501,-5.3501,-5.3501,-5.3501,-5.3501,-5.3501,-5.3501,-5.3501,-5.3501,-5.3501,-5.3501,-5.3501,-5.2334,-5.1185,-5.1185,-5.005,-4.9001,-4.9001,-4.9001,-4.9001,-4.9001,-4.9094,-4.9138,-4.9138,-4.8617,-4.7873,-4.6868,-4.6289,-4.5563,-4.4466,-4.4584,-4.4709,-4.4598,-4.4615,-4.4615,-4.4615,-4.4615,-4.4615,-4.4615,-4.4615,-4.4615,-4.4615,-4.4615,-4.4615,-4.4615,-4.4615,-4.4615,-4.4615,-4.4615,-4.4615,-3.4925,-3.7503,-3.847,-3.5729,-3.2666,-2.9461,-2.6162,-2.2943,-2.0398,-1.9575,-1.9346,-1.9297,-1.9297,-1.9968,-2.0951,-2.2318,-2.3639,-2.6017,0.0,0.0,0.0,0.0,0.0,0.0,0.0,0.0,0.0,0.0,0.0,0.0,0.0,-5.6492,-5.6366,-5.6166,-5.5531,-5.4996,-5.4579,-5.4348,-5.4078,-5.3685,-5.3685,-5.3685,-5.3685,-5.3685,-5.3685,0.0,0.0,0.0,0.0,-5.3685,-5.3685,-5.3685,-5.3685,-5.3685,-5.3685,-5.3685,-5.3685,-5.3685,-5.3685,-5.3651,-5.3584,-5.3584,-5.3517,-5.3501,-5.3501,-5.3501,-5.3501,-5.3501,-5.3501,-5.3501,-5.3501,-5.3501,-5.3501,-5.3501,-5.2334,-5.1185,-5.1185,-5.005,-4.9001,-4.9001,-4.9001,-4.9001,-4.9001,-4.9107,-4.926,-4.9453,-4.9238,-4.8696,-4.7762,-4.7189,-4.6364,-4.5118,-4.4923,-4.4803,-4.4615,-4.4615,-4.4615,-4.4615,-4.4615,-4.4615,-4.4615,-4.4615,-4.4615,-4.4615,-4.4615,-4.4615,-4.4615,-4.4615,-4.4615,-4.4615,-4.4615,-4.4615,0.0,-3.2553,-3.4251,-3.1211,-2.9194,-2.7129,-2.3958,-2.1883,0.0,-1.9579,-1.9357,-1.9315,-1.9315,-1.9968,-2.0804,-2.1739,-2.2611,0.0,0.0,0.0,0.0,0.0,0.0,0.0,0.0,0.0,0.0,0.0,0.0,0.0,0.0,-5.748,-5.7406,-5.7388,-5.6366,-5.5566,-5.4996,-5.4848,-5.4554,-5.411,-5.411,-5.411,-5.411,-5.411,-5.411,0.0,0.0,0.0,0.0,-5.411,-5.411,-5.411,-5.411,-5.411,-5.411,-5.411,-5.411,-5.411,-5.4078,-5.3948,-5.3733,-5.37,-5.3601,-5.3501,-5.3501,-5.3501,-5.3501,-5.3501,-5.3501,-5.3501,-5.3501,-5.3534,-5.3534,-5.3534,-5.2366,-5.1249,-5.1249,-5.0082,-4.9032,-4.9032,-4.9032,-4.9032,-4.9032,-4.9185,-4.9424,-4.9861,-5.0062,-4.9771,-4.8583,-4.8251,-4.743,-4.5528,-4.5159,-4.4958,-4.471,-4.4649,-4.4615,-4.4615,-4.4615,-4.4615,-4.4615,-4.4615,-4.4615,-4.4615,-4.4615,-4.4615,-4.4615,-4.4615,-4.4615,-4.4615,-4.4615,-4.4615,-2.4055,0.0,-2.9739,-2.8368,-2.6808,-2.5069,0.0,-2.1197,-1.9852,-1.9618,-1.9468,-1.9383,-1.9383,-1.9995,-2.0988,-2.2474,-2.3914,-2.6751,0.0,0.0,0.0,0.0,0.0,0.0,0.0,0.0,0.0,0.0,0.0,0.0,0.0,-5.7577,-5.7504,-5.7388,-5.7043,-5.6573,-5.5989,-5.5751,-5.5432,-5.5074,-5.5074,-5.5074,-5.5074,-5.5074,-5.5074,0.0,0.0,0.0,-5.5074,-5.5074,-5.5074,-5.5074,-5.5074,-5.5074,-5.5074,-5.5074,-5.5074,-5.5044,-5.4769,-5.4488,-5.4171,-5.3701,-5.3534,-5.3501,-5.3501,-5.3501,-5.3501,-5.3501,-5.3584,-5.3651,-5.3651,-5.3767,-5.3866,-5.3866,-5.269,-5.1583,-5.1583,-5.0424,-4.9398,-4.9398,-4.9398,-4.9398,-4.9398,-4.9725,-5.0028,-5.0257,-5.0567,-5.0286,-4.896,-4.8647,-4.7838,-4.5874,-4.5555,-4.5497,-4.5609,-4.4993,-4.4615,-4.4615,-4.4615,-4.4615,-4.4615,-4.4615,-4.4615,-4.4615,-4.4615,-4.4615,-4.4615,-4.4615,-4.4615,-4.4615,-4.4615,-4.4615,-2.2276,-2.4436,-2.6226,-2.5797,-2.4731,-2.3442,-2.213,-2.0784,-1.9763,-1.9719,0.0,-1.9564,-1.994,-2.0276,-2.13,-2.3712,-2.5144,0.0,0.0,0.0,0.0,0.0,0.0,0.0,0.0,0.0,0.0,0.0,0.0,0.0,0.0,-5.7721,-5.7673,-5.7601,-5.7437,-5.7087,-5.6456,-5.6219,-5.5922,-5.5624,-5.5624,-5.5624,-5.5624,-5.5624,-5.5624,0.0,0.0,0.0,-5.5624,-5.5624,-5.5624,-5.5624,-5.5624,-5.5624,-5.5624,-5.5624,-5.5624,-5.5595,-5.5343,-5.4953,-5.4457,-5.3932,-5.3718,-5.3718,-5.3718,-5.3718,-5.3685,-5.3534,-5.3618,-5.3766,-5.3962,-5.4173,-5.4382,-5.46,-5.3437,-5.2282,-5.2282,-5.1118,-5.0028,-5.0028,-5.0028,-5.0028,-5.0028,-5.0345,-5.064,-5.091,-5.121,-5.0905,-4.9615,-4.9275,-4.8435,-4.6522,-4.636,-4.6309,-4.6182,-4.5942,-4.5603,-4.5139,-4.4801,-4.4615,-4.4615,-4.4615,-4.4615,-4.4615,-4.4615,-4.4615,-4.4615,-4.4615,-4.4615,-4.4615,-4.4615,-4.4615,-2.2166,-2.3141,-2.3785,-2.4022,-2.352,-2.2778,-2.2018,-2.111,-2.0423,0.0,0.0,0.0,-2.092,-2.1275,0.0,0.0,0.0,0.0,0.0,0.0,0.0,0.0,0.0,0.0,0.0,0.0,0.0,0.0,0.0,0.0,0.0,-5.7537,-5.7449,-5.7426,-5.7332,-5.6975,-5.6382,-5.6447,-5.6366,-5.6154,-5.6154,-5.6154,-5.6154,-5.6154,-5.6154,-5.6154,0.0,0.0,-5.6154,-5.6154,-5.6126,-5.6126,-5.6098,-5.6098,-5.6098,-5.6098,-5.6098,-5.607,-5.5872,-5.539,-5.4803,-5.4382,-5.4222,-5.4222,-5.4222,-5.4222,-5.4158,-5.3849,-5.3816,-5.3946,-5.4376,-5.4676,-5.4939,-5.5373,-5.4248,-5.3089,-5.3089,-5.1858,-5.0796,-5.0796,-5.0796,-5.0796,-5.0796,-5.0947,-5.1218,-5.1576,-5.1775,-5.1491,-5.0429,-4.9965,-4.9049,-4.7293,-4.725,-4.7184,-4.6736,-4.702,-4.6908,-4.6104,-4.5229,-4.4733,-4.4615,-4.4615,-4.4615,-4.4615,-4.4615,-4.4615,-4.4615,-4.4615,-4.4615,-4.4615,-4.4615,-4.4615,-2.2225,-2.277,-2.3219,-2.4572,-2.4777,-2.4582,-2.4384,-2.3628,-2.2929,0.0,0.0,0.0,0.0,-2.4339,0.0,0.0,0.0,0.0,0.0,0.0,0.0,0.0,0.0,0.0,0.0,0.0,0.0,0.0,0.0,0.0,-5.5959,-5.5959,-5.5892,-5.5761,-5.5738,-5.5647,-5.5436,-5.674,-5.7388,-5.7338,-5.7338,-5.7338,-5.7338,-5.7338,-5.7338,-5.7338,0.0,-5.7338,-5.7338,-5.7213,-5.7163,-5.7163,-5.7036,-5.701,-5.701,-5.701,-5.701,-5.6915,-5.6393,-5.5978,-5.5665,-5.5313,-5.5194,-5.5194,-5.5194,-5.5194,-5.5147,-5.5117,-5.4848,-5.4586,-5.4799,-5.5164,-5.5584,-5.5786,-5.4596,-5.3429,-5.3429,-5.221,-5.1114,-5.1114,-5.1114,-5.1114,-5.1114,-5.1322,-5.1576,-5.175,-5.2024,-5.1968,-5.1208,-5.0376,-4.9401,-4.8217,-4.782,-4.7641,-4.7598,-4.7513,-4.7484,-4.7547,-4.6295,-4.5246,-4.4632,-4.4615,-4.4615,-4.4615,-4.4615,-4.4615,-4.4615,-4.4615,-4.4615,-4.4615,-4.4615,-4.4615,-2.167,-2.2335,-2.32,-2.5234,-2.5664,-2.5695,-2.605,-2.5753,-2.5246,0.0,0.0,0.0,0.0,0.0,0.0,0.0,0.0,0.0,0.0,0.0,0.0,0.0,0.0,0.0,0.0,0.0,0.0,0.0,0.0,0.0,-5.5596,-5.5614,-5.557,-5.5507,-5.5507,-5.5485,-5.5418,-5.615,-5.6666,-5.6963,-5.7382,-5.7601,-5.7601,-5.7601,-5.7601,-5.7601,0.0,-5.7601,-5.7601,-5.7528,-5.748,-5.7388,-5.7313,-5.7264,-5.7188,-5.7188,-5.7138,-5.7036,-5.6617,-5.6302,-5.6063,-5.5769,-5.5682,-5.5682,-5.5682,-5.5682,-5.5682,-5.5682,-5.5432,-5.5266,-5.5572,-5.594,-5.6255,-5.6537,-5.5416,-5.4243,-5.4243,-5.3032,-5.1902,-5.1902,-5.1902,-5.1902,-5.1902,-5.2,-5.2114,-5.2168,-5.2298,-5.2139,-5.1393,-5.0914,-5.0141,-4.8762,-4.8978,-4.8912,-4.8198,-4.8546,-4.8357,-4.7374,-4.6667,-4.5957,-4.5213,-4.5179,-4.4993,-4.4615,-4.4615,-4.4615,-4.4615,-4.4615,-4.4615,-4.4615,-4.4993,-4.5179,-2.1254,-2.2053,-2.3238,-2.5438,-2.6186,-2.6737,-2.8062,-2.824,-2.7997,-2.7512,0.0,0.0,0.0,0.0,0.0,0.0,0.0,0.0,0.0,0.0,0.0,0.0,0.0,0.0,0.0,0.0,0.0,0.0,0.0,0.0,-5.5005,-5.5042,-5.5042,-5.5042,-5.5042,-5.5042,-5.5042,-5.5207,-5.5705,-5.6505,-5.7131,-5.7514,-5.7697,-5.7697,-5.7697,-5.7697,-5.7697,-5.7697,-5.7697,-5.7673,-5.7601,-5.7504,-5.7412,-5.7313,-5.7188,-5.7188,-5.7156,-5.7028,-5.6821,-5.6644,-5.6492,-5.6274,-5.6209,-5.6209,-5.6209,-5.6209,-5.6209,-5.6209,-5.609,-5.6027,-5.6284,-5.6537,-5.6768,-5.7112,-5.6156,-5.5106,-5.4943,-5.3784,-5.2733,-5.2534,-5.2498,-5.2498,-5.2498,-5.2498,-5.2498,-5.2498,-5.2498,-5.2281,-5.1647,-5.1249,-5.0542,-4.9311,-4.9659,-4.9614,-4.8662,-4.9346,-4.9123,-4.7526,-4.7031,-4.6549,-4.5974,-4.5788,-4.5432,-4.4886,-4.4699,-4.4615,-4.4615,-4.4615,-4.4699,-4.4886,-4.5432,-4.5788,-2.1478,-2.2072,-2.3096,-2.4689,-2.6164,-2.8024,-3.113,-3.1636,-3.1649,-3.2328,0.0,0.0,0.0,0.0,0.0,0.0,0.0,0.0,0.0,0.0,0.0,0.0,0.0,0.0,0.0,0.0,0.0,0.0,0.0,0.0,-5.3369,-5.3369,-5.3369,-5.3369,-5.3369,-5.3369,-5.3369,-5.4106,-5.5258,-5.6758,-5.6813,-5.7258,-5.7973,-5.7973,-5.7973,-5.7973,-5.7973,-5.7973,-5.7973,-5.7857,-5.7768,-5.7745,-5.7504,-5.7313,-5.7188,-5.7188,-5.7188,-5.7163,-5.7163,-5.7138,-5.7138,-5.7112,-5.7112,-5.7112,-5.7112,-5.7112,-5.7112,-5.7112,-5.7087,-5.701,-5.6662,-5.6768,-5.7003,-5.7163,-5.6536,-5.5721,-5.5051,-5.4218,-5.3385,-5.2643,-5.2498,-5.2498,-5.2498,-5.2498,-5.2498,-5.2498,-5.2498,-5.248,-5.2426,-5.1104,-5.0148,-5.0039,-4.9086,-4.8637,-4.9087,-4.9372,-4.9466,-4.9334,-4.7725,-4.6769,-4.6718,-4.6058,-4.5686,-4.5618,-4.4942,-4.4615,-4.4615,-4.4615,-4.4942,-4.5618,-4.5686,-4.6075,-2.07,-2.167,-2.3071,-2.4662,-2.6633,-2.8863,-3.1475,-3.3056,-3.4321,-3.5599,-3.6187,0.0,0.0,0.0,0.0,0.0,0.0,0.0,0.0,0.0,0.0,0.0,0.0,0.0,0.0,0.0,0.0,0.0,0.0,0.0,0.0,-5.3185,-5.3185,-5.3185,-5.3185,-5.3185,-5.3185,-5.35,-5.4216,-5.5317,-5.5812,-5.6198,-5.651,-5.651,-5.651,-5.651,-5.651,-5.651,-5.6528,-5.6997,-5.713,-5.7092,-5.7304,-5.7381,-5.7313,-5.7213,-5.7188,-5.7188,-5.7188,-5.7188,-5.7188,-5.7188,-5.7188,-5.7188,-5.7188,-5.7188,-5.7188,-5.7188,-5.7188,-5.7163,-5.7028,-5.7054,-5.7156,-5.7206,-5.6573,-5.5921,-5.5631,-5.4581,-5.3603,-5.3313,-5.2842,-5.2498,-5.2498,-5.2498,-5.2498,-5.2498,-5.2498,-5.2498,-5.2498,-5.152,-5.0655,-5.0166,-4.9359,-4.9095,-4.9652,-5.0023,-5.017,-5.0017,-4.8907,-4.8103,-4.7628,-4.7268,-4.6853,-4.6397,-4.6109,-4.5957,-4.5957,-4.5957,-4.6109,-4.6397,-4.6853,-4.7225,-2.0668,-2.1795,-2.3473,-2.5099,-2.7355,-2.9904,-3.2693,-3.5009,-3.7084,-3.8909,-3.9656,-3.9773,-3.9114,0.0,0.0,0.0,0.0,0.0,0.0,0.0,0.0,0.0,0.0,0.0,0.0,0.0,0.0,0.0,0.0,0.0,0.0,-5.3185,-5.3185,-5.3185,-5.3185,-5.3185,-5.3185,-5.3185,-5.3482,-5.4032,-5.4583,-5.5097,-5.5614,-5.5614,-5.5614,-5.5614,-5.5614,-5.5614,-5.5629,-5.6198,-5.6497,-5.6671,-5.7291,-5.7504,-5.7437,-5.7363,-5.7332,-5.7332,-5.7332,-5.7332,-5.7332,-5.7332,-5.7332,-5.7332,-5.7332,-5.7332,-5.7332,-5.7332,-5.7332,-5.7332,-5.7332,-5.7264,-5.7188,-5.7188,-5.6772,-5.6301,-5.6047,-5.4979,-5.4001,-5.3748,-5.3041,-5.2498,-5.2498,-5.2498,-5.2498,-5.2498,-5.2498,-5.2498,-5.2498,-5.1574,-5.0506,-4.9394,-4.9044,-4.9049,-4.9362,-4.9817,-5.0127,-5.0148,-4.9556,-4.9005,-4.8554,-4.8141,-4.7682,-4.7158,-4.6921,-4.6786,-4.6786,-4.6786,-4.6921,-4.7158,-4.7682,-4.8007,-2.1656,-2.2631,-2.4315,-2.6007,0.0,-3.1294,-3.5334,-3.7856,-4.0029,-4.2447,-4.285,-4.2498,-4.1757,0.0,0.0,0.0,0.0,0.0,0.0,0.0,0.0,0.0,0.0,0.0,0.0,0.0,0.0,0.0,0.0,0.0,0.0,-5.3185,-5.3185,-5.3185,-5.3185,-5.3185,-5.3185,-5.3185,-5.3185,-5.3185,-5.3185,-5.4032,-5.5596,-5.5596,-5.5596,-5.5596,-5.5596,-5.5596,-5.5596,-5.5574,-5.5984,-5.6676,-5.7463,-5.7703,-5.7583,-5.7583,-5.7583,-5.7601,-5.7601,-5.7601,-5.7601,-5.7601,-5.7601,-5.7601,-5.7601,-5.7601,-5.7601,-5.7601,-5.7601,-5.7601,-5.7601,-5.7388,-5.7188,-5.7188,-5.7188,-5.6989,-5.6174,-5.5432,-5.4671,-5.3874,-5.3059,-5.2498,-5.2498,-5.2498,-5.2498,-5.2498,-5.2498,-5.2498,-5.248,-5.1086,-4.943,-4.7692,-4.7972,-4.8233,-4.8116,-4.8553,-4.9091,-4.9775,-4.9422,-4.929,-4.9513,-4.8489,-4.7936,-4.7936,-4.7192,-4.6849,-4.6849,-4.6849,-4.7192,-4.7936,-4.7889,-4.8308,-2.1493,-2.3066,0.0,-2.7606,0.0,0.0,0.0,-4.0658,-4.2548,0.0,-4.6435,-4.5144,-4.3758,0.0,0.0,0.0,0.0,0.0,0.0,0.0,0.0,0.0,0.0,0.0,0.0,0.0,0.0,0.0,0.0,0.0,0.0,-5.3185,-5.3185,-5.3185,-5.3185,-5.3185,-5.3185,-5.3185,-5.3185,-5.3185,-5.3185,-5.3463,-5.3922,-5.3922,-5.3922,-5.3922,-5.3922,-5.3922,-5.3959,-5.4528,-5.5203,-5.5892,-5.6063,-5.6433,-5.6899,-5.6786,-5.7109,-5.7601,-5.7601,-5.7601,-5.7601,-5.7601,-5.7601,-5.7601,-5.7601,-5.7601,-5.7601,-5.7601,-5.7601,-5.7601,-5.7601,-5.7553,-5.748,-5.748,-5.748,-5.7407,-5.7195,-5.5988,-5.49,-5.4646,-5.3474,-5.2679,-5.3241,-5.2878,-5.2679,-5.3259,-5.286,-5.2299,-5.1719,-5.0764,-4.9691,-4.8594,-4.8638,-4.8698,-4.8676,-4.9311,-4.9713,-4.9734,-4.9916,-5.0031,-4.9994,-4.9355,-4.9044,-4.9044,-4.8822,-4.8703,-4.8703,-4.8703,-4.8822,-4.9014,-4.8876,-4.8934,-2.2225,-2.4255,0.0,-2.97,-3.3215,-3.7474,-4.3155,0.0,0.0,0.0,0.0,-4.6978,-4.5602,0.0,0.0,0.0,0.0,0.0,0.0,0.0,0.0,0.0,0.0,0.0,0.0,0.0,0.0,0.0,0.0,0.0,0.0,-5.3185,-5.3185,-5.3185,-5.3185,-5.3185,-5.3185,-5.3185,-5.3185,-5.3185,-5.3185,-5.3185,-5.3185,-5.3185,-5.3185,-5.3185,-5.3185,-5.3185,-5.3259,-5.4069,-5.4693,-5.5152,-5.5397,-5.5774,-5.6232,-5.647,-5.6867,-5.7324,-5.7635,-5.7768,-5.7768,-5.7768,-5.7768,-5.7768,-5.7768,-5.7768,-5.7768,-5.7768,-5.7768,-5.7768,-5.7768,-5.7768,-5.7721,-5.7625,-5.7601,-5.751,-5.72,-5.6053,-5.4963,-5.4589,-5.3448,-5.2694,-5.3132,-5.2824,-5.2661,-5.315,-5.2806,-5.2208,-5.1393,-5.0619,-4.9782,-4.8981,-4.8601,-4.842,-4.842,-4.8876,-4.9187,-4.9316,-4.9758,-5.0129,-5.0302,-5.0105,-4.9988,-4.9988,-4.9988,-4.9988,-4.9988,-4.9988,-4.9919,-4.982,-4.9585,-4.9424,-2.3452,-2.5867,0.0,-3.2088,-3.6328,0.0,-4.7657,-4.8921,-4.8932,-4.9533,0.0,-4.8206,0.0,0.0,0.0,0.0,0.0,0.0,0.0,0.0,0.0,0.0,0.0,0.0,0.0,0.0,0.0,0.0,0.0,0.0,0.0,-5.3185,-5.3185,-5.3185,-5.3185,-5.3185,-5.3185,-5.3185,-5.3185,-5.3185,-5.3185,-5.3185,-5.3185,-5.3185,-5.3185,-5.3185,-5.3185,-5.3185,-5.3259,-5.3995,-5.4289,-5.4363,-5.5097,-5.5449,-5.5574,-5.6308,-5.6638,-5.6804,-5.7519,-5.7776,-5.7776,-5.7776,-5.7776,-5.7776,-5.7776,-5.7776,-5.7776,-5.7776,-5.7776,-5.7776,-5.7776,-5.7831,-5.784,-5.7587,-5.754,-5.7315,-5.6585,-5.5746,-5.4861,-5.3999,-5.3176,-5.2604,-5.2617,-5.2599,-5.2503,-5.2503,-5.2503,-5.2249,-5.1484,-5.0728,-4.989,-4.909,-4.8297,-4.779,-4.7717,-4.7717,-4.7943,-4.858,-4.9202,-4.9823,-5.0443,-5.0637,-5.0751,-5.0751,-5.0751,-5.0751,-5.0751,-5.0751,-5.0616,-5.0349,-5.0074,-4.9791,-2.3459,-2.6726,0.0,0.0,-3.9833,-4.564,-4.846,-4.9541,-4.999,-5.0125,0.0,0.0,0.0,0.0,0.0,0.0,0.0,0.0,0.0,0.0,0.0,0.0,0.0,0.0,0.0,0.0,0.0,0.0,0.0,0.0,-5.3206,-5.3185,-5.3185,-5.3185,-5.3185,-5.3185,-5.3185,-5.3185,-5.3185,0.0,-5.3185,-5.3185,-5.3185,-5.3185,-5.3185,-5.3185,-5.3185,-5.3185,-5.3203,-5.339,-5.3463,-5.3482,-5.3665,-5.4106,-5.4675,-5.4858,-5.5317,-5.5868,-5.6051,-5.6128,-5.6128,-5.6128,-5.6128,-5.6128,-5.6128,-5.6128,-5.6128,-5.6128,-5.6128,-5.6128,-5.6128,-5.6583,-5.7038,-5.6992,-5.6969,-5.6914,-5.6749,-5.5509,-5.4363,-5.4135,-5.3393,-5.2962,-5.3572,-5.3153,-5.2694,-5.2586,-5.2586,-5.2504,-5.2268,-5.1538,-5.0723,-4.9927,-4.913,-4.8384,-4.7753,-4.7717,-4.7769,-4.791,-4.9205,-5.0051,-5.0168,-5.077,-5.1087,-5.1087,-5.1087,-5.1087,-5.1087,-5.1087,-5.1008,-5.0848,-5.0474,-5.02,-2.3904,0.0,0.0,-3.7507,0.0,-4.6959,-4.8708,-4.971,-5.0302,0.0,0.0,0.0,0.0,0.0,0.0,0.0,0.0,0.0,0.0,0.0,0.0,0.0,0.0,0.0,0.0,0.0,0.0,0.0,0.0,-5.2315,-5.205,-5.2417,-5.2637,-5.2637,-5.3004,-5.3185,-5.3185,-5.3185,-5.3185,-5.3185,-5.3185,-5.3185,-5.3185,-5.3185,-5.3185,-5.3185,-5.3185,-5.3185,-5.3185,-5.3185,-5.3185,-5.3185,-5.3185,-5.3463,-5.3867,-5.4252,-5.4675,-5.5078,-5.5464,-5.5614,-5.5614,-5.5614,-5.5614,-5.5614,-5.5614,-5.5614,-5.5614,-5.5614,-5.5614,-5.5614,-5.5614,-5.5904,-5.6326,-5.6712,-5.6804,-5.6693,-5.6308,-5.5218,-5.4162,-5.3694,-5.323,-5.3018,-5.3371,-5.3075,-5.2783,-5.2698,-5.2654,-5.2586,-5.2536,-5.1819,-5.1122,-5.0728,-4.9945,-4.9148,-4.833,-4.8257,-4.8094,-4.7735,-4.8858,-4.9691,-5.0093,-5.0843,-5.1435,-5.1811,-5.1829,-5.1829,-5.1829,-5.1829,-5.1729,-5.151,-5.1149,-5.0857,-2.4379,0.0,-3.4127,-4.1062,-4.4573,0.0,-4.867,-4.9614,0.0,0.0,0.0,0.0,0.0,0.0,0.0,0.0,0.0,0.0,0.0,0.0,0.0,0.0,0.0,0.0,0.0,0.0,0.0,0.0,0.0,-5.1099,-5.0822,-5.1426,-5.1848,-5.1995,-5.2656,-5.3078,-5.3185,-5.3185,-5.3185,-5.3185,-5.3185,-5.3185,-5.3185,-5.3185,-5.3185,-5.3185,-5.3185,-5.3185,-5.3185,-5.3185,-5.3185,-5.3185,-5.3185,-5.3185,-5.3277,-5.3959,-5.4197,-5.4289,-5.495,-5.5188,-5.5188,-5.5188,-5.5188,-5.5188,-5.5188,-5.5188,-5.5188,-5.5188,-5.5188,-5.5188,-5.5188,-5.5372,-5.5757,-5.6436,-5.6712,-5.6583,-5.5757,-5.4858,-5.3974,-5.3188,-5.302,-5.2999,-5.289,-5.2868,-5.2868,-5.2846,-5.2743,-5.2676,-5.2654,-5.2127,-5.1697,-5.1547,-5.1058,-5.0347,-4.9401,-4.9202,-4.8768,-4.795,-4.8529,-4.9275,-5.0075,-5.0873,-5.1665,-5.248,-5.2498,-5.2498,-5.2498,-5.2498,-5.2364,-5.2126,-5.1786,-5.15,-2.428,0.0,-3.7037,0.0,-4.4172,-4.6171,0.0,0.0,0.0,0.0,0.0,0.0,0.0,0.0,0.0,0.0,0.0,0.0,0.0,0.0,0.0,0.0,0.0,0.0,0.0,0.0,0.0,0.0,-5.1465,-5.1138,-5.0822,-5.0894,-5.1279,-5.1977,-5.2087,-5.2491,-5.3185,-5.3185,-5.3185,-5.3185,-5.3185,-5.3185,-5.3185,-5.3185,-5.3185,-5.3185,-5.3185,-5.3185,-5.3185,-5.3185,-5.3185,-5.3185,-5.3185,-5.3185,-5.3203,-5.3314,-5.3371,-5.339,-5.3482,-5.3537,-5.3537,-5.3537,-5.3537,-5.3537,-5.3537,-5.3537,-5.3537,-5.3537,-5.3537,-5.3537,-5.3537,-5.4564,-5.5633,-5.5721,-5.629,-5.6583,-5.5757,-5.4418,-5.3314,-5.3203,-5.3185,-5.3164,-5.3143,-5.3143,-5.3103,-5.2999,-5.2955,-5.2893,-5.2783,-5.3271,-5.334,-5.2518,-5.3004,-5.2745,-5.1126,-5.0325,-4.9601,-4.8782,-4.8837,-4.9275,-5.0075,-5.0873,-5.1665,-5.248,-5.2498,-5.2498,-5.2498,-5.2498,-5.2428,-5.2264,-5.1933,-5.1701,-2.5865,-3.1646,-3.6922,0.0,-4.38,-4.5811,-4.7399,0.0,0.0,0.0,0.0,0.0,0.0,0.0,0.0,0.0,0.0,0.0,0.0,0.0,0.0,0.0,0.0,0.0,0.0,0.0,0.0,0.0,-5.0322,-5.0038,-4.9713,-5.0118,-5.0466,-5.07,-5.114,-5.1542,-5.1848,-5.1867,-5.2087,-5.2527,-5.2527,-5.2766,-5.3185,-5.3185,-5.3185,-5.3185,-5.3185,-5.3185,-5.3185,-5.3185,-5.3185,-5.3185,-5.3185,-5.3185,-5.3185,-5.3185,-5.3185,-5.3185,-5.3185,-5.3185,-5.3185,-5.3185,-5.3185,-5.3185,-5.3185,-5.3185,-5.3277,-5.3757,-5.3867,-5.3977,-5.4436,-5.506,-5.5702,-5.6161,-5.6198,-5.6143,-5.6253,-5.5005,-5.3739,-5.3277,-5.3185,-5.3185,-5.3185,-5.3185,-5.3185,-5.3124,-5.3042,-5.2977,-5.2934,-5.3543,-5.3845,-5.3431,-5.4072,-5.3857,-5.2214,-5.1692,-5.0904,-4.9655,-4.9564,-4.9927,-5.0723,-5.1104,-5.1665,-5.248,-5.2498,-5.2498,-5.2498,-5.2498,-5.2475,-5.2405,-5.2257,-5.2144,-2.6272,-3.0824,-3.4866,-3.9066,-4.1675,-4.3645,0.0,0.0,0.0,0.0,0.0,0.0,0.0,0.0,0.0,0.0,0.0,0.0,0.0,0.0,0.0,0.0,0.0,0.0,0.0,0.0,0.0,0.0,-4.9514,-4.927,-4.8957,-4.9466,-4.9768,-4.9768,-5.0338,-5.0683,-5.0802,-5.0802,-5.1096,-5.1701,-5.1885,-5.2307,-5.2913,-5.3115,-5.3185,-5.3185,-5.3185,-5.3185,-5.3185,-5.3185,-5.3185,-5.3185,-5.3185,-5.3185,-5.3185,-5.3185,-5.3185,-5.3185,-5.3185,-5.3185,-5.3185,-5.3185,-5.3206,-5.323,-5.323,-5.3251,-5.3435,-5.4204,-5.4445,-5.4669,-5.5456,-5.5845,-5.6158,-5.6765,-5.6599,-5.636,-5.6455,-5.5556,-5.4528,-5.394,-5.3812,-5.3812,-5.3812,-5.3812,-5.3812,-5.3812,-5.3729,-5.3646,-5.3646,-5.4275,-5.4702,-5.4656,-5.5275,-5.5132,-5.3704,-5.3321,-5.2544,-5.1108,-5.0836,-5.1072,-5.1864,-5.19,-5.219,-5.2788,-5.2806,-5.2697,-5.2498,-5.2498,-5.2498,-5.2498,-5.2498,-5.2498,-2.3941,-2.6981,-3.0622,-3.4783,-3.6489,0.0,0.0,0.0,0.0,0.0,0.0,0.0,0.0,0.0,0.0,0.0,0.0,0.0,0.0,0.0,0.0,0.0,0.0,0.0,0.0,0.0,0.0,0.0,-4.979,-4.9594,-4.9375,-4.9236,-4.9398,-4.9969,-4.9899,-5.0172,-5.0784,-5.0802,-5.082,-5.0875,-5.1628,-5.2013,-5.2087,-5.2858,-5.3185,-5.3185,-5.3185,-5.3185,-5.3185,-5.3185,-5.3185,-5.3185,-5.3185,-5.3185,-5.3185,-5.3185,-5.3185,-5.3185,-5.3185,-5.3185,-5.3185,-5.3185,-5.3251,-5.3279,-5.3279,-5.338,-5.3625,-5.4296,-5.4578,-5.4864,-5.5607,-5.6461,-5.7134,-5.7171,-5.7725,-5.7792,-5.6044,-5.5614,-5.5519,-5.5464,-5.5464,-5.5464,-5.5464,-5.5464,-5.5464,-5.5464,-5.5464,-5.5464,-5.5464,-5.6157,-5.6607,-5.6493,-5.7165,-5.7198,-5.6103,-5.5316,-5.4482,-5.3566,-5.2788,-5.2733,-5.3548,-5.3585,-5.3585,-5.3639,-5.3639,-5.3259,-5.2498,-5.2498,-5.2498,-5.2498,-5.2498,-5.2498,-2.1303,-2.4258,0.0,-3.142,-3.3774,0.0,0.0,0.0,0.0,0.0,0.0,0.0,0.0,0.0,0.0,0.0,0.0,0.0,0.0,0.0,0.0,0.0,0.0,0.0,0.0,0.0,0.0,0.0,0.0,-4.9903,-4.9674,-4.955,-4.9505,-4.9536,-4.9455,-4.9449,-4.9529,-4.9435,-4.9656,-5.0172,-5.0448,-5.1148,-5.2198,-5.2493,-5.2898,-5.3378,-5.3378,-5.3314,-5.3185,-5.3185,-5.3185,-5.3185,-5.3185,-5.3185,-5.3185,-5.3185,-5.3185,-5.3185,-5.3185,-5.3185,-5.3185,-5.3185,-5.3251,-5.332,-5.3505,-5.3563,-5.3841,-5.5175,-5.5562,-5.5914,-5.7251,-5.7909,-5.8254,-5.8278,-5.8419,-5.8307,-5.7515,-5.6419,-5.5614,-5.5614,-5.5614,-5.5614,-5.5614,-5.5614,-5.5614,-5.5614,-5.5614,-5.5614,-5.5614,-5.6308,-5.6781,-5.6736,-5.7363,-5.7439,-5.6523,-5.6011,-5.5419,-5.4591,-5.423,-5.4182,-5.4472,-5.4472,-5.4237,-5.3711,-5.3693,-5.3295,-5.2498,-5.2498,-5.2498,-5.2498,-5.2498,-5.2498,-1.9891,-2.2083,0.0,0.0,0.0,0.0,0.0,0.0,0.0,0.0,0.0,0.0,0.0,0.0,0.0,0.0,0.0,0.0,0.0,0.0,0.0,0.0,0.0,0.0,0.0,0.0,0.0,0.0,0.0,0.0,-5.0081,-4.9955,-4.9759,-4.9442,-4.9334,-4.9171,-4.8974,-4.8869,-4.9094,-4.9634,-4.9913,-5.0618,-5.1714,-5.2271,-5.2828,-5.3348,-5.3645,-5.36,-5.3293,-5.3293,-5.3293,-5.3293,-5.3293,-5.3293,-5.3293,-5.3293,-5.3293,-5.3293,-5.3293,-5.3293,-5.3293,-5.3293,-5.338,-5.3543,-5.3739,-5.4019,-5.4559,-5.586,-5.6494,-5.7072,-5.8393,-5.8889,-5.9045,-5.9065,-5.8909,-5.8686,-5.8516,-5.7383,-5.64,-5.64,-5.64,-5.64,-5.64,-5.64,-5.64,-5.64,-5.64,-5.64,-5.64,-5.6877,-5.7207,-5.7207,-5.7597,-5.7619,-5.7065,-5.6846,-5.6466,-5.5843,-5.5771,-5.5716,-5.5667,-5.5667,-5.5287,-5.449,-5.4472,-5.3947,-5.2896,-5.2625,-5.2498,-5.2498,-5.2498,-5.2498,0.0,0.0,0.0,0.0,0.0,0.0,0.0,0.0,0.0,0.0,0.0,0.0,0.0,0.0,0.0,0.0,0.0,0.0,0.0,0.0,0.0,0.0,0.0,0.0,0.0,0.0,0.0,0.0,-5.0633,-5.0603,-5.0603,-5.0412,-5.012,-4.9726,-4.9512,-4.9375,-4.9333,-4.9299,-4.9317,-4.9317,-5.0094,-5.0491,-5.0547,-5.2196,-5.2965,-5.3059,-5.3902,-5.3998,-5.3521,-5.3539,-5.3521,-5.3521,-5.3521,-5.3521,-5.3521,-5.3521,-5.3521,-5.3521,-5.3521,-5.3521,-5.3521,-5.3521,-5.3699,-5.3926,-5.4035,-5.4794,-5.5743,-5.6388,-5.7304,-5.8239,-5.8876,-5.9271,-5.9504,-5.9434,-5.9215,-5.8984,-5.8847,-5.8406,-5.8042,-5.802,-5.802,-5.802,-5.802,-5.802,-5.802,-5.802,-5.7997,-5.7997,-5.7997,-5.7997,-5.7997,-5.7997,-5.7997,-5.795,-5.7815,-5.7792,-5.7697,-5.7412,-5.7388,-5.7338,-5.7206,-5.7188,-5.6808,-5.6011,-5.5993,-5.5233,-5.3693,-5.2915,-5.2516,-5.2498,-5.2498,-5.2498,-1.8499,0.0,0.0,0.0,0.0,0.0,0.0,0.0,0.0,0.0,0.0,0.0,0.0,0.0,0.0,0.0,0.0,0.0,0.0,0.0,0.0,0.0,0.0,0.0,0.0,0.0,0.0,0.0,-5.0673,-5.0643,-5.0603,-5.0412,-5.0243,-5.007,-4.9817,-4.9688,-4.9674,-4.9579,-4.9521,-4.9521,-4.9732,-5.0165,-5.0734,-5.1205,-5.2071,-5.3239,-5.3465,-5.3851,-5.4281,-5.4142,-5.4089,-5.4089,-5.4089,-5.4089,-5.4089,-5.4089,-5.4089,-5.4089,-5.4089,-5.4089,-5.4089,-5.4089,-5.4158,-5.4424,-5.5258,-5.5683,-5.6177,-5.7555,-5.8159,-5.861,-5.949,-5.9944,-6.0114,-5.996,-5.9744,-5.9521,-5.9344,-5.9084,-5.8749,-5.8356,-5.8305,-5.8305,-5.8305,-5.8305,-5.8305,-5.8305,-5.8197,-5.8133,-5.8133,-5.8065,-5.7997,-5.7997,-5.7997,-5.7973,-5.795,-5.7857,-5.7721,-5.7553,-5.7437,-5.7338,-5.7206,-5.7188,-5.6808,-5.6011,-5.5993,-5.5233,-5.3693,-5.3476,-5.3078,-5.2498,-5.2498,-5.2498,-1.9324,-1.946,-1.9597,0.0,0.0,0.0,0.0,-2.6321,0.0,0.0,0.0,0.0,0.0,0.0,0.0,0.0,0.0,0.0,0.0,0.0,0.0,0.0,0.0,0.0,0.0,-5.05,-5.0712,-5.0712,-5.0712,-5.0673,-5.0643,-5.0532,-5.0446,-5.0371,-5.0217,-5.0106,-5.0081,-5.0006,-4.9987,-4.9987,-4.9987,-5.0221,-5.0696,-5.1019,-5.1714,-5.2674,-5.3376,-5.395,-5.441,-5.4667,-5.4629,-5.4432,-5.4432,-5.4432,-5.4432,-5.4432,-5.4432,-5.4432,-5.4432,-5.4432,-5.4432,-5.4432,-5.4514,-5.4736,-5.5432,-5.5875,-5.6425,-5.768,-5.8556,-5.9276,-5.9962,-6.0275,-6.0361,-6.0212,-6.0022,-5.9845,-5.9658,-5.9467,-5.9197,-5.8806,-5.8725,-5.8725,-5.8725,-5.8725,-5.8702,-5.8619,-5.8471,-5.8341,-5.8249,-5.8111,-5.7997,-5.7997,-5.7997,-5.7997,-5.7997,-5.7927,-5.7792,-5.7625,-5.7528,-5.7388,-5.7206,-5.7188,-5.6971,-5.65,-5.65,-5.5884,-5.4653,-5.4001,-5.3295,-5.2498,-5.2498,-5.2498,-2.1392,-2.0904,-2.0085,-2.1568,-2.1877,0.0,-2.1916,-2.3628,0.0,0.0,0.0,0.0,0.0,0.0,0.0,0.0,0.0,0.0,0.0,0.0,0.0,0.0,0.0,0.0,-4.926,-4.9952,-5.0423,-5.0423,-5.0423,-5.0462,-5.0558,-5.0558,-5.0567,-5.0613,-5.0603,-5.0582,-5.0511,-5.0511,-5.05,-5.05,-5.05,-5.05,-5.0519,-5.1248,-5.1617,-5.179,-5.3367,-5.4058,-5.418,-5.504,-5.5118,-5.4692,-5.4692,-5.4692,-5.4692,-5.4692,-5.4692,-5.4692,-5.4692,-5.4692,-5.4692,-5.4692,-5.4803,-5.4979,-5.5128,-5.5751,-5.6592,-5.738,-5.8772,-6.0091,-6.0264,-6.0366,-6.0375,-6.0342,-6.0171,-6.0026,-5.989,-5.9725,-5.9556,-5.9379,-5.9289,-5.9215,-5.9215,-5.9215,-5.9159,-5.8969,-5.877,-5.8563,-5.8388,-5.816,-5.802,-5.802,-5.7997,-5.7997,-5.7997,-5.7997,-5.7886,-5.7649,-5.7601,-5.7504,-5.7213,-5.7206,-5.7188,-5.7188,-5.7098,-5.6699,-5.5993,-5.4544,-5.3476,-5.277,-5.277,-5.277,-2.272,-2.2623,-2.2447,-2.276,0.0,0.0,-2.2696,-2.2681,0.0,0.0,0.0,0.0,0.0,0.0,0.0,0.0,0.0,0.0,0.0,0.0,0.0,0.0,0.0,0.0,-4.8355,-4.8509,-4.8606,-4.8606,-4.8606,-4.8913,-4.9625,-4.9644,-4.9971,-5.0654,-5.0623,-5.0593,-5.0582,-5.0521,-5.05,-5.05,-5.05,-5.05,-5.05,-5.0653,-5.1081,-5.1752,-5.2728,-5.3503,-5.418,-5.504,-5.5332,-5.5233,-5.5233,-5.5233,-5.5233,-5.5233,-5.5233,-5.5233,-5.5233,-5.5233,-5.5233,-5.5233,-5.5279,-5.5439,-5.6082,-5.642,-5.6872,-5.8353,-5.9517,-6.0332,-6.0361,-6.0389,-6.0389,-6.0375,-6.0347,-6.0299,-6.0285,-6.0251,-6.0207,-6.0159,-5.9758,-5.9432,-5.9432,-5.9432,-5.9416,-5.9326,-5.9102,-5.8867,-5.8725,-5.8381,-5.8174,-5.8174,-5.8065,-5.7997,-5.7997,-5.7997,-5.7927,-5.7768,-5.7673,-5.7528,-5.7381,-5.7257,-5.7188,-5.7188,-5.6554,-5.6156,-5.5993,-5.5106,-5.4599,-5.4436,-5.4436,-5.4436,-2.4282,-2.4087,-2.3852,-2.4282,0.0,0.0,0.0,0.0,0.0,0.0,0.0,0.0,0.0,0.0,0.0,0.0,0.0,0.0,0.0,0.0,0.0,0.0,0.0,0.0,-4.7509,-4.7855,-4.8105,-4.8105,-4.8105,-4.8298,-4.874,-4.9163,-4.9606,-5.0029,-5.0452,-5.0643,-5.0643,-5.0623,-5.0603,-5.0603,-5.0603,-5.0603,-5.0603,-5.0603,-5.0773,-5.1165,-5.2411,-5.3137,-5.355,-5.4868,-5.5403,-5.5403,-5.5403,-5.5403,-5.5403,-5.5403,-5.5403,-5.5403,-5.5403,-5.5403,-5.5403,-5.5403,-5.5403,-5.5479,-5.588,-5.6587,-5.7409,-5.8268,-5.9415,-6.0403,-6.0403,-6.0403,-6.0403,-6.0403,-6.0403,-6.0403,-6.0403,-6.0403,-6.0403,-6.0403,-6.0163,-5.9956,-5.9956,-5.9956,-5.9909,-5.9779,-5.9558,-5.9308,-5.9082,-5.8663,-5.8363,-5.8249,-5.8111,-5.7997,-5.7997,-5.7997,-5.795,-5.7792,-5.7745,-5.7649,-5.7504,-5.7455,-5.7381,-5.7289,-5.6858,-5.6591,-5.6591,-5.6228,-5.5649,-5.4907,-5.4907,-5.4907,0.0,0.0,0.0,0.0,0.0,-2.2387,0.0,0.0,0.0,0.0,0.0,0.0,0.0,0.0,0.0,0.0,0.0,0.0,0.0,0.0,0.0,0.0,0.0,0.0,0.0,-4.6355,-4.6778,-4.7105,-4.699,-4.7105,-4.7586,-4.8452,-4.9067,-4.9394,-5.0067,-5.0539,-5.0712,-5.0712,-5.0712,-5.0712,-5.0712,-5.0712,-5.0712,-5.0712,-5.0633,-5.0617,-5.2294,-5.2935,-5.2963,-5.4696,-5.5403,-5.5403,-5.5403,-5.5403,-5.5403,-5.5403,-5.5403,-5.5403,-5.5403,-5.5403,-5.5403,-5.5403,-5.5403,-5.5403,-5.5403,-5.6568,-5.7905,-5.7905,-5.9109,-6.0403,-6.0403,-6.0403,-6.0403,-6.0403,-6.0403,-6.0403,-6.0403,-6.0403,-6.0403,-6.0403,-6.0403,-6.0403,-6.0403,-6.0403,-6.0347,-6.0163,-5.9956,-5.9727,-5.9418,-5.8967,-5.8605,-5.8409,-5.8205,-5.8084,-5.8084,-5.8042,-5.7997,-5.7862,-5.7815,-5.7745,-5.7649,-5.7625,-5.7553,-5.7388,-5.7143,-5.6978,-5.6971,-5.6826,-5.6265,-5.5341,-5.5341,-5.5341,0.0,0.0,0.0,0.0,-2.5475,0.0,0.0,0.0,0.0,0.0,0.0,0.0,0.0,0.0,0.0,0.0,0.0,0.0,0.0,0.0,0.0,0.0,0.0,0.0,0.0,-4.1755,-4.1997,-4.3547,-4.2951,-4.3508,-4.5768,-4.6701,-4.7855,-4.9356,-4.949,-4.9913,-5.0693,-5.0712,-5.0712,-5.0712,-5.0712,-5.0712,-5.0712,-5.0712,-5.0653,-5.0689,-5.2305,-5.2947,-5.3011,-5.4709,-5.5403,-5.5403,-5.5403,-5.5403,-5.5403,-5.5403,-5.5403,-5.5403,-5.5403,-5.5403,-5.5403,-5.5403,-5.5403,-5.5403,-5.5403,-5.6568,-5.7905,-5.7905,-5.9109,-6.0403,-6.0403,-6.0403,-6.0403,-6.0403,-6.0403,-6.0403,-6.0403,-6.0403,-6.0403,-6.0403,-6.0403,-6.0403,-6.0403,-6.0403,-6.0361,-6.0294,-6.0106,-5.9896,-5.9679,-5.9234,-5.8905,-5.8745,-5.8508,-5.8349,-5.8349,-5.826,-5.8174,-5.8152,-5.7927,-5.7792,-5.7768,-5.7673,-5.7553,-5.7388,-5.6679,-5.6261,-5.612,-5.5486,-5.5776,-5.6935,-5.6935,-5.6935,0.0,0.0,0.0,0.0,0.0,0.0,-2.4515,0.0,-2.3091,0.0,0.0,0.0,0.0,0.0,0.0,0.0,0.0,0.0,0.0,0.0,0.0,0.0,0.0,0.0,0.0,0.0,0.0,0.0,-4.0989,-4.195,-4.4028,-4.5893,-4.7221,-4.7932,-4.8894,-4.9586,-4.9933,-5.0462,-5.0712,-5.0712,-5.0712,-5.0712,-5.0712,-5.0712,-5.0653,-5.0689,-5.2338,-5.3023,-5.3081,-5.4762,-5.5458,-5.5458,-5.5458,-5.5428,-5.5403,-5.5403,-5.5403,-5.5403,-5.5403,-5.5403,-5.5403,-5.5403,-5.5403,-5.5403,-5.5403,-5.6568,-5.7905,-5.7905,-5.9109,-6.0403,-6.0403,-6.0403,-6.0403,-6.0403,-6.0403,-6.0403,-6.0403,-6.0403,-6.0403,-6.0403,-6.0403,-6.0403,-6.0403,-6.0403,-6.0389,-6.0366,-6.0289,-6.0148,-5.996,-5.966,-5.9398,-5.9215,-5.9006,-5.8808,-5.8704,-5.8537,-5.8388,-5.8272,-5.8047,-5.7927,-5.7927,-5.7792,-5.7697,-5.7625,-5.6769,-5.6279,-5.6231,-5.5449,-5.5649,-5.674,-5.6575,-5.6736,-3.0813,0.0,0.0,0.0,0.0,0.0,0.0,0.0,0.0,0.0,0.0,0.0,0.0,0.0,0.0,0.0,0.0,0.0,0.0,0.0,0.0,0.0,0.0,0.0,0.0,0.0,0.0,0.0,0.0,-3.9727,-4.1931,-4.447,-4.6067,-4.6528,-4.8163,-4.9163,-4.9394,-5.0269,-5.0712,-5.0712,-5.0712,-5.0712,-5.0712,-5.0712,-5.0663,-5.0719,-5.2389,-5.3067,-5.3168,-5.4814,-5.5504,-5.5504,-5.5504,-5.5463,-5.5434,-5.5434,-5.5422,-5.5409,-5.5409,-5.5396,-5.5403,-5.5403,-5.5403,-5.5403,-5.5403,-5.6568,-5.7905,-5.7905,-5.9109,-6.0403,-6.0403,-6.0403,-6.0403,-6.0403,-6.0403,-6.0403,-6.0403,-6.0403,-6.0403,-6.0403,-6.0403,-6.0403,-6.0403,-6.0403,-6.0403,-6.0403,-6.0403,-6.0251,-5.9839,-5.963,-5.9338,-5.8927,-5.8719,-5.8539,-5.8372,-5.8344,-5.8248,-5.7943,-5.76,-5.7377,-5.7336,-5.7244,-5.718,-5.7133,-5.6272,-5.5783,-5.5736,-5.4939,-5.5085,-5.6064,-5.6049,-5.6477,0.0,0.0,0.0,-2.9784,0.0,0.0,0.0,0.0,-2.5615,0.0,0.0,0.0,0.0,0.0,-2.4056,-2.3238,0.0,0.0,0.0,0.0,0.0,0.0,0.0,0.0,0.0,0.0,0.0,0.0,0.0,0.0,-3.9246,-4.1835,-4.397,-4.5594,-4.7278,-4.8548,-4.9394,-5.0269,-5.0712,-5.0712,-5.0712,-5.0712,-5.0712,-5.0712,-5.0712,-5.0798,-5.241,-5.3108,-5.3212,-5.4837,-5.5504,-5.5504,-5.5504,-5.5504,-5.5492,-5.5492,-5.5456,-5.5395,-5.5395,-5.5396,-5.5403,-5.5403,-5.5403,-5.5403,-5.5403,-5.6568,-5.7905,-5.7905,-5.9109,-6.0403,-6.0403,-6.0403,-6.0403,-6.0403,-6.0403,-6.0403,-6.0403,-6.0403,-6.0403,-6.0403,-6.0403,-6.0403,-6.0403,-6.0403,-6.0403,-6.0403,-6.0403,-6.0055,-5.915,-5.8851,-5.8372,-5.7466,-5.7192,-5.7041,-5.6974,-5.7417,-5.7533,-5.7081,-5.6319,-5.5812,-5.5688,-5.5666,-5.5621,-5.5468,-5.4678,-5.4213,-5.4077,-5.3257,-5.3699,-5.5249,-5.5909,-5.6618,0.0,0.0,-3.2226,-3.082,0.0,0.0,0.0,0.0,0.0,0.0,0.0,0.0,0.0,0.0,-2.4976,-2.4098,-2.2809,-2.1695,0.0,0.0,0.0,0.0,0.0,0.0,0.0,0.0,0.0,0.0,-3.1555,0.0,0.0,-3.97,-4.2162,-4.3893,-4.6644,-4.824,-4.8548,-4.9971,-5.0712,-5.0712,-5.0712,-5.0712,-5.0712,-5.0712,-5.0712,-5.0789,-5.2451,-5.3172,-5.3287,-5.4938,-5.5629,-5.5629,-5.5629,-5.5629,-5.5618,-5.5527,-5.5492,-5.5468,-5.542,-5.5396,-5.5403,-5.5403,-5.5403,-5.5403,-5.5403,-5.6568,-5.7772,-5.7199,-5.8249,-5.9415,-5.888,-5.8746,-5.8746,-5.8746,-5.8746,-5.8746,-5.8746,-5.8746,-5.8746,-5.8746,-5.8746,-5.8746,-5.8746,-5.9185,-5.9739,-6.0313,-6.0403,-6.0083,-5.9182,-5.9006,-5.864,-5.7792,-5.7639,-5.7528,-5.7392,-5.7197,-5.7135,-5.7274,-5.6383,-5.5788,-5.5614,-5.5614,-5.5592,-5.553,-5.4737,-5.4312,-5.425,-5.3463,-5.3884,-5.5463,-5.5071,-5.5494,-3.4472,-3.4316,0.0,-3.2597,-3.1386,0.0,-2.8319,0.0,0.0,0.0,0.0,0.0,0.0,0.0,-2.6248,-2.5057,-2.3456,-2.1951,0.0,-2.0877,0.0,0.0,0.0,0.0,0.0,0.0,-2.8004,-2.8284,-2.906,0.0,0.0,0.0,-4.0543,-4.2563,-4.6182,-4.8105,-4.8105,-4.9817,-5.0712,-5.0712,-5.0712,-5.0712,-5.0712,-5.0712,-5.0712,-5.0789,-5.2472,-5.3203,-5.3337,-5.5011,-5.5703,-5.5703,-5.5703,-5.5703,-5.5692,-5.5596,-5.5551,-5.5527,-5.5456,-5.5637,-5.59,-5.59,-5.611,-5.6359,-5.6359,-5.7315,-5.8233,-5.7347,-5.8079,-5.8926,-5.8129,-5.7905,-5.7905,-5.7905,-5.7905,-5.7905,-5.7905,-5.7905,-5.7905,-5.7905,-5.7905,-5.7905,-5.7905,-5.8574,-5.93,-5.9854,-6.0198,-5.9969,-5.8822,-5.867,-5.8249,-5.7122,-5.7008,-5.7036,-5.7101,-5.6452,-5.6214,-5.6626,-5.5722,-5.5073,-5.4859,-5.4859,-5.4837,-5.4776,-5.428,-5.4002,-5.3977,-5.3463,-5.3885,-5.5152,-5.4257,-5.4454]},{"header":{"parameterUnit":"m.s-1","parameterCategory":1,"la1":30.6,"la2":29.2853,"lo1":-89.7004,"lo2":-87.6739,"dy":0.0162,"dx":0.0183,"nx":112,"ny":82,"refTime":"2026-04-20T12:00:00:Z","depth":0,"parameterNumber":3,"parameterNumberName":"V-component_of_WINDS"},"data":[0.0,0.0,0.0,0.0,0.0,0.0,0.0,0.0,0.0,0.0,0.0,0.0,0.0,0.0,0.0,0.0,0.0,0.0,0.0,0.0,0.0,0.0,0.0,0.0,0.0,0.0,0.0,0.0,0.0,0.0,0.0,0.0,0.0,0.0,0.0,0.0,0.0,0.0,0.0,0.0,0.0,0.0,0.0,0.0,0.0,0.0,0.0,0.0,0.0,0.0,0.0,0.0,0.0,0.0,0.0,0.0,0.0,0.0,0.0,0.0,0.0,0.0,0.0,0.0,0.0,0.0,0.0,0.0,0.0,0.0,0.0,0.0,0.0,0.0,0.0,0.0,0.0,0.0,0.0,0.0,0.0,0.0,0.0,0.0,0.0,0.0,0.0,0.0,0.0,0.0,0.0,-2.083,-2.2949,-2.3477,-2.1882,-1.9621,-1.7613,-1.6111,0.0,0.0,0.0,0.0,0.0,0.0,0.0,0.0,0.0,0.0,0.0,0.0,0.0,0.0,0.0,0.0,0.0,0.0,0.0,0.0,0.0,0.0,0.0,0.0,0.0,0.0,0.0,0.0,0.0,0.0,0.0,0.0,0.0,0.0,0.0,0.0,0.0,0.0,0.0,0.0,0.0,0.0,0.0,0.0,0.0,0.0,0.0,0.0,0.0,0.0,0.0,0.0,0.0,0.0,0.0,0.0,0.0,0.0,0.0,0.0,0.0,0.0,0.0,0.0,0.0,0.0,0.0,0.0,0.0,0.0,0.0,0.0,0.0,0.0,0.0,0.0,0.0,0.0,0.0,0.0,0.0,0.0,0.0,0.0,0.0,0.0,0.0,0.0,0.0,0.0,0.0,0.0,0.0,0.0,0.0,0.0,0.0,0.0,0.0,0.0,0.0,0.0,0.0,0.0,-1.8756,-2.3037,-2.4217,-2.4173,-2.2957,-2.0813,-1.9033,-1.7879,0.0,0.0,0.0,0.0,0.0,0.0,0.0,0.0,0.0,0.0,0.0,0.0,0.0,0.0,0.0,0.0,0.0,0.0,0.0,0.0,0.0,0.0,0.0,0.0,0.0,0.0,0.0,0.0,0.0,0.0,0.0,0.0,0.0,0.0,0.0,0.0,0.0,0.0,0.0,0.0,0.0,0.0,0.0,0.0,0.0,0.0,0.0,0.0,0.0,0.0,0.0,0.0,0.0,0.0,0.0,0.0,0.0,0.0,0.0,0.0,0.0,0.0,0.0,0.0,0.0,0.0,0.0,0.0,0.0,0.0,0.0,0.0,0.0,0.0,0.0,0.0,0.0,0.0,0.0,0.0,0.0,0.0,0.0,0.0,0.0,0.0,0.0,0.0,0.0,0.0,0.0,0.0,0.0,0.0,0.0,0.0,0.0,0.0,0.0,0.0,0.0,0.0,0.0,-1.9196,-2.2422,-2.5079,-2.6101,-2.5879,-2.4161,-2.1995,-1.9874,-1.789,-1.4523,0.0,0.0,0.0,0.0,0.0,0.0,0.0,0.0,0.0,0.0,0.0,0.0,0.0,0.0,0.0,0.0,0.0,0.0,0.0,0.0,0.0,0.0,0.0,0.0,0.0,0.0,0.0,0.0,0.0,0.0,0.0,0.0,0.0,0.0,0.0,0.0,0.0,0.0,0.0,0.0,0.0,0.0,0.0,0.0,0.0,0.0,0.0,0.0,0.0,0.0,0.0,0.0,0.0,0.0,0.0,0.0,0.0,0.0,0.0,0.0,0.0,0.0,0.0,0.0,0.0,0.0,0.0,0.0,0.0,0.0,0.0,0.0,0.0,0.0,0.0,0.0,0.0,0.0,0.0,0.0,0.0,0.0,0.0,0.0,0.0,0.0,0.0,0.0,0.0,0.0,0.0,0.0,0.0,0.0,0.0,0.0,0.0,0.0,0.0,0.0,0.0,0.0,-2.3163,-2.5774,-2.6776,-2.7959,-2.7745,-2.541,-2.3163,-2.0702,-1.794,-1.4793,0.0,0.0,0.0,0.0,0.0,0.0,0.0,0.0,0.0,0.0,0.0,0.0,0.0,0.0,0.0,0.0,0.0,0.0,0.0,0.0,0.0,0.0,0.0,0.0,0.0,0.0,0.0,0.0,0.0,0.0,0.0,0.0,0.0,0.0,0.0,0.0,0.0,0.0,0.0,0.0,0.0,0.0,0.0,0.0,0.0,0.0,0.0,0.0,0.0,0.0,0.0,0.0,0.0,0.0,0.0,0.0,0.0,0.0,0.0,0.0,0.0,0.0,0.0,0.0,0.0,0.0,0.0,0.0,0.0,0.0,0.0,0.0,0.0,0.0,0.0,0.0,0.0,0.0,0.0,0.0,0.0,0.0,0.0,0.0,0.0,0.0,0.0,0.0,0.0,0.0,0.0,0.0,0.0,0.0,0.0,0.0,0.0,0.0,0.0,0.0,0.0,0.0,-2.445,-2.7344,-2.7921,-2.9465,-2.9327,-2.6612,-2.4305,-2.1816,-1.9058,-1.5237,0.0,0.0,0.0,0.0,0.0,0.0,0.0,0.0,0.0,0.0,0.0,0.0,0.0,0.0,0.0,0.0,0.0,0.0,0.0,0.0,0.0,0.0,0.0,0.0,0.0,0.0,0.0,0.0,0.0,0.0,0.0,0.0,0.0,0.0,0.0,0.0,0.0,0.0,0.0,0.0,0.0,0.0,0.0,0.0,0.0,0.0,0.0,0.0,0.0,0.0,0.0,0.0,0.0,0.0,0.0,0.0,0.0,0.0,0.0,0.0,0.0,0.0,0.0,0.0,0.0,0.0,0.0,0.0,0.0,0.0,0.0,0.0,0.0,0.0,0.0,0.0,0.0,0.0,0.0,0.0,0.0,0.0,0.0,0.0,0.0,0.0,0.0,0.0,0.0,0.0,0.0,0.0,0.0,0.0,0.0,0.0,0.0,0.0,0.0,0.0,0.0,0.0,-2.5124,-2.7871,0.0,-2.9616,-2.949,-2.6738,-2.4418,-2.1779,-1.8706,0.0,0.0,0.0,0.0,0.0,0.0,0.0,0.0,0.0,0.0,0.0,0.0,0.0,0.0,0.0,0.0,0.0,0.0,0.0,0.0,0.0,0.0,0.0,0.0,0.0,0.0,0.0,0.0,0.0,0.0,0.0,0.0,0.0,0.0,0.0,0.0,0.0,0.0,0.0,0.0,0.0,0.0,0.0,0.0,0.0,0.0,0.0,0.0,0.0,0.0,0.0,0.0,0.0,0.0,0.0,0.0,0.0,0.0,0.0,0.0,0.0,0.0,0.0,0.0,0.0,0.0,0.0,0.0,0.0,0.0,0.0,0.0,0.0,0.0,0.0,0.0,0.0,0.0,0.0,0.0,0.0,0.0,0.0,0.0,0.0,0.0,0.0,0.0,0.0,0.0,0.0,0.0,0.0,0.0,0.0,0.0,0.0,0.0,0.0,0.0,0.0,0.0,-2.1386,-2.5786,-2.8574,0.0,-2.9867,-2.9741,-2.6989,-2.4519,-2.1691,-1.8417,0.0,0.0,0.0,0.0,0.0,0.0,0.0,0.0,0.0,0.0,0.0,0.0,0.0,0.0,0.0,0.0,0.0,0.0,0.0,0.0,0.0,0.0,0.0,0.0,0.0,0.0,0.0,0.0,0.0,0.0,0.0,0.0,0.0,0.0,0.0,0.0,0.0,0.0,0.0,0.0,0.0,0.0,0.0,0.0,0.0,0.0,0.0,0.0,0.0,0.0,0.0,0.0,0.0,0.0,0.0,0.0,0.0,0.0,0.0,0.0,0.0,0.0,0.0,0.0,0.0,0.0,0.0,0.0,0.0,0.0,0.0,0.0,0.0,0.0,0.0,0.0,0.0,0.0,0.0,0.0,0.0,0.0,0.0,0.0,0.0,0.0,0.0,0.0,0.0,0.0,0.0,0.0,0.0,0.0,0.0,0.0,0.0,0.0,0.0,0.0,0.0,0.0,-2.1535,-2.6476,-2.9566,-2.8938,-3.0382,-3.0244,-2.7494,-2.4707,-2.1678,0.0,0.0,0.0,0.0,0.0,0.0,0.0,0.0,0.0,0.0,0.0,0.0,0.0,0.0,0.0,0.0,0.0,0.0,0.0,0.0,0.0,0.0,0.0,0.0,0.0,0.0,0.0,0.0,0.0,0.0,0.0,0.0,0.0,0.0,0.0,0.0,0.0,0.0,0.0,0.0,0.0,0.0,0.0,0.0,0.0,0.0,0.0,0.0,0.0,0.0,0.0,0.0,0.0,0.0,0.0,0.0,0.0,0.0,0.0,0.0,0.0,0.0,0.0,0.0,0.0,0.0,0.0,0.0,0.0,0.0,0.0,0.0,0.0,0.0,0.0,0.0,0.0,0.0,0.0,0.0,0.0,0.0,0.0,0.0,0.0,0.0,0.0,0.0,0.0,0.0,0.0,0.0,0.0,0.0,0.0,0.0,0.0,0.0,0.0,0.0,0.0,0.0,0.0,-2.1721,-2.6557,-2.9277,-2.7908,-2.89,-2.8499,-2.5774,-2.3351,-2.0727,-1.7825,0.0,0.0,0.0,0.0,0.0,0.0,0.0,0.0,0.0,0.0,0.0,0.0,0.0,0.0,0.0,0.0,0.0,0.0,0.0,0.0,0.0,0.0,0.0,0.0,0.0,0.0,0.0,0.0,0.0,0.0,0.0,0.0,0.0,0.0,0.0,0.0,0.0,0.0,0.0,0.0,0.0,0.0,0.0,0.0,0.0,0.0,0.0,0.0,0.0,0.0,0.0,0.0,0.0,0.0,0.0,0.0,0.0,0.0,0.0,0.0,0.0,0.0,0.0,0.0,0.0,0.0,0.0,0.0,0.0,0.0,0.0,0.0,0.0,0.0,0.0,0.0,0.0,0.0,0.0,0.0,0.0,0.0,0.0,0.0,0.0,0.0,0.0,0.0,0.0,0.0,0.0,0.0,0.0,0.0,0.0,0.0,0.0,0.0,0.0,0.0,0.0,0.0,-2.2166,-2.6358,-2.8561,-2.714,-2.7745,-2.7243,-2.4707,-2.2648,-2.0339,-1.7574,0.0,0.0,0.0,0.0,0.0,0.0,0.0,0.0,0.0,0.0,0.0,0.0,0.0,0.0,0.0,0.0,0.0,0.0,0.0,0.0,0.0,0.0,0.0,0.0,0.0,0.0,0.0,0.0,0.0,0.0,0.0,0.0,0.0,0.0,0.0,0.0,0.0,0.0,0.0,0.0,0.0,0.0,0.0,0.0,0.0,0.0,0.0,0.0,0.0,0.0,0.0,0.0,0.0,0.0,0.0,0.0,0.0,0.0,0.0,0.0,0.0,0.0,0.0,0.0,0.0,0.0,0.0,0.0,0.0,0.0,0.0,0.0,0.0,0.0,0.0,0.0,0.0,0.0,0.0,0.0,0.0,0.0,0.0,0.0,0.0,0.0,0.0,0.0,0.0,0.0,0.0,0.0,0.0,0.0,0.0,0.0,0.0,0.0,0.0,0.0,0.0,0.0,-2.2737,-2.6021,-2.7715,-2.6606,-2.6848,-2.621,-2.406,-2.2376,-2.0289,-1.7574,0.0,0.0,0.0,0.0,0.0,0.0,0.0,0.0,0.0,0.0,0.0,0.0,0.0,0.0,0.0,0.0,0.0,0.0,0.0,0.0,0.0,0.0,0.0,0.0,0.0,0.0,0.0,0.0,0.0,0.0,0.0,0.0,0.0,0.0,0.0,0.0,0.0,0.0,0.0,0.0,0.0,0.0,0.0,0.0,0.0,0.0,0.0,0.0,0.0,0.0,0.0,0.0,0.0,0.0,0.0,0.0,0.0,0.0,0.0,0.0,-1.4088,0.0,0.0,0.0,0.0,0.0,0.0,0.0,0.0,0.0,0.0,0.0,0.0,0.0,0.0,0.0,0.0,0.0,0.0,0.0,0.0,0.0,0.0,0.0,0.0,0.0,0.0,0.0,0.0,0.0,0.0,0.0,0.0,0.0,0.0,0.0,0.0,0.0,0.0,0.0,0.0,0.0,-2.2684,-2.6041,-2.7795,-2.656,-2.6005,-2.4957,-2.3056,-2.164,-1.9874,-1.7549,-1.56,0.0,0.0,0.0,0.0,0.0,0.0,0.0,0.0,0.0,0.0,0.0,0.0,0.0,0.0,0.0,0.0,0.0,0.0,0.0,0.0,0.0,0.0,0.0,0.0,0.0,0.0,0.0,0.0,0.0,0.0,0.0,0.0,0.0,0.0,0.0,0.0,0.0,0.0,0.0,0.0,0.0,0.0,0.0,0.0,0.0,0.0,0.0,0.0,0.0,0.0,0.0,0.0,0.0,0.0,0.0,0.0,0.0,0.0,0.0,0.0,-1.6224,0.0,0.0,0.0,0.0,0.0,0.0,0.0,0.0,0.0,0.0,0.0,0.0,0.0,0.0,0.0,0.0,0.0,0.0,0.0,0.0,0.0,0.0,0.0,0.0,0.0,0.0,0.0,0.0,0.0,0.0,0.0,0.0,0.0,0.0,0.0,0.0,0.0,0.0,0.0,0.0,-2.285,-2.5688,-2.7082,-2.5992,-2.5408,-2.4429,-2.2824,-2.1471,-1.9975,-1.8279,-1.6346,0.0,0.0,0.0,0.0,0.0,0.0,0.0,0.0,0.0,0.0,0.0,0.0,0.0,0.0,0.0,0.0,0.0,0.0,0.0,0.0,0.0,0.0,0.0,0.0,0.0,0.0,0.0,0.0,0.0,0.0,0.0,0.0,0.0,0.0,0.0,0.0,0.0,0.0,0.0,0.0,0.0,0.0,0.0,0.0,0.0,0.0,0.0,0.0,0.0,0.0,0.0,0.0,0.0,-2.2775,-2.3262,-2.4076,-2.4831,-2.5159,-2.5034,-2.2786,-2.1091,-1.9823,0.0,0.0,0.0,0.0,0.0,0.0,0.0,0.0,0.0,0.0,0.0,0.0,0.0,0.0,0.0,0.0,0.0,0.0,0.0,0.0,0.0,0.0,0.0,0.0,0.0,-2.3314,-2.3034,0.0,0.0,0.0,0.0,0.0,0.0,0.0,0.0,0.0,0.0,0.0,0.0,-2.3176,-2.5454,-2.6502,-2.5718,-2.5283,-2.4502,-2.3084,-2.1827,-2.0539,-1.9221,-1.735,-1.5751,0.0,0.0,0.0,0.0,0.0,0.0,0.0,0.0,0.0,0.0,0.0,0.0,0.0,0.0,0.0,0.0,0.0,0.0,0.0,0.0,0.0,0.0,0.0,0.0,0.0,0.0,0.0,0.0,0.0,0.0,0.0,0.0,-0.873,-0.9182,0.0,0.0,0.0,0.0,0.0,0.0,0.0,0.0,0.0,0.0,0.0,0.0,0.0,-1.9709,-2.1283,-2.3386,-2.5175,-2.6638,-2.7225,-2.7903,-2.8649,-2.9401,-2.9741,-2.9754,-2.9829,0.0,-2.3263,-2.2209,0.0,0.0,0.0,0.0,0.0,0.0,0.0,0.0,0.0,0.0,0.0,0.0,0.0,0.0,0.0,0.0,0.0,0.0,0.0,0.0,0.0,0.0,-2.5184,-2.5753,-2.5992,-2.5963,0.0,-2.3731,-2.1929,-2.056,-1.9827,0.0,0.0,0.0,0.0,0.0,0.0,0.0,-2.3862,-2.6149,-2.7417,-2.6996,-2.6182,-2.5114,-2.3691,-2.3107,-2.1892,-1.9836,-1.897,-1.7842,-1.6258,-1.462,0.0,0.0,0.0,0.0,0.0,0.0,0.0,0.0,0.0,0.0,0.0,0.0,0.0,0.0,0.0,0.0,0.0,0.0,0.0,0.0,0.0,0.0,0.0,0.0,0.0,0.0,0.0,0.0,0.0,-0.9512,-1.0966,-1.1562,-1.1737,-1.1704,0.0,0.0,0.0,0.0,0.0,0.0,0.0,0.0,0.0,-2.0872,-2.242,-2.4147,-2.6089,-2.7865,-2.95,-3.1062,-3.1352,-3.1805,-3.2426,-3.2775,-3.2918,-3.2943,-3.3156,-3.1851,-2.9352,-2.6678,-2.4732,-2.3251,0.0,0.0,0.0,0.0,-2.0888,-2.1478,-2.2661,-2.2723,0.0,-2.1979,0.0,0.0,0.0,0.0,0.0,0.0,0.0,0.0,0.0,0.0,-2.8021,-2.8273,-2.8574,-2.8624,-2.7984,-2.7053,-2.5741,0.0,-2.238,-2.1067,-1.937,0.0,0.0,0.0,0.0,-2.1358,-2.3757,-2.6096,-2.7431,-2.7115,-2.654,-2.5882,-2.5108,-2.3862,-2.2556,-2.1292,-2.0112,-1.8832,-1.7526,-1.5877,-1.4481,0.0,0.0,0.0,0.0,0.0,0.0,0.0,0.0,0.0,0.0,0.0,0.0,0.0,0.0,0.0,0.0,0.0,0.0,0.0,0.0,0.0,0.0,0.0,0.0,0.0,0.0,0.0,0.0,-1.1555,-1.3021,-1.3733,-1.4099,-1.4116,0.0,0.0,0.0,0.0,0.0,0.0,-2.0706,-2.2152,-2.3601,-2.5076,-2.6466,-2.8163,-3.0171,-3.1426,-3.2805,-3.4324,-3.4324,-3.4613,-3.514,-3.514,-3.514,-3.514,-3.514,-3.4826,-3.4048,-3.0583,-2.826,-2.6703,-2.4863,-2.3998,-2.3828,-2.4061,-2.4349,-2.48,-2.6352,-2.654,-2.6088,-2.6088,0.0,-2.3201,-2.225,0.0,0.0,0.0,0.0,-2.4825,-2.6839,-2.875,-3.0206,-3.0206,-3.052,-3.0583,-2.9703,-2.9302,-2.8484,0.0,-2.4714,-2.3295,-2.1861,0.0,0.0,0.0,0.0,-2.1872,-2.4271,-2.6382,-2.7594,-2.7505,-2.7222,-2.6819,-2.6317,-2.4716,-2.3321,-2.2372,-2.1004,-1.9623,-1.8267,-1.6873,-1.5487,-1.4128,0.0,0.0,0.0,0.0,0.0,0.0,0.0,0.0,0.0,0.0,0.0,0.0,0.0,0.0,0.0,0.0,0.0,0.0,0.0,0.0,0.0,0.0,0.0,0.0,0.0,0.0,0.0,0.0,0.0,-1.5139,-1.5942,0.0,0.0,0.0,0.0,-1.8334,-2.1042,-2.3083,-2.4198,-2.6384,-2.7926,-2.8717,-2.997,-3.1286,-3.2623,-3.3395,-3.4349,-3.542,-3.542,-3.5755,-3.6317,-3.6317,-3.6317,-3.6317,-3.6317,-3.5968,-3.5232,-3.2912,-3.1361,-3.0143,-2.7934,-2.7381,-2.7758,-2.7256,-2.7733,-2.8762,-2.9955,-3.0005,-2.9541,-2.9541,-2.8083,-2.6172,-2.5536,-2.4946,0.0,0.0,-2.7014,-2.8134,-2.9315,-3.047,-3.1311,-3.1311,-3.1336,-3.1336,-3.1286,-3.047,-2.9265,0.0,-2.7023,-2.6169,-2.4569,0.0,-2.2147,-2.2799,-2.2944,-2.379,-2.6171,-2.7516,-2.84,-2.8782,-2.8607,-2.7994,-2.6764,-2.5938,-2.4569,-2.2447,-2.1744,-2.0439,-1.8292,-1.7614,-1.6292,-1.4141,-1.3433,0.0,0.0,0.0,0.0,0.0,0.0,0.0,0.0,0.0,0.0,0.0,0.0,0.0,0.0,0.0,0.0,0.0,0.0,0.0,0.0,0.0,0.0,0.0,0.0,0.0,0.0,0.0,0.0,-1.7166,-1.8129,0.0,-1.8462,-1.8662,-1.9579,-2.1392,-2.4214,-2.6636,-2.8392,-3.0248,-3.168,-3.263,-3.3115,-3.372,-3.4515,-3.4818,-3.5328,-3.6069,-3.6069,-3.6169,-3.6405,-3.6405,-3.6405,-3.6405,-3.6405,-3.6304,-3.5981,-3.4826,-3.3665,-3.2579,-3.1047,-3.057,-3.0721,-3.0532,-3.0708,-3.121,-3.234,-3.2365,-3.1851,-3.1474,-3.057,-2.9528,-2.8988,-2.8448,-2.8172,-2.8925,-2.9917,-3.0834,-3.1248,-3.2164,-3.2918,-3.2566,-3.2478,-3.2277,-3.1549,-3.0834,-3.0043,-2.9152,-2.8257,-2.7359,-2.6468,-2.4957,-2.4063,-2.4627,-2.4106,-2.4378,-2.6294,-2.7468,-2.8348,-2.8833,-2.8847,-2.847,-2.7689,-2.6361,-2.4808,-2.2932,-2.1656,-2.0288,-1.877,-1.7865,-1.6857,-1.5668,-1.4771,-1.3546,0.0,0.0,0.0,0.0,0.0,0.0,0.0,0.0,0.0,0.0,0.0,0.0,0.0,0.0,0.0,0.0,0.0,0.0,0.0,0.0,0.0,0.0,0.0,0.0,0.0,0.0,-1.7959,-1.9041,-2.0167,-2.0771,-2.0575,-2.1096,-2.2121,-2.3798,-2.6508,-2.8841,-3.0531,-3.2141,-3.3352,-3.4277,-3.458,-3.4944,-3.5495,-3.5871,-3.6235,-3.6563,-3.6739,-3.6778,-3.6682,-3.6682,-3.6682,-3.6682,-3.6778,-3.6778,-3.6801,-3.6486,-3.5943,-3.514,-3.3646,-3.3056,-3.3056,-3.3056,-3.3056,-3.3169,-3.3922,-3.3935,-3.3571,-3.3181,-3.2805,-3.2453,-3.2102,-3.175,-3.1537,-3.1901,-3.2516,-3.3056,-3.3056,-3.347,-3.3809,-3.3432,-3.3206,-3.286,-3.1876,-3.0972,-3.0281,-3.0105,-2.9315,-2.8499,-2.7934,-2.6779,-2.5975,-2.6138,-2.5398,-2.5393,-2.6864,-2.7821,-2.8599,-2.9126,-2.9176,-2.8913,-2.8172,-2.6741,-2.5096,-2.3221,-2.1581,-2.0113,-1.877,-1.8053,-1.7212,-1.6258,-1.4977,-1.3873,-1.2939,0.0,0.0,0.0,0.0,0.0,0.0,0.0,0.0,0.0,0.0,0.0,0.0,0.0,0.0,0.0,0.0,0.0,0.0,0.0,0.0,0.0,0.0,0.0,-1.4941,-1.7811,-2.0043,-2.0715,-2.1924,-2.2638,-2.2395,-2.3039,-2.4017,-2.5396,-2.7862,-2.9609,-3.0454,-3.184,-3.2891,-3.3437,-3.4265,-3.4919,-3.5495,-3.6634,-3.7053,-3.6811,-3.7332,-3.7431,-3.718,-3.713,-3.713,-3.718,-3.7443,-3.7593,-3.7593,-3.7866,-3.8002,-3.7801,-3.5655,-3.4781,-3.4781,-3.4781,-3.4781,-3.4781,-3.4756,-3.4801,-3.4801,-3.4776,-3.4731,-3.4731,-3.4705,-3.4693,-3.468,-3.47,-3.4675,-3.4675,-3.4675,-3.4286,-3.3897,-3.3872,-3.3483,-3.293,-3.2315,-3.0934,-2.9967,-3.0495,-3.0168,-2.9628,-2.9013,-2.8461,-2.7946,-2.7394,-2.6876,0.0,-2.7959,-2.8549,-2.9113,-2.9729,-2.9792,-2.934,-2.8197,-2.7128,-2.5544,-2.3246,-2.1556,-1.9937,-1.8279,-1.8191,-1.7413,-1.5781,-1.4118,-1.3015,-1.245,0.0,0.0,0.0,0.0,0.0,0.0,0.0,0.0,0.0,0.0,0.0,0.0,0.0,0.0,0.0,0.0,0.0,0.0,0.0,0.0,0.0,0.0,-1.6257,-1.6999,-1.8941,-2.0874,-2.2333,-2.3225,-2.3774,-2.3867,-2.4377,-2.5051,-2.5776,-2.7415,-2.8789,-2.9788,-3.0802,-3.1747,-3.2691,-3.3601,-3.4575,-3.5495,-3.6634,-3.7254,-3.737,-3.6882,-3.6539,-3.6222,-3.5545,-3.5481,-3.5943,-3.6425,-3.6905,-3.7331,-3.7817,-3.8002,-3.7952,-3.7337,-3.7098,-3.7098,-3.7098,-3.7098,-3.7048,-3.6646,-3.6508,-3.6445,-3.6044,-3.5906,-3.5843,-3.5395,-3.4994,-3.4638,-3.4236,-3.3834,-3.3533,-3.3533,-3.3709,-3.3796,-3.3395,-3.3495,-3.3294,-3.1913,-3.0972,-3.0319,-3.0068,-3.0218,-3.0206,-2.9654,-2.9089,-2.8511,-2.7959,-2.7406,0.0,-2.8009,-2.8549,-2.9113,-2.9729,-2.9792,-2.934,-2.8197,-2.7128,-2.5544,-2.3246,-2.1192,-1.9484,-1.8254,-1.7815,-1.741,-1.6945,-1.5668,-1.4569,0.0,0.0,0.0,0.0,0.0,0.0,0.0,0.0,0.0,0.0,0.0,0.0,0.0,0.0,0.0,0.0,0.0,0.0,0.0,0.0,0.0,0.0,-1.6609,-1.8735,-1.9911,-2.106,-2.2159,-2.3298,-2.4163,-2.4747,-2.4889,-2.5434,-2.5972,-2.6385,-2.767,-2.869,-2.9376,-3.0202,-3.1112,-3.2095,-3.3191,-3.4276,-3.5365,-3.6823,-3.7443,-3.7207,-3.6824,-3.6348,-3.5823,-3.5188,-3.5123,0.0,-3.6336,-3.688,-3.7433,-3.82,-3.8554,0.0,0.0,0.0,0.0,0.0,-3.8002,-3.7927,-3.7374,-3.7186,-3.7098,-3.6581,-3.6405,-3.6267,-3.5441,-3.4768,-3.4211,-3.342,-3.2792,-3.2428,-3.2654,-3.3131,-3.3533,-3.3445,-3.3671,-3.3571,-3.2353,-3.1323,-3.0583,-3.0482,-3.0545,0.0,-3.0482,-3.0005,-2.9327,-2.8561,-2.8185,-2.8084,-2.8411,-2.8938,-2.9415,-2.9754,-2.9792,-2.9428,-2.8524,-2.7444,0.0,0.0,0.0,-1.9924,-1.8581,-1.8028,0.0,0.0,0.0,0.0,0.0,0.0,0.0,0.0,-1.5185,-1.5412,0.0,0.0,0.0,0.0,0.0,0.0,0.0,0.0,0.0,0.0,0.0,0.0,0.0,0.0,0.0,0.0,-1.8893,-2.0995,-2.2838,-2.3473,-2.3801,-2.4012,-2.4982,-2.5656,-2.5605,-2.6182,-2.6698,-2.694,-2.8041,-2.8746,-2.8872,0.0,0.0,0.0,0.0,-3.3871,-3.5005,-3.679,-3.732,-3.6608,-3.6713,-3.6383,-3.5576,-3.5256,-3.5256,-3.5587,-3.6437,-3.7042,-3.7548,-3.8671,-3.9206,-3.9274,-3.8479,-3.8203,-3.8203,-3.8203,-3.8203,-3.8115,-3.7563,0.0,0.0,-3.6681,-3.6455,-3.6216,-3.5127,-3.4387,-3.3684,-3.2604,-3.1825,-3.1449,-3.2051,-3.2641,-3.3262,-3.3771,-3.3997,-3.3897,-3.3219,-3.1926,-3.0984,-3.1323,-3.1072,-3.0922,-3.1323,-3.0959,-3.0256,-2.9151,-2.8938,-2.8888,-2.8888,-2.944,-2.9792,-2.9792,0.0,0.0,-2.8938,-2.7971,-2.6666,-2.5008,-2.2698,-2.069,-1.907,-1.8469,-1.8205,-1.8268,-1.7792,-1.7601,-1.7652,-1.8255,-1.9096,-2.0137,-1.8568,-1.8141,0.0,0.0,0.0,0.0,0.0,0.0,0.0,0.0,0.0,0.0,0.0,0.0,0.0,0.0,0.0,-1.7861,-1.9983,-2.1769,-2.3014,-2.4232,-2.5155,-2.5384,-2.6092,-2.6482,-2.6323,-2.6458,-2.6509,-2.6536,-2.6794,-2.7143,-2.7489,-2.7882,-2.8697,-2.9897,-3.0959,-3.2314,-3.3989,-3.5265,-3.5936,-3.5985,0.0,0.0,-3.4291,-3.3547,-3.3501,-3.4065,-3.4703,-3.5576,-3.6557,-3.7684,-3.8764,-3.962,-3.9459,-3.9371,-3.9371,-3.9371,-3.9371,-3.9283,-3.8743,-3.8241,-3.7764,-3.7199,-3.6769,-3.6279,-3.5533,-3.4688,0.0,-3.3093,-3.1876,-3.0984,-3.1964,-3.2641,-3.3262,-3.3771,-3.4575,-3.4826,-3.3382,-3.2872,-3.2365,-3.1549,-3.1675,-3.18,-3.1449,-3.0959,-3.0394,-2.9729,-2.9189,-2.8888,-2.8888,-2.944,-2.9792,-2.9792,-2.9792,-2.9566,-2.8938,-2.8323,-2.7231,-2.5548,-2.2564,-2.0314,-1.9058,-1.8469,-1.8357,-1.8684,-1.8585,-1.8734,-1.917,-2.0138,-2.1266,-2.2431,-2.1255,-2.0991,0.0,0.0,0.0,0.0,0.0,0.0,0.0,0.0,0.0,0.0,0.0,-1.3145,-1.4356,0.0,-1.7452,-1.9033,-2.0847,-2.2404,-2.3364,-2.4916,-2.5838,-2.5765,-2.6358,-2.6854,-2.6953,-2.7051,-2.715,-2.7091,-2.7361,-2.7541,-2.7662,-2.8299,-2.9079,-2.986,-3.1265,-3.2572,-3.3707,-3.482,-3.5328,-3.5146,-3.4525,-3.4032,-3.3604,-3.3001,-3.2965,-3.3409,-3.3976,-3.4747,-3.5685,-3.715,-3.8344,-3.927,-3.927,-3.9426,-3.9697,-3.9697,-3.9697,-3.9609,-3.9108,-3.868,-3.8341,-3.7776,-3.7412,-3.7036,-3.6172,-3.5345,-3.45,-3.3382,-3.2277,-3.1537,-3.2077,-3.2855,-3.3633,-3.4173,-3.4893,-3.527,-3.4487,-3.3872,-3.3319,-3.2754,-3.2641,-3.2554,-3.2277,-3.1549,-3.0821,-3.0281,-2.9729,-2.9365,-2.9365,-2.9616,-2.9792,-2.9792,-2.9792,-2.9679,-2.939,-2.8586,-2.7381,-2.5699,-2.3552,-2.1832,-2.0688,-2.015,-1.9759,-1.9617,-2.0136,-2.0695,-2.1256,-2.2332,-2.3667,-2.5197,-2.4644,-2.423,0.0,0.0,0.0,0.0,0.0,0.0,0.0,0.0,-1.0898,-1.2448,-1.4284,-1.5845,-1.6752,-1.8127,-1.9457,-2.0372,-2.1803,-2.3086,-2.4033,-2.5449,-2.6289,-2.5966,-2.6556,-2.7101,-2.7437,-2.763,-2.7832,-2.7912,-2.8173,-2.8356,-2.8329,-2.9174,-2.9843,-3.0346,-3.1816,-3.2813,-3.3351,-3.4228,-3.448,-3.3976,-3.3685,-3.3367,-3.2898,-3.2669,-3.2669,-3.2955,-3.3582,-3.4179,-3.4847,-3.6503,-3.759,-3.8291,-3.8396,-3.8828,-3.9362,-3.9478,-3.9581,-3.957,-3.9029,-3.8804,-3.8642,-3.8179,-3.7941,-3.7691,-3.6841,-3.6131,-3.5381,-3.399,-3.3089,-3.2607,-3.2607,-3.3326,-3.4198,-3.4751,-3.5257,-3.5621,-3.552,-3.4806,-3.4161,-3.3935,-3.3533,-3.3206,-3.3136,-3.2139,-3.1248,-3.0834,-3.0206,-2.9792,-2.9792,-2.9792,-2.9792,-2.9792,-2.9792,-2.9792,-2.9792,-2.885,-2.7595,-2.6025,-2.5008,-2.3929,-2.2686,-2.2209,-2.16,-2.0732,-2.177,-2.26,-2.317,-2.4261,-2.5688,-2.7408,-2.7408,-2.6919,-0.7619,-0.84,-0.9606,-1.0231,-1.0623,-1.113,0.0,0.0,-1.3454,-1.5404,-1.7216,-1.8638,-1.9294,-2.0542,-2.1745,-2.2395,-2.3124,-2.4082,-2.5294,-2.6016,-2.6504,-2.6836,-2.7307,-2.7643,-2.764,-2.7692,-2.7849,-2.8231,-2.7957,-2.8074,-2.878,-2.8962,-2.953,-3.0611,-3.0834,-3.1321,-3.1994,-3.216,-3.218,-3.2123,-3.2065,-3.2018,-3.196,-3.1903,-3.1903,-3.2018,-3.2846,-3.3561,-3.4179,-3.5168,-3.5936,-3.6522,-3.7084,-3.7631,-3.8161,-3.8724,-3.9102,-3.931,-3.8936,-3.8487,-3.8081,-3.8007,-3.7675,-3.7256,-3.7133,-3.6727,-3.6148,-3.5496,-3.47,-3.4065,-3.4065,-3.4345,-3.4731,-3.527,-3.5868,-3.6132,-3.5608,-3.5408,-3.5019,-3.4085,-3.3847,-3.3658,-3.3156,-3.2139,-3.1373,-3.1311,-3.0444,-2.9792,-2.9792,-2.9792,-2.9792,-2.9792,-2.9792,-2.9792,-2.9792,-2.9202,-2.8335,-2.7168,-2.6549,-2.5506,-2.3879,-2.3753,-2.3165,-2.1927,-2.2953,-2.3721,-2.4148,-2.5231,-2.6422,-2.7741,-2.7741,-2.7777,-0.8966,-0.9701,-1.0717,-1.1527,-1.2102,-1.2803,-1.3956,-1.5066,-1.6348,-1.8109,-2.0211,-2.1729,-2.1704,-2.2414,-2.309,0.0,-2.3787,-2.4521,-2.5538,-2.6318,-2.6728,-2.666,-2.6582,-2.6738,-2.7236,-2.7285,-2.7471,-2.7891,-2.8223,-2.8555,-2.8896,-2.9394,-2.989,-3.0376,-3.0813,-3.1204,-3.1498,-3.1672,-3.1787,-3.1787,-3.1787,-3.1787,-3.1787,-3.1787,-3.1787,-3.1845,-3.2342,-3.3006,-3.3797,-3.4346,-3.5013,-3.5783,-3.6165,-3.6762,-3.7524,-3.8303,-3.8514,-3.8437,-3.8173,-3.7541,-3.6968,-3.6968,-3.6826,-3.6649,-3.6649,-3.6443,-3.6204,-3.5702,-3.5499,-3.5405,-3.5139,-3.5354,-3.5742,-3.5968,-3.6194,-3.6342,-3.6069,-3.5768,-3.5357,-3.4906,-3.4336,-3.3822,-3.3596,-3.2616,-3.1763,-3.1436,-3.0482,-2.9792,-2.9792,-2.9792,-2.9792,-2.9792,-2.9792,-2.9792,-2.9792,-2.9425,-2.8874,-2.8088,-2.7431,-2.6685,-2.5793,-2.5398,-2.485,-2.4034,-2.4971,-2.5468,-2.5516,-2.6602,-2.763,-2.8543,-2.8684,-2.8849,-1.013,-1.0882,-1.181,-1.2808,-1.3477,-1.4245,-1.5529,-1.6967,-1.8481,-1.9987,-2.1957,-2.3293,-2.2974,-2.3363,-2.3777,-2.401,-2.4456,-2.5127,-2.6133,-2.6807,-2.7041,-2.6611,-2.6074,-2.5879,-2.6435,-2.6699,-2.707,-2.7679,-2.8447,-2.9023,-2.9258,-2.9863,-3.0254,-3.0381,-3.0935,-3.1218,-3.1218,-3.145,-3.1566,-3.1566,-3.1566,-3.1566,-3.1566,-3.1566,-3.1566,-3.1566,-3.1835,-3.2342,-3.296,-3.33,-3.3797,-3.448,-3.4914,-3.5564,-3.6317,-3.715,-3.7524,-3.7619,-3.7192,-3.6588,-3.5991,-3.5991,-3.5991,-3.5991,-3.5991,-3.5991,-3.5916,-3.548,-3.5714,-3.5956,-3.5563,-3.5851,-3.6275,-3.6181,-3.6228,-3.6275,-3.6181,-3.5821,-3.5497,-3.5347,-3.4674,-3.4038,-3.3783,-3.2964,-3.2131,-3.1417,-3.0568,-2.9967,-2.9817,-2.9792,-2.9792,-2.9792,-2.9792,-2.9792,-2.9792,-2.956,-2.9167,-2.8617,-2.8134,-2.7642,-2.7176,-2.6879,-2.6441,-2.5918,-2.6629,-2.6821,-2.6444,-2.735,-2.8113,-2.8752,-2.8949,-2.9275,-1.0779,-1.1895,-1.3021,-1.4165,-1.4655,-1.5309,-1.7048,-1.8175,-1.9238,-2.0686,-2.1748,-2.2451,-2.2441,-2.3016,-2.3744,-2.4553,-2.5208,-2.6093,-2.7422,-2.7679,-2.748,-2.7051,-2.62,-2.5576,0.0,-2.5908,-2.6758,-2.766,-2.8447,-2.9277,-3.0117,-3.0185,-3.04,-3.0859,-3.0879,-3.0889,-3.0889,-3.0947,-3.0947,-3.0947,-3.0947,-3.0947,-3.0947,-3.0947,-3.0947,-3.0947,-3.1218,-3.1325,-3.1383,-3.173,-3.1903,-3.2018,-3.2846,-3.3561,-3.4179,-3.4792,-3.5881,-3.6977,-3.6122,-3.5642,-3.5422,-3.5422,-3.5422,-3.5422,-3.5422,-3.5422,-3.5376,-3.5075,-3.5253,-3.5467,-3.52,-3.5539,-3.5968,-3.5668,-3.5812,-3.5968,-3.5668,-3.5608,-3.5436,-3.492,-3.4785,-3.4428,-3.3383,-3.2896,-3.2326,-3.1286,-3.0813,-3.0394,-2.9867,-2.9792,-2.9792,-2.9792,-2.9792,-2.9792,-2.9792,-2.956,-2.9133,-2.8557,-2.8676,-2.8421,-2.7609,-2.8005,-2.794,-2.7256,-2.7591,-2.7347,-2.6486,-2.7058,-2.7502,-2.7851,-2.8115,-2.8645,-1.1316,-1.2831,-1.4262,-1.5218,-1.5972,-1.6802,-1.7957,-1.9067,-1.9976,-2.0408,-2.0848,-2.1311,-2.1748,-2.2279,-2.3195,-2.4871,-2.5955,-2.6934,-2.7939,-2.7894,-2.751,-2.707,-2.5996,0.0,0.0,0.0,0.0,-2.6728,-2.7861,-2.8877,-2.9736,-3.0342,-3.0732,-3.0889,-3.0889,-3.0889,-3.0889,-3.0889,-3.0889,-3.0889,-3.0889,-3.0889,-3.0889,-3.0889,-3.0889,-3.0898,-3.1005,-3.116,-3.1325,-3.1441,-3.1614,-3.1845,-3.2342,-3.3016,-3.3751,-3.3751,-3.4302,-3.5002,-3.4681,-3.4145,-3.3614,-3.3614,-3.3614,-3.3614,-3.3614,-3.3614,-3.362,-3.3582,-3.391,-3.4263,-3.4279,-3.5001,-3.5588,-3.5405,-3.5259,-3.5138,-3.4848,-3.4397,-3.3958,-3.3781,-3.3464,-3.3219,-3.3208,-3.2789,-3.2059,-3.0957,-3.038,-3.0005,-2.9817,-2.9792,-2.993,-3.0306,-2.9863,-2.971,-3.0096,-2.9181,-2.8435,-2.8051,-2.7862,-2.7671,-2.7535,-2.7802,-2.7834,-2.7578,-2.7719,-2.7336,-2.6449,-2.6851,-2.7105,-2.7203,-2.7701,-2.8303,-1.257,-1.4118,-1.5494,-1.6382,-1.704,-1.7684,-1.8449,-1.9372,-1.9988,-1.9635,-1.955,-1.9679,-2.0146,-2.0714,-2.1789,-2.3919,-2.5621,-2.6926,-2.7834,-2.7916,-2.7734,-2.7295,-2.6367,-2.5537,0.0,0.0,0.0,-2.6084,-2.7344,-2.8506,-2.9577,-3.041,-3.0889,-3.0889,-3.0889,-3.0889,-3.0889,-3.0889,-3.0889,-3.0889,-3.0889,-3.0889,-3.0889,-3.0889,-3.0889,-3.0889,-3.0889,-3.1005,-3.117,-3.117,-3.1276,-3.1508,-3.1777,-3.2227,-3.2789,-3.2696,-3.2913,-3.3243,-3.3593,-3.3275,-3.2669,-3.2669,-3.2669,-3.2669,-3.2669,-3.2669,-3.2721,-3.2927,-3.324,-3.3508,-3.3671,-3.4453,-3.5101,-3.4601,-3.4507,-3.4385,-3.3944,-3.335,-3.2901,-3.2901,-3.2651,-3.2465,-3.2721,-3.2218,-3.1464,-3.0548,-3.0103,-2.9824,-2.9686,-2.9838,-3.0124,-3.0592,-3.0118,-2.977,-2.9796,-2.8846,-2.7859,-2.7028,-2.6835,-2.6723,-2.6618,-2.6946,-2.7123,-2.7261,-2.7221,-2.6775,-2.5943,-2.6176,-2.6249,-2.6174,-2.6835,-2.7609,-1.4386,-1.5648,-1.6711,-1.7585,-1.7826,-1.7962,-1.8543,-1.9014,-1.9175,-1.8401,-1.7782,-1.7453,0.0,0.0,-1.962,-2.1798,-2.4265,-2.6275,-2.7164,-2.7859,-2.8144,0.0,0.0,0.0,0.0,0.0,0.0,-2.5723,0.0,-2.8276,-2.9558,-3.041,-3.0889,-3.0889,-3.0889,-3.0889,-3.0889,-3.0889,-3.0889,-3.0889,-3.0889,-3.0889,-3.0889,-3.0889,-3.0889,-3.0889,-3.0889,-3.0889,-3.0889,-3.0889,-3.0889,-3.0947,-3.116,-3.1267,-3.1325,-3.1672,-3.1787,-3.1913,-3.2841,-3.2908,-3.2669,-3.2669,-3.2669,-3.2669,-3.2669,-3.2669,-3.2794,-3.3079,-3.3183,-3.3191,-3.3298,-3.3957,-3.4373,-3.3361,-3.3522,-3.3648,-3.2901,-3.251,-3.2269,-3.2269,-3.2308,-3.2191,-3.1923,-3.1261,-3.0587,-3.0073,-2.9947,-2.9796,-2.9406,-2.9834,-3.0285,-3.0633,-3.0445,-2.9923,-2.8994,-2.8479,-2.7455,-2.5644,-2.5759,-2.5611,-2.5083,-2.5515,-2.5986,-2.6442,-2.6171,-2.5703,-2.5083,-2.5137,-2.502,-2.4787,-2.5516,-2.6547,-1.5078,-1.645,-1.7633,-1.7874,-1.8108,-1.8235,-1.8188,-1.7938,-1.7399,-1.6293,-1.5058,-1.4456,0.0,0.0,0.0,-2.0722,-2.3474,0.0,-2.6841,-2.7752,0.0,-2.8144,0.0,-2.7285,-2.6738,-2.6299,0.0,0.0,-2.7295,-2.8276,-2.9558,-3.041,-3.0889,-3.0889,-3.0889,-3.0889,-3.0889,-3.0889,-3.0889,-3.0889,-3.0889,-3.0889,-3.0889,-3.0889,-3.0889,-3.0889,-3.0889,-3.0889,-3.0889,-3.0889,-3.0889,-3.0889,-3.1005,-3.1102,-3.1325,-3.1383,-3.1614,-3.1845,-3.2076,-3.2086,-3.2086,-3.2315,-3.2373,-3.243,-3.2612,-3.2669,-3.2737,-3.2794,-3.2804,-3.2805,-3.2586,-3.294,-3.319,-3.2469,-3.2258,-3.2083,-3.1688,-3.1094,-3.0599,-3.0599,-3.0754,-3.0724,-3.0115,-3.0147,-2.9851,-2.8646,-2.8735,-2.8979,-2.9015,-2.945,-2.9869,-3.0224,-2.9535,-2.9106,-2.9283,-2.8007,-2.678,-2.5872,-2.5516,-2.5174,-2.4669,-2.4967,-2.5263,-2.5516,-2.5306,-2.5041,-2.4648,-2.4519,-2.4411,-2.4358,-2.5073,-2.5893,-1.5971,-1.7129,-1.8053,-1.8135,-1.8198,-1.8072,-1.7491,-1.6937,-1.6113,-1.4599,-1.3262,-1.2634,-1.3399,-1.4361,0.0,0.0,0.0,0.0,-2.5726,-2.6962,-2.7734,0.0,-2.7519,0.0,-2.7305,-2.7256,-2.7393,0.0,-2.79,-2.8418,-2.9567,-3.041,-3.0889,-3.0889,-3.0889,-3.0889,-3.0889,-3.0889,-3.0986,-3.1162,-3.1162,-3.1269,-3.1455,-3.1455,-3.1455,-3.1455,0.0,-3.1455,-3.1455,-3.1455,-3.1455,-3.1455,-3.1455,-3.1564,-3.1653,-3.1456,-3.1505,-3.1651,-3.1462,-3.1392,-3.145,-3.1913,-3.219,-3.2315,-3.2487,-3.2612,-3.2669,-3.2669,-3.2669,-3.2618,-3.238,-3.2501,-3.2618,-3.1943,-3.1595,-3.133,-3.094,-3.0391,-2.9994,-2.9837,-2.9931,-2.9891,-2.9344,-2.9448,-2.9171,-2.7818,-2.8027,-2.8174,-2.779,-2.8473,-2.9095,-2.9453,-2.8869,-2.8422,-2.8331,-2.7347,-2.6256,-2.5199,-2.4859,-2.448,-2.3917,-2.4036,-2.4176,-2.4294,-2.4166,-2.4036,-2.3907,-2.3754,-2.3711,-2.3711,-2.4305,-2.5009,-1.6937,-1.753,-1.7977,-1.8199,-1.8032,-1.7552,-1.6592,-1.5896,-1.4909,-1.3089,-1.1955,-1.14,-1.184,-1.2878,-1.4525,-1.7189,0.0,-2.3423,-2.4312,-2.5819,-2.6846,-2.6846,-2.6894,-2.7129,-2.7669,-2.8144,-2.8633,-2.9062,-2.8809,-2.8935,-2.9619,-3.0439,-3.0889,-3.0889,-3.0889,-3.0889,-3.0889,-3.0889,-3.1074,-3.1435,-3.1435,-3.1631,-3.2002,-3.2002,-3.2002,-3.2002,-3.206,0.0,-3.208,-3.208,-3.208,-3.207,-3.2021,-3.2002,-3.1953,-3.1572,-3.1435,-3.1377,-3.1016,-3.0889,-3.1005,-3.1566,-3.1903,-3.219,-3.219,-3.2373,-3.2555,-3.2555,-3.2555,-3.2509,-3.2305,-3.2319,-3.22,-3.1455,-3.1115,-3.0849,-3.0349,-3.0036,-2.9774,-2.9501,-2.9501,-2.9359,-2.9055,-2.8847,-2.8317,-2.7096,-2.73,-2.7211,-2.6114,-2.72,-2.8222,-2.8451,-2.8272,-2.7785,-2.6976,-2.6687,-2.5875,-2.4366,-2.4271,-2.3939,-2.3286,-2.3266,-2.3266,-2.3266,-2.3208,-2.3179,-2.3179,-2.312,-2.312,-2.3179,-2.3616,-2.4235,-1.7393,-1.7573,-1.7619,-1.743,-1.7154,-1.6635,-1.5509,-1.425,0.0,0.0,-1.042,-0.9896,-1.0795,-1.1739,-1.3442,-1.6605,0.0,0.0,0.0,0.0,-2.5908,0.0,0.0,0.0,0.0,0.0,0.0,0.0,0.0,-3.0342,-3.0098,-3.0596,-3.0889,-3.0889,-3.0889,-3.0889,-3.0889,-3.0889,-3.0928,-3.0996,-3.0996,-3.1045,-3.1113,-3.1113,-3.1113,-3.1133,-3.1484,0.0,-3.1631,-3.1631,-3.1631,-3.1592,-3.125,-3.1113,-3.1103,-3.1025,-3.0996,-3.0986,-3.0918,-3.0889,-3.0947,-3.1276,-3.1441,-3.1556,-3.1787,-3.1903,-3.196,-3.196,-3.196,-3.1859,-3.1461,-3.1335,-3.1126,-3.0313,-3.0059,-2.9896,-2.9424,-2.929,-2.9195,-2.8887,-2.8834,-2.8694,-2.8048,-2.7604,-2.6913,-2.5635,-2.5553,-2.5367,-2.4805,-2.6486,-2.7636,-2.7494,-2.7268,-2.7105,-2.6927,-2.6451,-2.5906,-2.5315,-2.5031,-2.4695,-2.4219,-2.4153,-2.4153,-2.4153,-2.3857,-2.3682,-2.3682,-2.3276,-2.3276,-2.3682,-2.394,-2.453,-1.7589,-1.7702,-1.7675,-1.7068,-1.6466,-1.5678,-1.4355,0.0,0.0,0.0,-0.9392,-0.8998,-0.9688,-1.0676,0.0,-1.5144,0.0,0.0,0.0,0.0,0.0,0.0,0.0,0.0,0.0,0.0,0.0,0.0,0.0,-3.0791,-3.0576,-3.0771,-3.0889,-3.0889,-3.0889,-3.0889,-3.0889,-3.0889,-3.0996,-3.1211,-3.1211,-3.1338,-3.1553,-3.1553,-3.1553,-3.1562,-3.1768,0.0,-3.2168,-3.1943,-3.1982,-3.2139,-3.1719,-3.1553,-3.1533,-3.1299,-3.1211,-3.1182,-3.0967,-3.0889,-3.0947,-3.1054,-3.116,-3.1325,-3.1498,-3.1672,-3.1787,-3.1787,-3.1787,-3.1737,-3.1516,-3.1295,-3.1013,-3.059,-3.0138,-2.9675,-2.9179,-2.8983,-2.8824,-2.8727,-2.8568,-2.8392,-2.808,-2.7451,-2.6728,-2.5879,-2.5566,-2.5176,-2.4502,-2.5687,-2.6572,-2.6438,-2.6342,-2.6304,-2.6304,-2.6062,-2.573,-2.5334,-2.5163,-2.4873,-2.4434,-2.4414,-2.4414,-2.4414,-2.4219,-2.4004,-2.3789,-2.3799,-2.3799,-2.3799,-2.4104,-2.4503,-1.7749,-1.7862,-1.7776,-1.6927,-1.5952,-1.4823,-1.3347,-1.177,0.0,-0.9244,-0.8584,-0.8344,-0.8743,0.0,-1.1221,0.0,-1.6361,-1.8659,0.0,0.0,0.0,0.0,0.0,0.0,0.0,0.0,0.0,0.0,0.0,0.0,-3.0889,-3.0889,-3.0889,-3.0889,-3.0889,-3.0889,-3.0889,-3.0889,-3.1055,-3.1377,-3.1377,-3.1562,-3.1894,-3.1894,-3.1894,-3.1904,-3.1992,0.0,0.0,-3.2168,-3.2226,-3.248,-3.206,-3.1894,-3.1855,-3.1514,-3.1377,-3.1338,-3.1006,-3.0889,-3.0889,-3.0889,-3.1054,-3.1218,-3.1218,-3.1392,-3.1624,-3.1624,-3.1624,-3.1624,-3.1624,-3.1307,-3.1017,-3.0917,-3.0218,-2.9489,-2.914,-2.884,-2.8621,-2.8621,-2.8461,-2.8291,-2.8291,-2.7656,-2.7012,-2.6592,-2.6074,-2.5401,-2.4658,-2.5166,-2.5596,-2.5596,-2.5635,-2.5693,-2.5693,-2.5693,-2.5586,-2.5234,-2.5215,-2.5059,-2.467,-2.4697,-2.4697,-2.4697,-2.46,-2.4394,-2.4062,-2.4297,-2.4297,-2.4072,-2.4404,-2.4609,-1.7955,-1.7969,-1.7776,-1.6927,-1.5645,-1.4208,-1.2726,0.0,-0.9191,-0.861,-0.7993,-0.7734,-0.8194,-0.8992,-1.0333,-1.2583,-1.4574,-1.6357,0.0,0.0,0.0,0.0,0.0,0.0,0.0,0.0,0.0,0.0,0.0,0.0,-3.0889,-3.0889,-3.0889,-3.0889,-3.0889,-3.0889,-3.0889,-3.0889,-3.0908,-3.0947,-3.0947,-3.0976,-3.1006,-3.1006,-3.1006,-3.1025,-3.1416,0.0,0.0,-3.1592,-3.1601,-3.1592,-3.1172,-3.1006,-3.0996,-3.0967,-3.0947,-3.0947,-3.0898,-3.0889,-3.0889,-3.0889,-3.0889,-3.0947,-3.0947,-3.0947,-3.1005,-3.1005,-3.1005,-3.1005,-3.1005,-3.0976,-3.0839,-3.036,-2.9597,-2.8961,-2.8922,-2.8618,-2.8344,-2.8344,-2.8291,-2.8291,-2.8291,-2.791,-2.7461,-2.7021,-2.621,-2.5557,-2.5068,-2.5125,-2.5174,-2.5174,-2.5488,-2.5693,-2.5693,-2.5693,-2.5674,-2.5625,-2.5625,-2.5615,-2.5567,-2.5567,-2.5567,-2.5567,-2.5215,-2.5037,-2.4998,-2.459,-2.46,-2.4998,-2.5037,-2.5225,-1.7259,-1.7616,-1.7689,-1.6493,-1.5032,-1.352,-1.1897,-1.0067,-0.855,-0.7973,-0.7517,-0.731,-0.7709,-0.8434,-0.9548,-1.1298,-1.2998,-1.4567,-1.5944,0.0,0.0,0.0,0.0,0.0,0.0,0.0,0.0,0.0,0.0,0.0,-3.0284,-3.0713,-3.0889,-3.0889,-3.0889,-3.0889,-3.0889,-3.0889,-3.0889,-3.0889,-3.0889,-3.0889,-3.0889,-3.0889,-3.0889,-3.0898,-3.1064,0.0,0.0,-3.124,-3.1289,-3.1475,-3.1055,-3.0889,-3.0889,-3.0889,-3.0889,-3.0889,-3.0889,-3.0889,-3.0889,-3.0889,-3.0889,-3.0889,-3.0889,-3.0889,-3.0889,-3.0889,-3.0889,-3.0889,-3.0889,-3.0889,-3.0771,-3.0303,-2.9746,-2.9238,-2.8975,-2.8584,-2.8291,-2.8291,-2.8291,-2.8291,-2.8291,-2.7949,-2.766,-2.7432,-2.668,-2.5967,-2.5527,-2.5469,-2.5371,-2.5145,-2.5469,-2.5693,-2.5693,-2.5693,-2.5693,-2.5693,-2.5693,-2.5693,-2.5693,-2.5693,-2.5693,-2.5693,-2.5566,-2.5332,-2.5116,-2.5166,-2.5166,-2.5125,-2.5352,-2.5566,-1.6467,-1.7186,-1.7555,-1.6072,-1.4529,-1.2939,-1.1249,-0.9506,-0.812,-0.7598,-0.7228,-0.7066,-0.7316,-0.7923,-0.8794,-1.0016,-1.1371,-1.2727,-1.3977,-1.5069,0.0,0.0,0.0,0.0,0.0,0.0,0.0,0.0,0.0,0.0,0.0,-2.9499,-3.0039,-3.0587,-3.0587,-3.0645,-3.0762,-3.0762,-3.082,-3.0889,-3.0889,-3.0889,-3.0889,-3.0889,-3.0889,-3.0889,-3.0889,0.0,0.0,-3.1016,-3.1064,-3.1299,-3.1006,-3.0889,-3.0889,-3.0889,-3.0889,-3.0889,-3.0889,-3.0889,-3.0889,-3.0889,-3.0889,-3.0889,-3.0889,-3.0889,-3.0889,-3.0889,-3.0889,-3.0889,-3.0889,-3.0889,-3.081,-3.0478,-2.9971,-2.9482,-2.918,-2.8682,-2.8291,-2.8291,-2.8291,-2.8291,-2.8291,-2.8047,-2.7851,-2.7851,-2.7236,-2.6562,-2.6006,-2.5937,-2.5703,-2.5174,-2.5469,-2.5693,-2.5693,-2.5693,-2.5693,-2.5693,-2.5693,-2.5693,-2.5693,-2.5693,-2.5693,-2.5693,-2.5693,-2.5586,-2.5273,-2.5586,-2.5528,-2.5273,-2.5596,-2.5693,-1.581,-1.6768,-1.7235,-1.5765,-1.411,-1.2409,-1.0935,-0.9198,-0.7819,-0.7551,-0.7228,-0.7,-0.7006,-0.7499,-0.8105,-0.8724,-0.9559,-1.0604,-1.2039,-1.2762,0.0,0.0,0.0,0.0,0.0,0.0,0.0,0.0,0.0,0.0,0.0,-2.7013,-2.7924,-2.9863,-2.9922,-3.0098,-3.0382,-3.0392,-3.0577,-3.0889,-3.0889,-3.0889,-3.0889,-3.0889,-3.0889,0.0,0.0,0.0,0.0,-3.0889,-3.0889,-3.0898,-3.0889,-3.0889,-3.0889,-3.0889,-3.0889,-3.0889,-3.0889,-3.0889,-3.0889,-3.0889,-3.0889,-3.0889,-3.0889,-3.0889,-3.0889,-3.0889,-3.0889,-3.0889,-3.0889,-3.0889,-3.0889,-3.0889,-3.0215,-2.9626,-2.956,-2.8896,-2.8291,-2.8291,-2.8291,-2.8291,-2.8291,-2.8291,-2.8281,-2.8281,-2.792,-2.7344,-2.6494,-2.6387,-2.6045,-2.5204,-2.5469,-2.5693,-2.5693,-2.5693,-2.5693,-2.5693,-2.5693,-2.5693,-2.5693,-2.5693,-2.5693,-2.5693,-2.5693,-2.5693,-2.5684,-2.5693,-2.5693,-2.5684,-2.5693,-2.5693,-1.3417,-1.4523,-1.5158,-1.4078,-1.2707,-1.124,-0.9995,-0.8554,-0.7422,-0.7154,-0.7052,-0.7,-0.7,-0.7341,-0.7832,-0.8435,-0.9078,-1.0,0.0,0.0,0.0,0.0,0.0,0.0,0.0,0.0,0.0,0.0,0.0,0.0,0.0,-2.6363,-2.6848,-2.7864,-2.8343,-2.8879,-2.9344,-2.9853,-3.0343,-3.0889,-3.0889,-3.0889,-3.0889,-3.0889,-3.0889,0.0,0.0,0.0,0.0,-3.0889,-3.0889,-3.0889,-3.0889,-3.0889,-3.0889,-3.0889,-3.0889,-3.0889,-3.0889,-3.0889,-3.0889,-3.0889,-3.0889,-3.0889,-3.0889,-3.0889,-3.0889,-3.0889,-3.0889,-3.0889,-3.0889,-3.0889,-3.0889,-3.0889,-3.0215,-2.9626,-2.9626,-2.8896,-2.8291,-2.8291,-2.8291,-2.8291,-2.8291,-2.813,-2.8014,-2.8014,-2.7506,-2.6879,-2.6314,-2.5989,-2.5647,-2.5286,-2.5353,-2.5489,-2.5684,-2.5693,-2.5693,-2.5693,-2.5693,-2.5693,-2.5693,-2.5693,-2.5693,-2.5693,-2.5693,-2.5693,-2.5693,-2.5693,-2.5693,-2.5693,-2.5693,-2.5693,-1.0886,-1.2186,-1.2872,-1.1955,-1.089,-0.9822,-0.8785,-0.7816,-0.7049,-0.686,-0.6922,-0.7,-0.7,-0.7268,-0.7651,-0.8123,-0.8604,-0.9437,0.0,0.0,0.0,0.0,0.0,0.0,0.0,0.0,0.0,0.0,0.0,0.0,0.0,-2.471,-2.4949,-2.5301,-2.671,-2.7796,-2.8564,-2.9126,-2.9745,-3.0528,-3.0528,-3.0528,-3.0528,-3.0528,-3.0528,0.0,0.0,0.0,0.0,-3.0528,-3.0528,-3.0528,-3.0528,-3.0528,-3.0528,-3.0528,-3.0528,-3.0528,-3.0528,-3.0587,-3.0704,-3.0704,-3.082,-3.0889,-3.0889,-3.0889,-3.0889,-3.0889,-3.0889,-3.0889,-3.0889,-3.0889,-3.0889,-3.0889,-3.0215,-2.9626,-2.9626,-2.8896,-2.8291,-2.8291,-2.8291,-2.8291,-2.8291,-2.8067,-2.7799,-2.7413,-2.6873,-2.6234,-2.5329,-2.5157,-2.5043,-2.4881,-2.503,-2.5284,-2.5693,-2.5693,-2.5693,-2.5693,-2.5693,-2.5693,-2.5693,-2.5693,-2.5693,-2.5693,-2.5693,-2.5693,-2.5693,-2.5693,-2.5693,-2.5693,-2.5693,-2.5693,0.0,-0.9759,-1.0553,-0.9542,-0.8856,-0.8262,-0.7411,-0.6978,0.0,-0.667,-0.6831,-0.7006,-0.7006,-0.7268,-0.7598,-0.7885,-0.823,0.0,0.0,0.0,0.0,0.0,0.0,0.0,0.0,0.0,0.0,0.0,0.0,0.0,0.0,-2.2425,-2.2613,-2.2606,-2.4949,-2.6727,-2.7796,-2.8173,-2.8778,-2.9686,-2.9686,-2.9686,-2.9686,-2.9686,-2.9686,0.0,0.0,0.0,0.0,-2.9686,-2.9686,-2.9686,-2.9686,-2.9686,-2.9686,-2.9686,-2.9686,-2.9686,-2.9745,-2.9981,-3.0323,-3.0382,-3.0635,-3.0889,-3.0889,-3.0889,-3.0889,-3.0889,-3.0889,-3.0889,-3.0889,-3.083,-3.083,-3.083,-3.0158,-2.9514,-2.9514,-2.8842,-2.8237,-2.8237,-2.8237,-2.8237,-2.8237,-2.797,-2.7466,-2.6581,-2.62,-2.536,-2.3761,-2.3991,-2.4232,-2.408,-2.452,-2.5049,-2.5684,-2.5713,-2.5693,-2.5693,-2.5693,-2.5693,-2.5693,-2.5693,-2.5693,-2.5693,-2.5693,-2.5693,-2.5693,-2.5693,-2.5693,-2.5693,-2.5693,-2.5693,-0.5637,0.0,-0.8598,-0.8135,-0.7624,-0.71,0.0,-0.6354,-0.6212,-0.6303,-0.6632,-0.6935,-0.6935,-0.7253,-0.7665,-0.8208,-0.8704,-0.9704,0.0,0.0,0.0,0.0,0.0,0.0,0.0,0.0,0.0,0.0,0.0,0.0,0.0,-2.2174,-2.2362,-2.2606,-2.341,-2.4525,-2.5737,-2.6294,-2.6961,-2.7684,-2.7684,-2.7684,-2.7684,-2.7684,-2.7684,0.0,0.0,0.0,-2.7684,-2.7684,-2.7684,-2.7684,-2.7684,-2.7684,-2.7684,-2.7684,-2.7684,-2.7744,-2.8283,-2.882,-2.9412,-3.046,-3.083,-3.0889,-3.0889,-3.0889,-3.0889,-3.0889,-3.0704,-3.0509,-3.0509,-3.0343,-3.0167,-3.0167,-2.9508,-2.8888,-2.8888,-2.8239,-2.7593,-2.7593,-2.7593,-2.7593,-2.7593,-2.6999,-2.6391,-2.5953,-2.5212,-2.4323,-2.3156,-2.3269,-2.3461,-2.35,-2.3777,-2.4511,-2.5804,-2.5781,-2.5693,-2.5693,-2.5693,-2.5693,-2.5693,-2.5693,-2.5693,-2.5693,-2.5693,-2.5693,-2.5693,-2.5693,-2.5693,-2.5693,-2.5693,-2.5693,-0.4735,-0.5726,-0.663,-0.6492,-0.6166,-0.5845,-0.5697,-0.5593,-0.562,-0.5911,0.0,-0.6713,-0.6939,-0.728,-0.7779,-0.8631,-0.9152,0.0,0.0,0.0,0.0,0.0,0.0,0.0,0.0,0.0,0.0,0.0,0.0,0.0,0.0,-2.1796,-2.1922,-2.2111,-2.248,-2.3355,-2.4841,-2.5325,-2.5928,-2.6606,-2.6606,-2.6606,-2.6606,-2.6606,-2.6606,0.0,0.0,0.0,-2.6606,-2.6606,-2.6606,-2.6606,-2.6606,-2.6606,-2.6606,-2.6606,-2.6606,-2.6667,-2.7142,-2.7924,-2.8879,-3.0049,-3.047,-3.047,-3.047,-3.047,-3.0528,-3.083,-3.0645,-3.0265,-2.9835,-2.949,-2.9144,-2.865,-2.7966,-2.7434,-2.7434,-2.6752,-2.6182,-2.6182,-2.6182,-2.6182,-2.6182,-2.5652,-2.511,-2.4556,-2.388,-2.2998,-2.1767,-2.2003,-2.2201,-2.219,-2.2925,-2.3978,-2.5336,-2.5729,-2.5932,-2.5996,-2.5801,-2.5693,-2.5693,-2.5693,-2.5693,-2.5693,-2.5693,-2.5693,-2.5693,-2.5693,-2.5693,-2.5693,-2.5693,-2.5693,-0.4686,-0.4892,-0.5056,-0.5161,-0.508,-0.4998,-0.5083,-0.519,-0.5353,0.0,0.0,0.0,-0.7152,-0.756,0.0,0.0,0.0,0.0,0.0,0.0,0.0,0.0,0.0,0.0,0.0,0.0,0.0,0.0,0.0,0.0,0.0,-2.1227,-2.1408,-2.1471,-2.1721,-2.2587,-2.4078,-2.4471,-2.4949,-2.5517,-2.5517,-2.5517,-2.5517,-2.5517,-2.5517,-2.5517,0.0,0.0,-2.5517,-2.5517,-2.5578,-2.5578,-2.5639,-2.5639,-2.5639,-2.5639,-2.5639,-2.57,-2.6128,-2.709,-2.8301,-2.9144,-2.944,-2.944,-2.944,-2.944,-2.9558,-3.0157,-3.0216,-2.9903,-2.8989,-2.8462,-2.7993,-2.7082,-2.6312,-2.575,-2.575,-2.5153,-2.4569,-2.4569,-2.4569,-2.4569,-2.4569,-2.43,-2.3815,-2.303,-2.258,-2.1856,-2.0439,-2.0696,-2.101,-2.0933,-2.2158,-2.3461,-2.472,-2.5596,-2.6203,-2.6551,-2.6113,-2.5762,-2.5693,-2.5693,-2.5693,-2.5693,-2.5693,-2.5693,-2.5693,-2.5693,-2.5693,-2.5693,-2.5693,-2.5693,-0.4497,-0.4659,-0.4803,-0.5391,-0.5635,-0.5788,-0.6023,-0.6221,-0.6413,0.0,0.0,0.0,0.0,-0.8679,0.0,0.0,0.0,0.0,0.0,0.0,0.0,0.0,0.0,0.0,0.0,0.0,0.0,0.0,0.0,0.0,-2.0368,-2.0368,-2.0551,-2.0848,-2.0909,-2.1152,-2.1697,-2.2279,-2.2606,-2.2731,-2.2731,-2.2731,-2.2731,-2.2731,-2.2731,-2.2731,0.0,-2.2731,-2.2731,-2.3043,-2.3168,-2.3168,-2.3479,-2.3542,-2.3542,-2.3542,-2.3542,-2.372,-2.4887,-2.5806,-2.6476,-2.7203,-2.7444,-2.7444,-2.7444,-2.7444,-2.7495,-2.7555,-2.8173,-2.8719,-2.8224,-2.7504,-2.6736,-2.6311,-2.5676,-2.5128,-2.5128,-2.4554,-2.4039,-2.4039,-2.4039,-2.4039,-2.4039,-2.3592,-2.303,-2.2636,-2.215,-2.1526,-2.0754,-2.0674,-2.0779,-2.0965,-2.1856,-2.3107,-2.4844,-2.5463,-2.6253,-2.7451,-2.6728,-2.6123,-2.5703,-2.5693,-2.5693,-2.5693,-2.5693,-2.5693,-2.5693,-2.5693,-2.5693,-2.5693,-2.5693,-2.5693,-0.4384,-0.4544,-0.4799,-0.5652,-0.6132,-0.6496,-0.6919,-0.7263,-0.7538,0.0,0.0,0.0,0.0,0.0,0.0,0.0,0.0,0.0,0.0,0.0,0.0,0.0,0.0,0.0,0.0,0.0,0.0,0.0,0.0,0.0,-2.0167,-2.0173,-2.0295,-2.0409,-2.0409,-2.047,-2.0651,-2.0924,-2.1328,-2.1866,-2.2027,-2.2111,-2.2111,-2.2111,-2.2111,-2.2111,0.0,-2.2111,-2.2111,-2.2299,-2.2425,-2.2606,-2.2793,-2.2918,-2.3106,-2.3106,-2.323,-2.3479,-2.4471,-2.5141,-2.5623,-2.6302,-2.6485,-2.6485,-2.6485,-2.6485,-2.6485,-2.6485,-2.6961,-2.7254,-2.6581,-2.5937,-2.5341,-2.4656,-2.3952,-2.3515,-2.3515,-2.2921,-2.2433,-2.2433,-2.2433,-2.2433,-2.2433,-2.2207,-2.1987,-2.1809,-2.1596,-2.1264,-2.0764,-2.07,-2.0577,-2.0385,-2.1614,-2.2938,-2.4228,-2.5474,-2.6529,-2.7282,-2.6943,-2.6533,-2.6103,-2.6084,-2.5977,-2.5693,-2.5693,-2.5693,-2.5693,-2.5693,-2.5693,-2.5693,-2.5977,-2.6084,-0.4276,-0.4462,-0.4807,-0.5814,-0.6468,-0.707,-0.7782,-0.8365,-0.876,-0.8807,0.0,0.0,0.0,0.0,0.0,0.0,0.0,0.0,0.0,0.0,0.0,0.0,0.0,0.0,0.0,0.0,0.0,0.0,0.0,0.0,-2.002,-2.0034,-2.0034,-2.0034,-2.0034,-2.0034,-2.0034,-2.0094,-2.0551,-2.1478,-2.1645,-2.179,-2.1859,-2.1859,-2.1859,-2.1859,-2.1859,-2.1859,-2.1859,-2.1922,-2.2111,-2.2362,-2.2543,-2.2793,-2.3106,-2.3106,-2.3238,-2.3549,-2.4046,-2.4409,-2.471,-2.5202,-2.5394,-2.5394,-2.5394,-2.5394,-2.5394,-2.5394,-2.5562,-2.5607,-2.5133,-2.4656,-2.417,-2.3293,-2.2689,-2.2264,-2.2198,-2.173,-2.1306,-2.1225,-2.1211,-2.1211,-2.1211,-2.1211,-2.1211,-2.1211,-2.1211,-2.1123,-2.0867,-2.0706,-2.042,-1.9923,-2.1271,-2.2676,-2.3998,-2.5757,-2.688,-2.7095,-2.7017,-2.6875,-2.6543,-2.6435,-2.623,-2.5849,-2.5742,-2.5693,-2.5693,-2.5693,-2.5742,-2.5849,-2.623,-2.6435,-0.4151,-0.4365,-0.4725,-0.5672,-0.6554,-0.7476,-0.8633,-0.9484,-1.0169,-1.0543,0.0,0.0,0.0,0.0,0.0,0.0,0.0,0.0,0.0,0.0,0.0,0.0,0.0,0.0,0.0,0.0,0.0,0.0,0.0,0.0,-1.9491,-1.9491,-1.9491,-1.9491,-1.9491,-1.9491,-1.9491,-1.9693,-2.0181,-2.0799,-2.0819,-2.0911,-2.1172,-2.1172,-2.1172,-2.1172,-2.1172,-2.1172,-2.1172,-2.1488,-2.167,-2.1734,-2.2362,-2.2793,-2.3106,-2.3106,-2.3106,-2.3168,-2.3168,-2.323,-2.323,-2.3293,-2.3293,-2.3293,-2.3293,-2.3293,-2.3293,-2.3293,-2.3355,-2.3542,-2.4417,-2.417,-2.3611,-2.3168,-2.2842,-2.2513,-2.2242,-2.1906,-2.1569,-2.1269,-2.1211,-2.1211,-2.1211,-2.1211,-2.1211,-2.1211,-2.1211,-2.1203,-2.1181,-2.0647,-2.0197,-2.0154,-2.0773,-2.2229,-2.4809,-2.6459,-2.7349,-2.7346,-2.7139,-2.7002,-2.6973,-2.6592,-2.6377,-2.6338,-2.5947,-2.5693,-2.5693,-2.5693,-2.5947,-2.6338,-2.6377,-2.6602,-0.3953,-0.4286,-0.4746,-0.5524,-0.6363,-0.7431,-0.9063,-1.0383,-1.1484,-1.2214,-1.2726,0.0,0.0,0.0,0.0,0.0,0.0,0.0,0.0,0.0,0.0,0.0,0.0,0.0,0.0,0.0,0.0,0.0,0.0,0.0,0.0,-1.9424,-1.9424,-1.9424,-1.9424,-1.9424,-1.9424,-1.9472,-1.9733,-2.0134,-2.0314,-2.0454,-2.0568,-2.0568,-2.0568,-2.0568,-2.0568,-2.0568,-2.0575,-2.0886,-2.1147,-2.1417,-2.2284,-2.2675,-2.2793,-2.3043,-2.3106,-2.3106,-2.3106,-2.3106,-2.3106,-2.3106,-2.3106,-2.3106,-2.3106,-2.3106,-2.3106,-2.3106,-2.3106,-2.3168,-2.3549,-2.3487,-2.3238,-2.3113,-2.2857,-2.2593,-2.2476,-2.2052,-2.1657,-2.154,-2.135,-2.1211,-2.1211,-2.1211,-2.1211,-2.1211,-2.1211,-2.1211,-2.1211,-2.0815,-2.0402,-2.0205,-2.1079,-2.2309,-2.3883,-2.5077,-2.5908,-2.6245,-2.711,-2.7424,-2.7153,-2.7153,-2.7051,-2.6787,-2.6621,-2.6533,-2.6533,-2.6533,-2.6621,-2.6787,-2.7051,-2.7266,-0.4017,-0.436,-0.4829,-0.5449,-0.619,-0.7214,-0.899,-1.0745,-1.2273,-1.316,-1.3751,-1.3889,-1.304,0.0,0.0,0.0,0.0,0.0,0.0,0.0,0.0,0.0,0.0,0.0,0.0,0.0,0.0,0.0,0.0,0.0,0.0,-1.9424,-1.9424,-1.9424,-1.9424,-1.9424,-1.9424,-1.9424,-1.9466,-1.9666,-1.9867,-2.0054,-2.0173,-2.0173,-2.0173,-2.0173,-2.0173,-2.0173,-2.0247,-2.0454,-2.0773,-2.1259,-2.1992,-2.2362,-2.248,-2.2668,-2.2801,-2.2801,-2.2801,-2.2801,-2.2801,-2.2801,-2.2801,-2.2801,-2.2801,-2.2801,-2.2801,-2.2801,-2.2801,-2.2801,-2.2801,-2.2918,-2.3106,-2.3106,-2.2937,-2.2747,-2.2645,-2.2213,-2.1818,-2.1715,-2.143,-2.1211,-2.1211,-2.1211,-2.1211,-2.1211,-2.1211,-2.1211,-2.1211,-2.0837,-2.0406,-2.0082,-2.1071,-2.2031,-2.2756,-2.3628,-2.4381,-2.5003,-2.628,-2.7094,-2.7261,-2.7515,-2.7529,-2.7226,-2.709,-2.7012,-2.7012,-2.7012,-2.709,-2.7226,-2.7529,-2.7787,-0.4357,-0.4656,-0.5002,-0.5498,0.0,-0.683,-0.8442,-1.0543,-1.2429,-1.3333,-1.3871,-1.4065,-1.3568,0.0,0.0,0.0,0.0,0.0,0.0,0.0,0.0,0.0,0.0,0.0,0.0,0.0,0.0,0.0,0.0,0.0,0.0,-1.9424,-1.9424,-1.9424,-1.9424,-1.9424,-1.9424,-1.9424,-1.9424,-1.9424,-1.9424,-1.9666,-2.0167,-2.0167,-2.0167,-2.0167,-2.0167,-2.0167,-2.0167,-2.0227,-2.0584,-2.119,-2.1484,-2.179,-2.2104,-2.2104,-2.2104,-2.2111,-2.2111,-2.2111,-2.2111,-2.2111,-2.2111,-2.2111,-2.2111,-2.2111,-2.2111,-2.2111,-2.2111,-2.2111,-2.2111,-2.2606,-2.3106,-2.3106,-2.3106,-2.3025,-2.2696,-2.2396,-2.2089,-2.1767,-2.1437,-2.1211,-2.1211,-2.1211,-2.1211,-2.1211,-2.1211,-2.1211,-2.1203,-2.064,-2.0097,-1.9754,-2.0548,-2.1223,-2.1486,-2.2319,-2.3153,-2.3808,-2.4708,-2.5864,-2.7305,-2.7574,-2.7676,-2.7676,-2.7246,-2.698,-2.698,-2.698,-2.7246,-2.7676,-2.7718,-2.7891,-0.4373,-0.4772,0.0,-0.5868,0.0,0.0,0.0,-1.0184,-1.175,0.0,-1.392,-1.3802,-1.3326,0.0,0.0,0.0,0.0,0.0,0.0,0.0,0.0,0.0,0.0,0.0,0.0,0.0,0.0,0.0,0.0,0.0,0.0,-1.9424,-1.9424,-1.9424,-1.9424,-1.9424,-1.9424,-1.9424,-1.9424,-1.9424,-1.9424,-1.9459,-1.9626,-1.9626,-1.9626,-1.9626,-1.9626,-1.9626,-1.9639,-1.9846,-2.0161,-2.0551,-2.0822,-2.117,-2.1486,-2.1727,-2.1922,-2.2111,-2.2111,-2.2111,-2.2111,-2.2111,-2.2111,-2.2111,-2.2111,-2.2111,-2.2111,-2.2111,-2.2111,-2.2111,-2.2111,-2.2237,-2.2425,-2.2425,-2.2425,-2.2396,-2.2242,-2.2054,-2.1833,-2.1732,-2.1402,-2.1284,-2.1511,-2.1364,-2.1284,-2.1518,-2.1357,-2.113,-2.0896,-2.0446,-2.0077,-1.9819,-2.0022,-2.0234,-2.0287,-2.0741,-2.1294,-2.1884,-2.2814,-2.4267,-2.6373,-2.7147,-2.7466,-2.7466,-2.7342,-2.7275,-2.7275,-2.7275,-2.7342,-2.7519,-2.7723,-2.7898,-0.4597,-0.51,0.0,-0.6347,-0.7098,-0.8008,-0.937,0.0,0.0,0.0,0.0,-1.3526,-1.3292,0.0,0.0,0.0,0.0,0.0,0.0,0.0,0.0,0.0,0.0,0.0,0.0,0.0,0.0,0.0,0.0,0.0,0.0,-1.9424,-1.9424,-1.9424,-1.9424,-1.9424,-1.9424,-1.9424,-1.9424,-1.9424,-1.9424,-1.9424,-1.9424,-1.9424,-1.9424,-1.9424,-1.9424,-1.9424,-1.945,-1.9679,-1.9907,-2.0074,-2.0369,-2.0645,-2.0815,-2.1183,-2.1403,-2.1575,-2.1692,-2.167,-2.167,-2.167,-2.167,-2.167,-2.167,-2.167,-2.167,-2.167,-2.167,-2.167,-2.167,-2.167,-2.1796,-2.2048,-2.2111,-2.2076,-2.1957,-2.1728,-2.1512,-2.1503,-2.1256,-2.1089,-2.1467,-2.1342,-2.1276,-2.1474,-2.1335,-2.1094,-2.0764,-2.0387,-2.0113,-1.9852,-1.9698,-1.9625,-1.9625,-1.9747,-2.0123,-2.068,-2.1635,-2.2911,-2.4602,-2.5736,-2.63,-2.63,-2.63,-2.63,-2.63,-2.63,-2.6472,-2.6699,-2.7133,-2.7466,-0.4931,-0.5498,0.0,-0.6857,-0.7763,0.0,-1.0076,-1.1238,-1.22,-1.2925,0.0,-1.3199,0.0,0.0,0.0,0.0,0.0,0.0,0.0,0.0,0.0,0.0,0.0,0.0,0.0,0.0,0.0,0.0,0.0,0.0,0.0,-1.9424,-1.9424,-1.9424,-1.9424,-1.9424,-1.9424,-1.9424,-1.9424,-1.9424,-1.9424,-1.9424,-1.9424,-1.9424,-1.9424,-1.9424,-1.9424,-1.9424,-1.945,-1.9653,-1.976,-1.9786,-2.0054,-2.0113,-2.0227,-2.0494,-2.0615,-2.0675,-2.0935,-2.1029,-2.1029,-2.1029,-2.1029,-2.1029,-2.1029,-2.1029,-2.1029,-2.1029,-2.1029,-2.1029,-2.1029,-2.1049,-2.1195,-2.1818,-2.1943,-2.1929,-2.165,-2.1329,-2.1128,-2.1135,-2.088,-2.0788,-2.1125,-2.1118,-2.1146,-2.1146,-2.1146,-2.1044,-2.0801,-2.0431,-2.0157,-1.9896,-1.9513,-1.9308,-1.9279,-1.9279,-1.9553,-2.006,-2.0949,-2.1729,-2.2261,-2.3814,-2.4616,-2.4616,-2.4616,-2.4616,-2.4616,-2.4616,-2.4893,-2.5516,-2.6136,-2.6754,-0.48,-0.559,0.0,0.0,-0.8467,-0.9701,-1.0245,-1.07,-1.1025,-1.1227,0.0,0.0,0.0,0.0,0.0,0.0,0.0,0.0,0.0,0.0,0.0,0.0,0.0,0.0,0.0,0.0,0.0,0.0,0.0,0.0,-1.9366,-1.9424,-1.9424,-1.9424,-1.9424,-1.9424,-1.9424,-1.9424,-1.9424,0.0,-1.9424,-1.9424,-1.9424,-1.9424,-1.9424,-1.9424,-1.9424,-1.9424,-1.943,-1.9432,-1.9459,-1.9466,-1.9533,-1.9693,-1.99,-1.9967,-2.0134,-2.0334,-2.0401,-2.036,-2.036,-2.036,-2.036,-2.036,-2.036,-2.036,-2.036,-2.036,-2.036,-2.036,-2.036,-2.0595,-2.0831,-2.0955,-2.1017,-2.0997,-2.0936,-2.0685,-2.0461,-2.051,-2.0429,-2.0463,-2.0833,-2.067,-2.0558,-2.078,-2.078,-2.0881,-2.1051,-2.0823,-2.0494,-2.0172,-1.985,-1.961,-1.9294,-1.9279,-1.936,-1.9479,-2.013,-2.054,-2.0716,-2.287,-2.4094,-2.4094,-2.4094,-2.4094,-2.4094,-2.4094,-2.4261,-2.4595,-2.5441,-2.6063,-0.4565,0.0,0.0,-0.7759,0.0,-0.9981,-1.0298,-1.0566,-1.0692,0.0,0.0,0.0,0.0,0.0,0.0,0.0,0.0,0.0,0.0,0.0,0.0,0.0,0.0,0.0,0.0,0.0,0.0,0.0,0.0,-1.8141,-1.8945,-1.9078,-1.9158,-1.9158,-1.9292,-1.9424,-1.9424,-1.9424,-1.9424,-1.9424,-1.9424,-1.9424,-1.9424,-1.9424,-1.9424,-1.9424,-1.9424,-1.9424,-1.9424,-1.9424,-1.9424,-1.9424,-1.9424,-1.9459,-1.9606,-1.9746,-1.99,-2.0047,-2.0187,-2.0173,-2.0173,-2.0173,-2.0173,-2.0173,-2.0173,-2.0173,-2.0173,-2.0173,-2.0173,-2.0173,-2.0173,-2.0347,-2.0501,-2.0641,-2.0675,-2.0635,-2.0494,-2.0234,-2.0049,-2.0075,-2.0034,-2.0153,-2.0487,-2.044,-2.0328,-2.0493,-2.0608,-2.078,-2.096,-2.0805,-2.0655,-2.0431,-2.0179,-1.9857,-1.9588,-1.9558,-1.9492,-1.9286,-1.974,-2.0077,-2.0176,-2.1582,-2.2431,-2.2595,-2.2603,-2.2603,-2.2603,-2.2603,-2.2829,-2.3271,-2.4055,-2.4667,-0.4244,0.0,-0.6634,-0.8308,-0.9271,0.0,-1.029,-1.0546,0.0,0.0,0.0,0.0,0.0,0.0,0.0,0.0,0.0,0.0,0.0,0.0,0.0,0.0,0.0,0.0,0.0,0.0,0.0,0.0,0.0,-1.7533,-1.8435,-1.8718,-1.8871,-1.8925,-1.9165,-1.9319,-1.9424,-1.9424,-1.9424,-1.9424,-1.9424,-1.9424,-1.9424,-1.9424,-1.9424,-1.9424,-1.9424,-1.9424,-1.9424,-1.9424,-1.9424,-1.9424,-1.9424,-1.9424,-1.9457,-1.9639,-1.9726,-1.976,-2.0,-2.0087,-2.0087,-2.0087,-2.0087,-2.0087,-2.0087,-2.0087,-2.0087,-2.0087,-2.0087,-2.0087,-2.0087,-2.0154,-2.0294,-2.0541,-2.0641,-2.0595,-2.0294,-1.9967,-1.9712,-1.9754,-1.9758,-1.9815,-2.0104,-2.0162,-2.0162,-2.022,-2.0378,-2.0551,-2.0608,-2.0665,-2.069,-2.0696,-2.0499,-2.0278,-1.9959,-1.9879,-1.9703,-1.9434,-1.9669,-1.9908,-2.0168,-2.0489,-2.0874,-2.1203,-2.1211,-2.1211,-2.1211,-2.1211,-2.1489,-2.2059,-2.2652,-2.3199,-0.3764,0.0,-0.7116,0.0,-0.9087,-0.9551,0.0,0.0,0.0,0.0,0.0,0.0,0.0,0.0,0.0,0.0,0.0,0.0,0.0,0.0,0.0,0.0,0.0,0.0,0.0,0.0,0.0,0.0,-1.6104,-1.7297,-1.8435,-1.8524,-1.8664,-1.8918,-1.8958,-1.9105,-1.9424,-1.9424,-1.9424,-1.9424,-1.9424,-1.9424,-1.9424,-1.9424,-1.9424,-1.9424,-1.9424,-1.9424,-1.9424,-1.9424,-1.9424,-1.9424,-1.9424,-1.9424,-1.943,-1.947,-1.9426,-1.9432,-1.9466,-1.9486,-1.9486,-1.9486,-1.9486,-1.9486,-1.9486,-1.9486,-1.9486,-1.9486,-1.9486,-1.9486,-1.9486,-1.986,-2.018,-2.0281,-2.0488,-2.0595,-2.0294,-1.9806,-1.947,-1.943,-1.9424,-1.9482,-1.954,-1.954,-1.9591,-1.9815,-1.9931,-2.004,-2.0328,-2.0582,-2.0676,-2.0687,-2.0945,-2.091,-2.0591,-2.0333,-2.004,-1.9771,-1.9793,-1.9908,-2.0168,-2.0489,-2.0874,-2.1203,-2.1211,-2.1211,-2.1211,-2.1211,-2.1382,-2.1782,-2.2312,-2.2749,-0.3866,-0.5438,-0.6885,0.0,-0.8663,-0.9164,-0.959,0.0,0.0,0.0,0.0,0.0,0.0,0.0,0.0,0.0,0.0,0.0,0.0,0.0,0.0,0.0,0.0,0.0,0.0,0.0,0.0,0.0,-1.4966,-1.6017,-1.7178,-1.7441,-1.7747,-1.8141,-1.8361,-1.8569,-1.8871,-1.8878,-1.8958,-1.9118,-1.9118,-1.9205,-1.9424,-1.9424,-1.9424,-1.9424,-1.9424,-1.9424,-1.9424,-1.9424,-1.9424,-1.9424,-1.9424,-1.9424,-1.9424,-1.9424,-1.9424,-1.9424,-1.9424,-1.9424,-1.9424,-1.9424,-1.9424,-1.9424,-1.9424,-1.9424,-1.9457,-1.9566,-1.9606,-1.9646,-1.9813,-2.004,-2.0274,-2.0441,-2.0454,-2.0434,-2.0474,-2.002,-1.9559,-1.9457,-1.9424,-1.9424,-1.9424,-1.9424,-1.9424,-1.9533,-1.97,-1.9873,-1.9989,-2.0419,-2.0669,-2.0711,-2.1163,-2.1283,-2.0765,-2.0754,-2.0567,-2.0062,-2.0025,-2.0172,-2.0494,-2.0647,-2.0874,-2.1203,-2.1211,-2.1211,-2.1211,-2.1211,-2.1268,-2.1439,-2.1645,-2.1866,-0.378,-0.502,-0.6069,-0.7108,-0.7818,-0.8336,0.0,0.0,0.0,0.0,0.0,0.0,0.0,0.0,0.0,0.0,0.0,0.0,0.0,0.0,0.0,0.0,0.0,0.0,0.0,0.0,0.0,0.0,-1.3673,-1.4595,-1.5613,-1.6072,-1.6652,-1.7258,-1.7641,-1.8072,-1.849,-1.849,-1.8597,-1.8818,-1.8885,-1.9038,-1.9259,-1.9332,-1.9424,-1.9424,-1.9424,-1.9424,-1.9424,-1.9424,-1.9424,-1.9424,-1.9424,-1.9424,-1.9424,-1.9424,-1.9424,-1.9424,-1.9424,-1.9424,-1.9424,-1.9424,-1.9366,-1.9243,-1.9243,-1.9185,-1.9251,-1.9595,-1.9615,-1.9628,-1.9979,-2.0051,-2.0163,-2.0381,-2.0321,-2.0235,-2.0548,-2.0221,-1.9846,-1.9633,-1.9586,-1.9586,-1.9586,-1.9586,-1.9586,-1.9586,-1.9755,-1.9924,-1.9924,-2.036,-2.0725,-2.0844,-2.1357,-2.1509,-2.1087,-2.1205,-2.1096,-2.0584,-2.0475,-2.057,-2.0955,-2.0969,-2.1086,-2.1328,-2.1335,-2.1291,-2.1211,-2.1211,-2.1211,-2.1211,-2.1211,-2.1211,-0.3099,-0.3792,-0.4542,-0.586,-0.6311,0.0,0.0,0.0,0.0,0.0,0.0,0.0,0.0,0.0,0.0,0.0,0.0,0.0,0.0,0.0,0.0,0.0,0.0,0.0,0.0,0.0,0.0,0.0,-1.2472,-1.3231,-1.3809,-1.4643,-1.5516,-1.6357,-1.6938,-1.7644,-1.8484,-1.849,-1.8497,-1.8517,-1.8791,-1.8931,-1.8958,-1.9239,-1.9424,-1.9424,-1.9424,-1.9424,-1.9424,-1.9424,-1.9424,-1.9424,-1.9424,-1.9424,-1.9424,-1.9424,-1.9424,-1.9424,-1.9424,-1.9424,-1.9424,-1.9424,-1.9185,-1.8933,-1.8933,-1.8706,-1.8596,-1.9161,-1.9126,-1.8958,-1.9555,-1.9717,-1.9743,-1.9755,-1.9947,-2.0111,-2.0191,-2.0173,-2.0207,-2.0187,-2.0187,-2.0187,-2.0187,-2.0187,-2.0187,-2.0187,-2.0187,-2.0187,-2.0187,-2.0509,-2.0813,-2.1122,-2.1444,-2.1742,-2.2029,-2.179,-2.1667,-2.1642,-2.1328,-2.1306,-2.1635,-2.165,-2.165,-2.1672,-2.1672,-2.1518,-2.1211,-2.1211,-2.1211,-2.1211,-2.1211,-2.1211,-0.2286,-0.2925,0.0,-0.4486,-0.5123,0.0,0.0,0.0,0.0,0.0,0.0,0.0,0.0,0.0,0.0,0.0,0.0,0.0,0.0,0.0,0.0,0.0,0.0,0.0,0.0,0.0,0.0,0.0,0.0,-1.2096,-1.2847,-1.3393,-1.4137,-1.5204,-1.5593,-1.6186,-1.7054,-1.7264,-1.7462,-1.7644,-1.7741,-1.7987,-1.8356,-1.846,-1.8603,-1.8771,-1.8771,-1.901,-1.9424,-1.9424,-1.9424,-1.9424,-1.9424,-1.9424,-1.9424,-1.9424,-1.9424,-1.9424,-1.9424,-1.9424,-1.9424,-1.9424,-1.9185,-1.8816,-1.8163,-1.8052,-1.8146,-1.8528,-1.8726,-1.8844,-1.9156,-1.9096,-1.8858,-1.8655,-1.8982,-1.9509,-2.0015,-2.0187,-2.0173,-2.0173,-2.0173,-2.0173,-2.0173,-2.0173,-2.0173,-2.0173,-2.0173,-2.0173,-2.0173,-2.0494,-2.0737,-2.0861,-2.1305,-2.1547,-2.1485,-2.1782,-2.19,-2.1711,-2.1773,-2.1891,-2.2008,-2.2008,-2.1913,-2.1701,-2.1693,-2.1533,-2.1211,-2.1211,-2.1211,-2.1211,-2.1211,-2.1211,-0.1675,-0.2151,0.0,0.0,0.0,0.0,0.0,0.0,0.0,0.0,0.0,0.0,0.0,0.0,0.0,0.0,0.0,0.0,0.0,0.0,0.0,0.0,0.0,0.0,0.0,0.0,0.0,0.0,0.0,0.0,-1.1332,-1.1878,-1.2753,-1.4002,-1.4379,-1.4857,-1.5559,-1.5761,-1.5952,-1.6187,-1.6278,-1.6508,-1.6865,-1.7047,-1.7165,-1.7334,-1.743,-1.8064,-1.9068,-1.9068,-1.9068,-1.9068,-1.9068,-1.9068,-1.9068,-1.9068,-1.9068,-1.9068,-1.9068,-1.9068,-1.9068,-1.9068,-1.8706,-1.811,-1.7396,-1.7162,-1.7333,-1.7881,-1.8016,-1.8132,-1.8552,-1.8145,-1.763,-1.7496,-1.808,-1.8856,-1.9437,-2.0039,-2.0528,-2.0528,-2.0528,-2.0528,-2.0528,-2.0528,-2.0528,-2.0528,-2.0528,-2.0528,-2.0528,-2.0702,-2.0822,-2.0822,-2.1177,-2.14,-2.1265,-2.1679,-2.1959,-2.1997,-2.218,-2.2369,-2.2491,-2.2491,-2.2337,-2.2015,-2.2008,-2.1796,-2.1372,-2.1262,-2.1211,-2.1211,-2.1211,-2.1211,0.0,0.0,0.0,0.0,0.0,0.0,0.0,0.0,0.0,0.0,0.0,0.0,0.0,0.0,0.0,0.0,0.0,0.0,0.0,0.0,0.0,0.0,0.0,0.0,0.0,0.0,0.0,0.0,-0.9213,-0.9379,-0.9379,-1.0257,-1.1341,-1.2802,-1.3383,-1.3809,-1.403,-1.4078,-1.4083,-1.4083,-1.4423,-1.4597,-1.4614,-1.5029,-1.525,-1.5277,-1.5456,-1.6573,-1.8298,-1.8305,-1.8298,-1.8298,-1.8298,-1.8298,-1.8298,-1.8298,-1.8298,-1.8298,-1.8298,-1.8298,-1.8298,-1.8298,-1.7707,-1.6873,-1.652,-1.6166,-1.605,-1.7038,-1.6974,-1.6769,-1.765,-1.6926,-1.6014,-1.6343,-1.719,-1.8033,-1.8413,-1.9826,-2.0982,-2.1046,-2.1046,-2.1046,-2.1046,-2.1046,-2.1046,-2.1046,-2.1109,-2.1109,-2.1109,-2.1109,-2.1109,-2.1109,-2.1109,-2.1235,-2.1544,-2.1607,-2.1859,-2.2543,-2.2606,-2.2731,-2.3113,-2.3106,-2.2952,-2.263,-2.2623,-2.2315,-2.1693,-2.1379,-2.1218,-2.1211,-2.1211,-2.1211,-0.0787,0.0,0.0,0.0,0.0,0.0,0.0,0.0,0.0,0.0,0.0,0.0,0.0,0.0,0.0,0.0,0.0,0.0,0.0,0.0,0.0,0.0,0.0,0.0,0.0,0.0,0.0,0.0,-0.8992,-0.9158,-0.9379,-1.0257,-1.0966,-1.1559,-1.2363,-1.2792,-1.2847,-1.3285,-1.3501,-1.3501,-1.3617,-1.3735,-1.3951,-1.408,-1.4318,-1.4639,-1.4702,-1.5061,-1.5693,-1.6166,-1.6343,-1.6343,-1.6343,-1.6343,-1.6343,-1.6343,-1.6343,-1.6343,-1.6343,-1.6343,-1.6343,-1.6343,-1.6042,-1.5477,-1.4806,-1.4725,-1.4921,-1.5287,-1.5448,-1.5499,-1.5454,-1.453,-1.3809,-1.4464,-1.5173,-1.5949,-1.6597,-1.7431,-1.8594,-2.0094,-2.0361,-2.0361,-2.0361,-2.0361,-2.0361,-2.0361,-2.0609,-2.0729,-2.0729,-2.0919,-2.1109,-2.1109,-2.1109,-2.1172,-2.1235,-2.1488,-2.1796,-2.2237,-2.248,-2.2731,-2.3113,-2.3106,-2.2952,-2.263,-2.2623,-2.2315,-2.1693,-2.1606,-2.1445,-2.1211,-2.1211,-2.1211,-0.0675,-0.0701,-0.0706,0.0,0.0,0.0,0.0,-0.2563,0.0,0.0,0.0,0.0,0.0,0.0,0.0,0.0,0.0,0.0,0.0,0.0,0.0,0.0,0.0,0.0,0.0,-0.8848,-0.8885,-0.8885,-0.8885,-0.8992,-0.9158,-0.9651,-1.0091,-1.0363,-1.0903,-1.1223,-1.1332,-1.166,-1.1828,-1.1828,-1.1828,-1.1941,-1.2054,-1.2131,-1.2415,-1.2767,-1.2938,-1.3139,-1.3314,-1.382,-1.451,-1.5159,-1.5159,-1.5159,-1.5159,-1.5159,-1.5159,-1.5159,-1.5159,-1.5159,-1.5159,-1.5159,-1.4862,-1.4411,-1.3821,-1.3737,-1.3872,-1.4248,-1.4532,-1.4711,-1.4119,-1.3363,-1.2968,-1.3555,-1.4202,-1.4852,-1.5429,-1.6073,-1.7044,-1.8542,-1.8798,-1.8798,-1.8798,-1.8798,-1.8932,-1.9188,-1.9635,-2.0017,-2.0342,-2.0792,-2.1109,-2.1109,-2.1109,-2.1109,-2.1109,-2.1299,-2.1607,-2.2048,-2.2299,-2.2606,-2.3113,-2.3106,-2.3018,-2.2828,-2.2828,-2.2579,-2.2081,-2.1818,-2.1533,-2.1211,-2.1211,-2.1211,-0.077,-0.0753,-0.0723,-0.0777,-0.0883,0.0,-0.1268,-0.173,0.0,0.0,0.0,0.0,0.0,0.0,0.0,0.0,0.0,0.0,0.0,0.0,0.0,0.0,0.0,0.0,-0.8686,-0.8808,-0.8834,-0.8834,-0.8834,-0.8841,-0.8858,-0.8858,-0.903,-0.9323,-0.9379,-0.9489,-0.9761,-0.9761,-0.9816,-0.9816,-0.9816,-0.9816,-0.982,-0.9962,-1.0209,-1.0537,-1.0918,-1.1244,-1.1516,-1.1699,-1.2788,-1.4272,-1.4272,-1.4272,-1.4272,-1.4272,-1.4272,-1.4272,-1.4272,-1.4272,-1.4272,-1.4272,-1.3918,-1.3453,-1.3171,-1.2999,-1.3,-1.3577,-1.3974,-1.408,-1.3498,-1.3038,-1.2902,-1.3239,-1.3822,-1.4272,-1.4586,-1.5168,-1.5819,-1.6398,-1.6721,-1.691,-1.691,-1.691,-1.7103,-1.7748,-1.846,-1.917,-1.982,-2.0596,-2.1046,-2.1046,-2.1109,-2.1109,-2.1109,-2.1109,-2.1355,-2.1985,-2.2111,-2.2362,-2.3043,-2.3113,-2.3106,-2.3106,-2.3069,-2.2908,-2.2623,-2.2037,-2.1606,-2.132,-2.132,-2.132,-0.0793,-0.079,-0.0784,-0.0795,0.0,0.0,-0.0917,-0.1238,0.0,0.0,0.0,0.0,0.0,0.0,0.0,0.0,0.0,0.0,0.0,0.0,0.0,0.0,0.0,0.0,-0.8526,-0.8554,-0.857,-0.857,-0.857,-0.8625,-0.875,-0.8754,-0.8811,-0.8989,-0.9268,-0.9434,-0.9489,-0.9706,-0.9816,-0.9816,-0.9816,-0.9816,-0.9816,-0.9846,-1.0103,-1.0529,-1.0728,-1.1129,-1.1516,-1.1699,-1.2014,-1.2371,-1.2371,-1.2371,-1.2371,-1.2371,-1.2371,-1.2371,-1.2371,-1.2371,-1.2371,-1.2371,-1.2255,-1.2164,-1.2241,-1.225,-1.2283,-1.2736,-1.299,-1.3099,-1.2968,-1.2836,-1.2836,-1.2902,-1.3034,-1.3161,-1.3227,-1.3288,-1.3486,-1.3613,-1.5038,-1.6203,-1.6203,-1.6203,-1.6338,-1.6732,-1.7577,-1.8349,-1.8798,-1.996,-2.0672,-2.0672,-2.0919,-2.1109,-2.1109,-2.1109,-2.1299,-2.167,-2.1922,-2.2299,-2.2675,-2.2988,-2.3106,-2.3106,-2.2849,-2.2689,-2.2623,-2.2264,-2.2059,-2.1993,-2.1993,-2.1993,-0.0848,-0.0841,-0.0859,-0.0848,0.0,0.0,0.0,0.0,0.0,0.0,0.0,0.0,0.0,0.0,0.0,0.0,0.0,0.0,0.0,0.0,0.0,0.0,0.0,0.0,-0.8377,-0.8438,-0.8482,-0.8482,-0.8482,-0.8516,-0.8594,-0.8669,-0.8747,-0.8821,-0.901,-0.9158,-0.9158,-0.9268,-0.9379,-0.9379,-0.9379,-0.9379,-0.9379,-0.9379,-0.9639,-1.0177,-1.0425,-1.0871,-1.1382,-1.1663,-1.1776,-1.1776,-1.1776,-1.1776,-1.1776,-1.1776,-1.1776,-1.1776,-1.1776,-1.1776,-1.1776,-1.1776,-1.1776,-1.1792,-1.1878,-1.2028,-1.2203,-1.2385,-1.2629,-1.277,-1.277,-1.277,-1.277,-1.277,-1.277,-1.277,-1.277,-1.277,-1.277,-1.277,-1.3682,-1.4394,-1.4394,-1.4394,-1.459,-1.5113,-1.5889,-1.6796,-1.7711,-1.899,-1.9954,-2.0342,-2.0792,-2.1109,-2.1109,-2.1109,-2.1235,-2.1607,-2.1734,-2.1985,-2.2362,-2.2487,-2.2675,-2.2856,-2.2828,-2.2864,-2.2864,-2.2718,-2.2484,-2.2184,-2.2184,-2.2184,0.0,0.0,0.0,0.0,0.0,-0.0831,0.0,0.0,0.0,0.0,0.0,0.0,0.0,0.0,0.0,0.0,0.0,0.0,0.0,0.0,0.0,0.0,0.0,0.0,0.0,-0.8174,-0.8248,-0.8306,-0.8286,-0.8306,-0.8391,-0.8543,-0.8652,-0.871,-0.8828,-0.8854,-0.8885,-0.8885,-0.8885,-0.8885,-0.8885,-0.8885,-0.8885,-0.8885,-0.9213,-0.9724,-1.0106,-1.059,-1.1137,-1.1626,-1.1776,-1.1776,-1.1776,-1.1776,-1.1776,-1.1776,-1.1776,-1.1776,-1.1776,-1.1776,-1.1776,-1.1776,-1.1776,-1.1776,-1.1776,-1.2024,-1.2308,-1.2308,-1.2564,-1.277,-1.277,-1.277,-1.277,-1.277,-1.277,-1.277,-1.277,-1.277,-1.277,-1.277,-1.277,-1.277,-1.277,-1.277,-1.3034,-1.3682,-1.4394,-1.5238,-1.6548,-1.7958,-1.9042,-1.9756,-2.0469,-2.0926,-2.0926,-2.0982,-2.1109,-2.1418,-2.1544,-2.1734,-2.1985,-2.2048,-2.2237,-2.2606,-2.2798,-2.2948,-2.3018,-2.2959,-2.2732,-2.2359,-2.2359,-2.2359,0.0,0.0,0.0,0.0,-0.0806,0.0,0.0,0.0,0.0,0.0,0.0,0.0,0.0,0.0,0.0,0.0,0.0,0.0,0.0,0.0,0.0,0.0,0.0,0.0,0.0,-0.7269,-0.7358,-0.7678,-0.7573,-0.7672,-0.8019,-0.8235,-0.8438,-0.8703,-0.8726,-0.8801,-0.8881,-0.8885,-0.8885,-0.8885,-0.8885,-0.8885,-0.8885,-0.8885,-0.9103,-0.9452,-1.0049,-1.0532,-1.0906,-1.1566,-1.1776,-1.1776,-1.1776,-1.1776,-1.1776,-1.1776,-1.1776,-1.1776,-1.1776,-1.1776,-1.1776,-1.1776,-1.1776,-1.1776,-1.1776,-1.2024,-1.2308,-1.2308,-1.2564,-1.277,-1.277,-1.277,-1.277,-1.277,-1.277,-1.277,-1.277,-1.277,-1.277,-1.277,-1.277,-1.277,-1.277,-1.277,-1.2968,-1.3367,-1.4015,-1.4726,-1.5504,-1.7055,-1.8291,-1.8734,-1.9647,-2.0234,-2.0234,-2.0488,-2.0672,-2.0736,-2.1299,-2.1607,-2.167,-2.1922,-2.2237,-2.2606,-2.2326,-2.2375,-2.2674,-2.2418,-2.2535,-2.3003,-2.3003,-2.3003,0.0,0.0,0.0,0.0,0.0,0.0,-0.0883,0.0,-0.0806,0.0,0.0,0.0,0.0,0.0,0.0,0.0,0.0,0.0,0.0,0.0,0.0,0.0,0.0,0.0,0.0,0.0,0.0,0.0,-0.7227,-0.7397,-0.7763,-0.8092,-0.8326,-0.8452,-0.8621,-0.8743,-0.8804,-0.8841,-0.8885,-0.8885,-0.8885,-0.8885,-0.8885,-0.8885,-0.9103,-0.9452,-0.9877,-1.0247,-1.0558,-1.1017,-1.122,-1.122,-1.122,-1.1466,-1.1776,-1.1776,-1.1776,-1.1776,-1.1776,-1.1776,-1.1776,-1.1776,-1.1776,-1.1776,-1.1776,-1.2024,-1.2308,-1.2308,-1.2564,-1.277,-1.277,-1.277,-1.277,-1.277,-1.277,-1.277,-1.277,-1.277,-1.277,-1.277,-1.277,-1.277,-1.277,-1.277,-1.2836,-1.3038,-1.3297,-1.3748,-1.4464,-1.5499,-1.6403,-1.698,-1.7759,-1.8472,-1.8862,-1.9374,-1.982,-2.0278,-2.0912,-2.1299,-2.1299,-2.1607,-2.1859,-2.2048,-2.1934,-2.1956,-2.2079,-2.1772,-2.1851,-2.2279,-2.2643,-2.2923,-0.0672,0.0,0.0,0.0,0.0,0.0,0.0,0.0,0.0,0.0,0.0,0.0,0.0,0.0,0.0,0.0,0.0,0.0,0.0,0.0,0.0,0.0,0.0,0.0,0.0,0.0,0.0,0.0,0.0,-0.696,-0.7394,-0.7841,-0.8123,-0.8204,-0.8492,-0.8669,-0.871,-0.8807,-0.8885,-0.8885,-0.8885,-0.8885,-0.8885,-0.8885,-0.9047,-0.9286,-0.971,-1.0015,-1.0215,-1.0655,-1.0789,-1.0789,-1.0789,-1.1095,-1.153,-1.153,-1.1591,-1.1651,-1.1651,-1.1712,-1.1776,-1.1776,-1.1776,-1.1776,-1.1776,-1.2024,-1.2308,-1.2308,-1.2564,-1.277,-1.277,-1.277,-1.277,-1.277,-1.277,-1.277,-1.277,-1.277,-1.277,-1.277,-1.277,-1.277,-1.277,-1.277,-1.277,-1.277,-1.277,-1.3013,-1.3609,-1.4247,-1.4864,-1.5446,-1.6146,-1.6786,-1.736,-1.8186,-1.9066,-2.0093,-2.0539,-2.0813,-2.0869,-2.1118,-2.1237,-2.1361,-2.132,-2.1343,-2.1465,-2.1089,-2.1145,-2.1591,-2.222,-2.2675,0.0,0.0,0.0,-0.026,0.0,0.0,0.0,0.0,-0.0699,0.0,0.0,0.0,0.0,0.0,-0.0551,-0.0431,0.0,0.0,0.0,0.0,0.0,0.0,0.0,0.0,0.0,0.0,0.0,0.0,0.0,0.0,-0.6876,-0.7377,-0.7753,-0.7988,-0.8336,-0.856,-0.871,-0.8807,-0.8885,-0.8885,-0.8885,-0.8885,-0.8885,-0.8885,-0.8885,-0.8957,-0.9595,-0.9903,-0.9982,-1.0535,-1.0789,-1.0789,-1.0789,-1.0789,-1.0849,-1.0849,-1.1031,-1.1333,-1.1333,-1.1522,-1.1776,-1.1776,-1.1776,-1.1776,-1.1776,-1.2024,-1.2308,-1.2308,-1.2564,-1.277,-1.277,-1.277,-1.277,-1.277,-1.277,-1.277,-1.277,-1.277,-1.277,-1.277,-1.277,-1.277,-1.277,-1.277,-1.277,-1.277,-1.277,-1.2902,-1.3113,-1.3722,-1.4216,-1.4461,-1.5057,-1.5618,-1.5934,-1.7144,-1.8486,-2.0073,-1.9944,-1.997,-2.02,-2.0261,-2.0382,-2.0739,-2.0511,-2.0472,-2.0826,-2.051,-2.0613,-2.1208,-2.1882,-2.2374,0.0,0.0,-0.0176,-0.0202,0.0,0.0,0.0,0.0,0.0,0.0,0.0,0.0,0.0,0.0,-0.0463,-0.0394,-0.0398,-0.0402,0.0,0.0,0.0,0.0,0.0,0.0,0.0,0.0,0.0,0.0,-0.5387,0.0,0.0,-0.7,-0.7434,-0.774,-0.8225,-0.8506,-0.856,-0.8811,-0.8885,-0.8885,-0.8885,-0.8885,-0.8885,-0.8885,-0.8885,-0.8898,-0.9367,-0.9555,-0.9576,-0.9996,-1.0122,-1.0122,-1.0122,-1.0122,-1.0183,-1.0668,-1.0849,-1.097,-1.1212,-1.1522,-1.1776,-1.1776,-1.1776,-1.1776,-1.1776,-1.2024,-1.228,-1.2158,-1.2381,-1.2629,-1.2515,-1.2487,-1.2487,-1.2487,-1.2487,-1.2487,-1.2487,-1.2487,-1.2487,-1.2487,-1.2487,-1.2487,-1.2487,-1.258,-1.2698,-1.282,-1.277,-1.2771,-1.2782,-1.2946,-1.3067,-1.3011,-1.3241,-1.3546,-1.411,-1.5862,-1.7536,-1.9025,-1.9345,-1.9687,-2.0173,-2.0173,-2.0234,-2.0348,-2.0126,-2.0037,-2.0149,-1.9856,-2.0013,-2.053,-2.0796,-2.1441,-0.0188,-0.0112,0.0,-0.0107,-0.0137,0.0,-0.0247,0.0,0.0,0.0,0.0,0.0,0.0,0.0,-0.0315,-0.0273,-0.0256,-0.0263,0.0,-0.0251,0.0,0.0,0.0,0.0,0.0,0.0,-0.3811,-0.4196,-0.4798,0.0,0.0,0.0,-0.7058,-0.7409,-0.8143,-0.8482,-0.8482,-0.8784,-0.8885,-0.8885,-0.8885,-0.8885,-0.8885,-0.8885,-0.8885,-0.8898,-0.9252,-0.9381,-0.9405,-0.97,-0.9822,-0.9822,-0.9822,-0.9822,-0.9883,-1.0304,-1.0547,-1.0668,-1.1031,-1.132,-1.15,-1.15,-1.1543,-1.1594,-1.1594,-1.1791,-1.198,-1.1928,-1.2147,-1.2391,-1.2289,-1.2308,-1.2308,-1.2308,-1.2308,-1.2308,-1.2308,-1.2308,-1.2308,-1.2308,-1.2308,-1.2308,-1.2308,-1.245,-1.2605,-1.2722,-1.2795,-1.2747,-1.2503,-1.2471,-1.2381,-1.2142,-1.2117,-1.2449,-1.3314,-1.4797,-1.6318,-1.7922,-1.8307,-1.8829,-1.9561,-1.9561,-1.9621,-1.9734,-1.9555,-1.9522,-1.9646,-1.9459,-1.9613,-2.0074,-2.0017,-2.0495]}]]